<?xml version="1.0" encoding="utf-8"?>
<gpx xmlns:xsi="http://www.w3.org/2001/XMLSchema-instance" xmlns:xsd="http://www.w3.org/2001/XMLSchema" version="1.1" creator="Shapelink.com" xmlns="http://www.topografix.com/GPX/1/1" xmlns:gpxtpx="http://www.garmin.com/xmlschemas/TrackPointExtension/v1">
  <metadata>
    <name>Längdskidåkning - Klassisk 32.08 km, 2013-03-14</name>
    <desc></desc>
    <author><name>Alexander Engvall</name></author> 
    <time>2013-03-14T19:38:11Z</time>
  </metadata>
  <trk>
    <name>Längdskidåkning - Klassisk 32.08 km, 2013-03-14</name>
    <trkseg>
      <trkpt lat="59.4869132634" lon="18.0845087418">
        <ele>29.4</ele>
        <time>2013-03-14T19:38:11Z</time>
      </trkpt>
      <trkpt lat="59.4869132634" lon="18.0845087418">
        <ele>29.4</ele>
        <time>2013-03-14T19:38:12Z</time>
      </trkpt>
      <trkpt lat="59.4869132634" lon="18.0845087418">
        <ele>29.4</ele>
        <time>2013-03-14T19:38:16Z</time>
      </trkpt>
      <trkpt lat="59.4869120899" lon="18.0845198898">
        <ele>29.4</ele>
        <time>2013-03-14T19:38:20Z</time>
      </trkpt>
      <trkpt lat="59.4869075637" lon="18.0846141861">
        <ele>29.4</ele>
        <time>2013-03-14T19:38:22Z</time>
      </trkpt>
      <trkpt lat="59.486880071" lon="18.0848539923">
        <ele>29.4</ele>
        <time>2013-03-14T19:38:26Z</time>
      </trkpt>
      <trkpt lat="59.486799521" lon="18.0851317685">
        <ele>29.4</ele>
        <time>2013-03-14T19:38:30Z</time>
      </trkpt>
      <trkpt lat="59.4867721122" lon="18.0853058605">
        <ele>29.4</ele>
        <time>2013-03-14T19:38:32Z</time>
      </trkpt>
      <trkpt lat="59.4867789015" lon="18.085769631">
        <ele>29.4</ele>
        <time>2013-03-14T19:38:37Z</time>
      </trkpt>
      <trkpt lat="59.4868159495" lon="18.0859687012">
        <ele>29.4</ele>
        <time>2013-03-14T19:38:39Z</time>
      </trkpt>
      <trkpt lat="59.4868621338" lon="18.0862363352">
        <ele>29.4</ele>
        <time>2013-03-14T19:38:42Z</time>
      </trkpt>
      <trkpt lat="59.4869800671" lon="18.0868436877">
        <ele>29.4</ele>
        <time>2013-03-14T19:38:49Z</time>
      </trkpt>
      <trkpt lat="59.4870075597" lon="18.0869234834">
        <ele>29.4</ele>
        <time>2013-03-14T19:38:50Z</time>
      </trkpt>
      <trkpt lat="59.4871119144" lon="18.0871089748">
        <ele>29.4</ele>
        <time>2013-03-14T19:38:53Z</time>
      </trkpt>
      <trkpt lat="59.4872023551" lon="18.0873605995">
        <ele>29.4</ele>
        <time>2013-03-14T19:38:57Z</time>
      </trkpt>
      <trkpt lat="59.4872152632" lon="18.0874330191">
        <ele>29.4</ele>
        <time>2013-03-14T19:38:58Z</time>
      </trkpt>
      <trkpt lat="59.4872434264" lon="18.087658576">
        <ele>29.4</ele>
        <time>2013-03-14T19:39:01Z</time>
      </trkpt>
      <trkpt lat="59.4873212104" lon="18.0881776671">
        <ele>29.4</ele>
        <time>2013-03-14T19:39:08Z</time>
      </trkpt>
      <trkpt lat="59.4873679814" lon="18.0886431978">
        <ele>29.4</ele>
        <time>2013-03-14T19:39:14Z</time>
      </trkpt>
      <trkpt lat="59.4873975696" lon="18.0891167752">
        <ele>29.4</ele>
        <time>2013-03-14T19:39:20Z</time>
      </trkpt>
      <trkpt lat="59.4874652115" lon="18.0894536437">
        <ele>29.4</ele>
        <time>2013-03-14T19:39:25Z</time>
      </trkpt>
      <trkpt lat="59.4876160019" lon="18.0898334276">
        <ele>29.4</ele>
        <time>2013-03-14T19:39:31Z</time>
      </trkpt>
      <trkpt lat="59.4877688039" lon="18.0900934342">
        <ele>29.4</ele>
        <time>2013-03-14T19:39:36Z</time>
      </trkpt>
      <trkpt lat="59.4880068499" lon="18.0903878065">
        <ele>29.4</ele>
        <time>2013-03-14T19:39:43Z</time>
      </trkpt>
      <trkpt lat="59.4882231029" lon="18.0905651675">
        <ele>29.4</ele>
        <time>2013-03-14T19:39:49Z</time>
      </trkpt>
      <trkpt lat="59.4884230112" lon="18.0907292851">
        <ele>29.4</ele>
        <time>2013-03-14T19:39:55Z</time>
      </trkpt>
      <trkpt lat="59.4884515097" lon="18.0907490664">
        <ele>29.8</ele>
        <time>2013-03-14T19:39:56Z</time>
      </trkpt>
      <trkpt lat="59.4884821036" lon="18.0907736253">
        <ele>30.4</ele>
        <time>2013-03-14T19:39:57Z</time>
      </trkpt>
      <trkpt lat="59.4885106859" lon="18.0907931552">
        <ele>30.8</ele>
        <time>2013-03-14T19:39:58Z</time>
      </trkpt>
      <trkpt lat="59.4885462251" lon="18.0908119306">
        <ele>31.2</ele>
        <time>2013-03-14T19:39:59Z</time>
      </trkpt>
      <trkpt lat="59.4885846142" lon="18.090827018">
        <ele>31.6</ele>
        <time>2013-03-14T19:40:00Z</time>
      </trkpt>
      <trkpt lat="59.4886688523" lon="18.0908678379">
        <ele>31.6</ele>
        <time>2013-03-14T19:40:02Z</time>
      </trkpt>
      <trkpt lat="59.48870699" lon="18.090893738">
        <ele>31.6</ele>
        <time>2013-03-14T19:40:03Z</time>
      </trkpt>
      <trkpt lat="59.4888475544" lon="18.0909541715">
        <ele>31.6</ele>
        <time>2013-03-14T19:40:07Z</time>
      </trkpt>
      <trkpt lat="59.4890515699" lon="18.091125749">
        <ele>31.6</ele>
        <time>2013-03-14T19:40:13Z</time>
      </trkpt>
      <trkpt lat="59.4892688287" lon="18.0913749428">
        <ele>31.6</ele>
        <time>2013-03-14T19:40:19Z</time>
      </trkpt>
      <trkpt lat="59.4894621992" lon="18.0916699019">
        <ele>31.6</ele>
        <time>2013-03-14T19:40:25Z</time>
      </trkpt>
      <trkpt lat="59.4895865866" lon="18.0919961255">
        <ele>31.6</ele>
        <time>2013-03-14T19:40:30Z</time>
      </trkpt>
      <trkpt lat="59.4897186853" lon="18.092449251">
        <ele>31.6</ele>
        <time>2013-03-14T19:40:36Z</time>
      </trkpt>
      <trkpt lat="59.4898760136" lon="18.0928960062">
        <ele>31.6</ele>
        <time>2013-03-14T19:40:42Z</time>
      </trkpt>
      <trkpt lat="59.4899957071" lon="18.0930987644">
        <ele>31.6</ele>
        <time>2013-03-14T19:40:46Z</time>
      </trkpt>
      <trkpt lat="59.4900343477" lon="18.0931434399">
        <ele>31.6</ele>
        <time>2013-03-14T19:40:47Z</time>
      </trkpt>
      <trkpt lat="59.4901775105" lon="18.0932989242">
        <ele>31.6</ele>
        <time>2013-03-14T19:40:51Z</time>
      </trkpt>
      <trkpt lat="59.490211541" lon="18.0933528198">
        <ele>31.6</ele>
        <time>2013-03-14T19:40:52Z</time>
      </trkpt>
      <trkpt lat="59.4903206734" lon="18.0936281652">
        <ele>31.6</ele>
        <time>2013-03-14T19:40:56Z</time>
      </trkpt>
      <trkpt lat="59.4903454838" lon="18.0937011716">
        <ele>31.6</ele>
        <time>2013-03-14T19:40:57Z</time>
      </trkpt>
      <trkpt lat="59.4904376847" lon="18.0938818853">
        <ele>31.6</ele>
        <time>2013-03-14T19:41:00Z</time>
      </trkpt>
      <trkpt lat="59.4904774987" lon="18.093925555">
        <ele>31.6</ele>
        <time>2013-03-14T19:41:01Z</time>
      </trkpt>
      <trkpt lat="59.4906503335" lon="18.093932512">
        <ele>31.6</ele>
        <time>2013-03-14T19:41:05Z</time>
      </trkpt>
      <trkpt lat="59.4907287881" lon="18.0938571587">
        <ele>31.6</ele>
        <time>2013-03-14T19:41:07Z</time>
      </trkpt>
      <trkpt lat="59.4908405188" lon="18.0937756866">
        <ele>31.6</ele>
        <time>2013-03-14T19:41:10Z</time>
      </trkpt>
      <trkpt lat="59.4910419359" lon="18.0937098887">
        <ele>31.6</ele>
        <time>2013-03-14T19:41:15Z</time>
      </trkpt>
      <trkpt lat="59.491241006" lon="18.0936416601">
        <ele>31.6</ele>
        <time>2013-03-14T19:41:20Z</time>
      </trkpt>
      <trkpt lat="59.4914591868" lon="18.0935162668">
        <ele>31.6</ele>
        <time>2013-03-14T19:41:26Z</time>
      </trkpt>
      <trkpt lat="59.4916217957" lon="18.0933714276">
        <ele>31.6</ele>
        <time>2013-03-14T19:41:31Z</time>
      </trkpt>
      <trkpt lat="59.491818938" lon="18.093325411">
        <ele>31.6</ele>
        <time>2013-03-14T19:41:36Z</time>
      </trkpt>
      <trkpt lat="59.4918601769" lon="18.0933333738">
        <ele>31.6</ele>
        <time>2013-03-14T19:41:37Z</time>
      </trkpt>
      <trkpt lat="59.4919682196" lon="18.093411996">
        <ele>31.6</ele>
        <time>2013-03-14T19:41:40Z</time>
      </trkpt>
      <trkpt lat="59.492000909" lon="18.0934760337">
        <ele>31.6</ele>
        <time>2013-03-14T19:41:41Z</time>
      </trkpt>
      <trkpt lat="59.4920522063" lon="18.093626405">
        <ele>31.6</ele>
        <time>2013-03-14T19:41:43Z</time>
      </trkpt>
      <trkpt lat="59.4920939481" lon="18.093759761">
        <ele>31.6</ele>
        <time>2013-03-14T19:41:45Z</time>
      </trkpt>
      <trkpt lat="59.4922497676" lon="18.0940230365">
        <ele>31.6</ele>
        <time>2013-03-14T19:41:50Z</time>
      </trkpt>
      <trkpt lat="59.4924303138" lon="18.0942097014">
        <ele>31.6</ele>
        <time>2013-03-14T19:41:55Z</time>
      </trkpt>
      <trkpt lat="59.4926645041" lon="18.0944496752">
        <ele>31.6</ele>
        <time>2013-03-14T19:42:01Z</time>
      </trkpt>
      <trkpt lat="59.4928436253" lon="18.0946279582">
        <ele>31.6</ele>
        <time>2013-03-14T19:42:06Z</time>
      </trkpt>
      <trkpt lat="59.4931446193" lon="18.0947996196">
        <ele>31.6</ele>
        <time>2013-03-14T19:42:14Z</time>
      </trkpt>
      <trkpt lat="59.4931876184" lon="18.0947948419">
        <ele>31.6</ele>
        <time>2013-03-14T19:42:15Z</time>
      </trkpt>
      <trkpt lat="59.4932970022" lon="18.094747568">
        <ele>31.6</ele>
        <time>2013-03-14T19:42:18Z</time>
      </trkpt>
      <trkpt lat="59.493457348" lon="18.0947282896">
        <ele>31.6</ele>
        <time>2013-03-14T19:42:22Z</time>
      </trkpt>
      <trkpt lat="59.4934978326" lon="18.0947292954">
        <ele>31.6</ele>
        <time>2013-03-14T19:42:23Z</time>
      </trkpt>
      <trkpt lat="59.493622639" lon="18.0947408624">
        <ele>32</ele>
        <time>2013-03-14T19:42:26Z</time>
      </trkpt>
      <trkpt lat="59.4936645485" lon="18.0947441314">
        <ele>32.4</ele>
        <time>2013-03-14T19:42:27Z</time>
      </trkpt>
      <trkpt lat="59.4937057875" lon="18.0947429579">
        <ele>32.8</ele>
        <time>2013-03-14T19:42:28Z</time>
      </trkpt>
      <trkpt lat="59.4937493734" lon="18.0947457239">
        <ele>33.2</ele>
        <time>2013-03-14T19:42:29Z</time>
      </trkpt>
      <trkpt lat="59.4937896065" lon="18.0947535191">
        <ele>33.6</ele>
        <time>2013-03-14T19:42:30Z</time>
      </trkpt>
      <trkpt lat="59.493826403" lon="18.0947598893">
        <ele>33.6</ele>
        <time>2013-03-14T19:42:31Z</time>
      </trkpt>
      <trkpt lat="59.4939508743" lon="18.094772546">
        <ele>33.6</ele>
        <time>2013-03-14T19:42:34Z</time>
      </trkpt>
      <trkpt lat="59.4940686399" lon="18.0947571233">
        <ele>33.6</ele>
        <time>2013-03-14T19:42:37Z</time>
      </trkpt>
      <trkpt lat="59.4941094598" lon="18.0947360009">
        <ele>33.6</ele>
        <time>2013-03-14T19:42:38Z</time>
      </trkpt>
      <trkpt lat="59.4942165805" lon="18.0946293832">
        <ele>33.6</ele>
        <time>2013-03-14T19:42:41Z</time>
      </trkpt>
      <trkpt lat="59.4942835519" lon="18.0945308958">
        <ele>33.6</ele>
        <time>2013-03-14T19:42:43Z</time>
      </trkpt>
      <trkpt lat="59.4943739087" lon="18.0943698795">
        <ele>33.6</ele>
        <time>2013-03-14T19:42:46Z</time>
      </trkpt>
      <trkpt lat="59.4944548779" lon="18.0940633535">
        <ele>33.6</ele>
        <time>2013-03-14T19:42:50Z</time>
      </trkpt>
      <trkpt lat="59.4944972065" lon="18.0936959748">
        <ele>33.6</ele>
        <time>2013-03-14T19:42:54Z</time>
      </trkpt>
      <trkpt lat="59.4944987152" lon="18.0936062046">
        <ele>33.6</ele>
        <time>2013-03-14T19:42:55Z</time>
      </trkpt>
      <trkpt lat="59.4944848013" lon="18.0933270035">
        <ele>33.6</ele>
        <time>2013-03-14T19:42:58Z</time>
      </trkpt>
      <trkpt lat="59.4944521957" lon="18.093161461">
        <ele>33.6</ele>
        <time>2013-03-14T19:43:00Z</time>
      </trkpt>
      <trkpt lat="59.4943137267" lon="18.0928108461">
        <ele>33.6</ele>
        <time>2013-03-14T19:43:05Z</time>
      </trkpt>
      <trkpt lat="59.4942112999" lon="18.0926735506">
        <ele>33.6</ele>
        <time>2013-03-14T19:43:08Z</time>
      </trkpt>
      <trkpt lat="59.4940985633" lon="18.0925370095">
        <ele>33.6</ele>
        <time>2013-03-14T19:43:11Z</time>
      </trkpt>
      <trkpt lat="59.4938589248" lon="18.0922775897">
        <ele>33.6</ele>
        <time>2013-03-14T19:43:17Z</time>
      </trkpt>
      <trkpt lat="59.4936414983" lon="18.0920636836">
        <ele>33.6</ele>
        <time>2013-03-14T19:43:23Z</time>
      </trkpt>
      <trkpt lat="59.4933479642" lon="18.0918142382">
        <ele>33.6</ele>
        <time>2013-03-14T19:43:31Z</time>
      </trkpt>
      <trkpt lat="59.4931174619" lon="18.0915863344">
        <ele>33.6</ele>
        <time>2013-03-14T19:43:38Z</time>
      </trkpt>
      <trkpt lat="59.4930889635" lon="18.0915445925">
        <ele>33.6</ele>
        <time>2013-03-14T19:43:39Z</time>
      </trkpt>
      <trkpt lat="59.4930606327" lon="18.0914977377">
        <ele>34</ele>
        <time>2013-03-14T19:43:40Z</time>
      </trkpt>
      <trkpt lat="59.4930380015" lon="18.0914526431">
        <ele>34.4</ele>
        <time>2013-03-14T19:43:41Z</time>
      </trkpt>
      <trkpt lat="59.4930119338" lon="18.0913989989">
        <ele>34.8</ele>
        <time>2013-03-14T19:43:42Z</time>
      </trkpt>
      <trkpt lat="59.4929885483" lon="18.0913472826">
        <ele>35.2</ele>
        <time>2013-03-14T19:43:43Z</time>
      </trkpt>
      <trkpt lat="59.4929694376" lon="18.0912985837">
        <ele>35.6</ele>
        <time>2013-03-14T19:43:44Z</time>
      </trkpt>
      <trkpt lat="59.4928991973" lon="18.0910396668">
        <ele>35.6</ele>
        <time>2013-03-14T19:43:48Z</time>
      </trkpt>
      <trkpt lat="59.4928879655" lon="18.0909550097">
        <ele>35.6</ele>
        <time>2013-03-14T19:43:49Z</time>
      </trkpt>
      <trkpt lat="59.4928743868" lon="18.0906664208">
        <ele>35.6</ele>
        <time>2013-03-14T19:43:52Z</time>
      </trkpt>
      <trkpt lat="59.4928864568" lon="18.0904620701">
        <ele>35.6</ele>
        <time>2013-03-14T19:43:54Z</time>
      </trkpt>
      <trkpt lat="59.4929844412" lon="18.0900830406">
        <ele>35.6</ele>
        <time>2013-03-14T19:43:58Z</time>
      </trkpt>
      <trkpt lat="59.4931761352" lon="18.0898947831">
        <ele>35.6</ele>
        <time>2013-03-14T19:44:02Z</time>
      </trkpt>
      <trkpt lat="59.4932792326" lon="18.0898806177">
        <ele>35.6</ele>
        <time>2013-03-14T19:44:04Z</time>
      </trkpt>
      <trkpt lat="59.4933846769" lon="18.0898726549">
        <ele>35.6</ele>
        <time>2013-03-14T19:44:06Z</time>
      </trkpt>
      <trkpt lat="59.4936901133" lon="18.0898516163">
        <ele>35.6</ele>
        <time>2013-03-14T19:44:12Z</time>
      </trkpt>
      <trkpt lat="59.4939459289" lon="18.0898275603">
        <ele>35.2</ele>
        <time>2013-03-14T19:44:17Z</time>
      </trkpt>
      <trkpt lat="59.4939932867" lon="18.0898258001">
        <ele>34.8</ele>
        <time>2013-03-14T19:44:18Z</time>
      </trkpt>
      <trkpt lat="59.4940404768" lon="18.0898212739">
        <ele>34.4</ele>
        <time>2013-03-14T19:44:19Z</time>
      </trkpt>
      <trkpt lat="59.4940909358" lon="18.0898159933">
        <ele>34</ele>
        <time>2013-03-14T19:44:20Z</time>
      </trkpt>
      <trkpt lat="59.494146424" lon="18.0898106289">
        <ele>33.4</ele>
        <time>2013-03-14T19:44:21Z</time>
      </trkpt>
      <trkpt lat="59.4941933626" lon="18.0898097068">
        <ele>33.4</ele>
        <time>2013-03-14T19:44:22Z</time>
      </trkpt>
      <trkpt lat="59.4945221007" lon="18.08983326">
        <ele>33.4</ele>
        <time>2013-03-14T19:44:29Z</time>
      </trkpt>
      <trkpt lat="59.4946531098" lon="18.0898983873">
        <ele>33.4</ele>
        <time>2013-03-14T19:44:32Z</time>
      </trkpt>
      <trkpt lat="59.4947382699" lon="18.089976339">
        <ele>33.4</ele>
        <time>2013-03-14T19:44:34Z</time>
      </trkpt>
      <trkpt lat="59.4948824386" lon="18.0902044105">
        <ele>33.4</ele>
        <time>2013-03-14T19:44:38Z</time>
      </trkpt>
      <trkpt lat="59.4949137869" lon="18.0902743994">
        <ele>33.4</ele>
        <time>2013-03-14T19:44:39Z</time>
      </trkpt>
      <trkpt lat="59.494941531" lon="18.0903551171">
        <ele>33.4</ele>
        <time>2013-03-14T19:44:40Z</time>
      </trkpt>
      <trkpt lat="59.4950287866" lon="18.0906999484">
        <ele>33.4</ele>
        <time>2013-03-14T19:44:44Z</time>
      </trkpt>
      <trkpt lat="59.4950403536" lon="18.0907977652">
        <ele>33.4</ele>
        <time>2013-03-14T19:44:45Z</time>
      </trkpt>
      <trkpt lat="59.4950556925" lon="18.0910903773">
        <ele>33.4</ele>
        <time>2013-03-14T19:44:48Z</time>
      </trkpt>
      <trkpt lat="59.4950538485" lon="18.0911825782">
        <ele>33.4</ele>
        <time>2013-03-14T19:44:49Z</time>
      </trkpt>
      <trkpt lat="59.4950399345" lon="18.0916674712">
        <ele>33.4</ele>
        <time>2013-03-14T19:44:54Z</time>
      </trkpt>
      <trkpt lat="59.4950404374" lon="18.0917539724">
        <ele>33.4</ele>
        <time>2013-03-14T19:44:55Z</time>
      </trkpt>
      <trkpt lat="59.495056866" lon="18.0920128893">
        <ele>33.4</ele>
        <time>2013-03-14T19:44:58Z</time>
      </trkpt>
      <trkpt lat="59.495083688" lon="18.0921777612">
        <ele>33.4</ele>
        <time>2013-03-14T19:45:00Z</time>
      </trkpt>
      <trkpt lat="59.4951877074" lon="18.092455705">
        <ele>33.4</ele>
        <time>2013-03-14T19:45:04Z</time>
      </trkpt>
      <trkpt lat="59.4953276013" lon="18.0927944176">
        <ele>33.4</ele>
        <time>2013-03-14T19:45:09Z</time>
      </trkpt>
      <trkpt lat="59.4953848497" lon="18.0930338885">
        <ele>33.4</ele>
        <time>2013-03-14T19:45:12Z</time>
      </trkpt>
      <trkpt lat="59.4953928125" lon="18.0931336331">
        <ele>33.4</ele>
        <time>2013-03-14T19:45:13Z</time>
      </trkpt>
      <trkpt lat="59.4953486399" lon="18.0934733515">
        <ele>33.4</ele>
        <time>2013-03-14T19:45:17Z</time>
      </trkpt>
      <trkpt lat="59.4952361548" lon="18.093688012">
        <ele>33.4</ele>
        <time>2013-03-14T19:45:20Z</time>
      </trkpt>
      <trkpt lat="59.4951988553" lon="18.0937474396">
        <ele>33.4</ele>
        <time>2013-03-14T19:45:21Z</time>
      </trkpt>
      <trkpt lat="59.4950085024" lon="18.0940537143">
        <ele>33.4</ele>
        <time>2013-03-14T19:45:26Z</time>
      </trkpt>
      <trkpt lat="59.4948115277" lon="18.0943272157">
        <ele>33.4</ele>
        <time>2013-03-14T19:45:31Z</time>
      </trkpt>
      <trkpt lat="59.4945696261" lon="18.0946409502">
        <ele>33.4</ele>
        <time>2013-03-14T19:45:38Z</time>
      </trkpt>
      <trkpt lat="59.494527549" lon="18.0946686105">
        <ele>33.4</ele>
        <time>2013-03-14T19:45:39Z</time>
      </trkpt>
      <trkpt lat="59.4943761719" lon="18.0948665909">
        <ele>33.4</ele>
        <time>2013-03-14T19:45:43Z</time>
      </trkpt>
      <trkpt lat="59.4943056801" lon="18.0949582051">
        <ele>33.4</ele>
        <time>2013-03-14T19:45:45Z</time>
      </trkpt>
      <trkpt lat="59.4941910995" lon="18.0950605481">
        <ele>33.4</ele>
        <time>2013-03-14T19:45:48Z</time>
      </trkpt>
      <trkpt lat="59.4941026705" lon="18.095131459">
        <ele>33.4</ele>
        <time>2013-03-14T19:45:50Z</time>
      </trkpt>
      <trkpt lat="59.494030167" lon="18.0952286052">
        <ele>33.4</ele>
        <time>2013-03-14T19:45:52Z</time>
      </trkpt>
      <trkpt lat="59.4939369603" lon="18.0955083092">
        <ele>33.4</ele>
        <time>2013-03-14T19:45:56Z</time>
      </trkpt>
      <trkpt lat="59.493933859" lon="18.0958345327">
        <ele>33.4</ele>
        <time>2013-03-14T19:46:00Z</time>
      </trkpt>
      <trkpt lat="59.4939372956" lon="18.0959201119">
        <ele>33.4</ele>
        <time>2013-03-14T19:46:01Z</time>
      </trkpt>
      <trkpt lat="59.4939364574" lon="18.0960155818">
        <ele>33.4</ele>
        <time>2013-03-14T19:46:02Z</time>
      </trkpt>
      <trkpt lat="59.4939053605" lon="18.0962750016">
        <ele>33.4</ele>
        <time>2013-03-14T19:46:05Z</time>
      </trkpt>
      <trkpt lat="59.4938592601" lon="18.096438281">
        <ele>33.4</ele>
        <time>2013-03-14T19:46:07Z</time>
      </trkpt>
      <trkpt lat="59.4938020117" lon="18.0965625846">
        <ele>33.4</ele>
        <time>2013-03-14T19:46:09Z</time>
      </trkpt>
      <trkpt lat="59.493731939" lon="18.0966828648">
        <ele>33.4</ele>
        <time>2013-03-14T19:46:11Z</time>
      </trkpt>
      <trkpt lat="59.4936996687" lon="18.0967514288">
        <ele>33.4</ele>
        <time>2013-03-14T19:46:12Z</time>
      </trkpt>
      <trkpt lat="59.4936223876" lon="18.096862489">
        <ele>33.4</ele>
        <time>2013-03-14T19:46:14Z</time>
      </trkpt>
      <trkpt lat="59.4935002633" lon="18.0970603018">
        <ele>33.4</ele>
        <time>2013-03-14T19:46:17Z</time>
      </trkpt>
      <trkpt lat="59.4934598625" lon="18.09721302">
        <ele>33.4</ele>
        <time>2013-03-14T19:46:19Z</time>
      </trkpt>
      <trkpt lat="59.4934779675" lon="18.0975665686">
        <ele>33.4</ele>
        <time>2013-03-14T19:46:23Z</time>
      </trkpt>
      <trkpt lat="59.4934957371" lon="18.0976580151">
        <ele>33.4</ele>
        <time>2013-03-14T19:46:24Z</time>
      </trkpt>
      <trkpt lat="59.4935206313" lon="18.097741415">
        <ele>33.4</ele>
        <time>2013-03-14T19:46:25Z</time>
      </trkpt>
      <trkpt lat="59.4935894467" lon="18.0978749387">
        <ele>33.4</ele>
        <time>2013-03-14T19:46:27Z</time>
      </trkpt>
      <trkpt lat="59.4936843298" lon="18.0979632001">
        <ele>33</ele>
        <time>2013-03-14T19:46:29Z</time>
      </trkpt>
      <trkpt lat="59.4937348727" lon="18.0979900221">
        <ele>32.6</ele>
        <time>2013-03-14T19:46:30Z</time>
      </trkpt>
      <trkpt lat="59.4937834877" lon="18.0979959733">
        <ele>32.2</ele>
        <time>2013-03-14T19:46:31Z</time>
      </trkpt>
      <trkpt lat="59.4938339467" lon="18.0979967277">
        <ele>31.8</ele>
        <time>2013-03-14T19:46:32Z</time>
      </trkpt>
      <trkpt lat="59.4938859983" lon="18.0979903574">
        <ele>31.4</ele>
        <time>2013-03-14T19:46:33Z</time>
      </trkpt>
      <trkpt lat="59.4940228748" lon="18.0979572489">
        <ele>31.4</ele>
        <time>2013-03-14T19:46:36Z</time>
      </trkpt>
      <trkpt lat="59.4941928597" lon="18.097914166">
        <ele>31.4</ele>
        <time>2013-03-14T19:46:40Z</time>
      </trkpt>
      <trkpt lat="59.4942373676" lon="18.0979064546">
        <ele>31.4</ele>
        <time>2013-03-14T19:46:41Z</time>
      </trkpt>
      <trkpt lat="59.4943624255" lon="18.0978977374">
        <ele>31.4</ele>
        <time>2013-03-14T19:46:44Z</time>
      </trkpt>
      <trkpt lat="59.4944526148" lon="18.0979390602">
        <ele>31.4</ele>
        <time>2013-03-14T19:46:46Z</time>
      </trkpt>
      <trkpt lat="59.4945980407" lon="18.0981279882">
        <ele>31.4</ele>
        <time>2013-03-14T19:46:50Z</time>
      </trkpt>
      <trkpt lat="59.4946409561" lon="18.0984523678">
        <ele>31.4</ele>
        <time>2013-03-14T19:46:54Z</time>
      </trkpt>
      <trkpt lat="59.4945388645" lon="18.0987505119">
        <ele>31.4</ele>
        <time>2013-03-14T19:46:58Z</time>
      </trkpt>
      <trkpt lat="59.4944095318" lon="18.0988343309">
        <ele>31</ele>
        <time>2013-03-14T19:47:01Z</time>
      </trkpt>
      <trkpt lat="59.4943614197" lon="18.09883475">
        <ele>30.6</ele>
        <time>2013-03-14T19:47:02Z</time>
      </trkpt>
      <trkpt lat="59.4943204322" lon="18.0988279607">
        <ele>29.8</ele>
        <time>2013-03-14T19:47:03Z</time>
      </trkpt>
      <trkpt lat="59.494278858" lon="18.0988168966">
        <ele>29.4</ele>
        <time>2013-03-14T19:47:04Z</time>
      </trkpt>
      <trkpt lat="59.4941477651" lon="18.0987810221">
        <ele>29.4</ele>
        <time>2013-03-14T19:47:07Z</time>
      </trkpt>
      <trkpt lat="59.4939152512" lon="18.0987085186">
        <ele>29.4</ele>
        <time>2013-03-14T19:47:13Z</time>
      </trkpt>
      <trkpt lat="59.4937093917" lon="18.0986449">
        <ele>29.4</ele>
        <time>2013-03-14T19:47:18Z</time>
      </trkpt>
      <trkpt lat="59.4934816555" lon="18.0984848895">
        <ele>29.4</ele>
        <time>2013-03-14T19:47:24Z</time>
      </trkpt>
      <trkpt lat="59.4934468706" lon="18.098433257">
        <ele>29.4</ele>
        <time>2013-03-14T19:47:25Z</time>
      </trkpt>
      <trkpt lat="59.4933425998" lon="18.0981857395">
        <ele>29.4</ele>
        <time>2013-03-14T19:47:29Z</time>
      </trkpt>
      <trkpt lat="59.4933234052" lon="18.0981178461">
        <ele>29.4</ele>
        <time>2013-03-14T19:47:30Z</time>
      </trkpt>
      <trkpt lat="59.4933101618" lon="18.0980434987">
        <ele>29.4</ele>
        <time>2013-03-14T19:47:31Z</time>
      </trkpt>
      <trkpt lat="59.4932868601" lon="18.097894217">
        <ele>29.4</ele>
        <time>2013-03-14T19:47:33Z</time>
      </trkpt>
      <trkpt lat="59.4932769695" lon="18.0978123259">
        <ele>29.4</ele>
        <time>2013-03-14T19:47:34Z</time>
      </trkpt>
      <trkpt lat="59.4932613792" lon="18.0976563387">
        <ele>29.8</ele>
        <time>2013-03-14T19:47:36Z</time>
      </trkpt>
      <trkpt lat="59.4932560147" lon="18.0975741123">
        <ele>30.2</ele>
        <time>2013-03-14T19:47:37Z</time>
      </trkpt>
      <trkpt lat="59.4932514885" lon="18.0974934784">
        <ele>30.6</ele>
        <time>2013-03-14T19:47:38Z</time>
      </trkpt>
      <trkpt lat="59.4932478843" lon="18.0974220646">
        <ele>31</ele>
        <time>2013-03-14T19:47:39Z</time>
      </trkpt>
      <trkpt lat="59.4932407597" lon="18.0973392514">
        <ele>31.4</ele>
        <time>2013-03-14T19:47:40Z</time>
      </trkpt>
      <trkpt lat="59.4932312043" lon="18.0972628923">
        <ele>31.4</ele>
        <time>2013-03-14T19:47:41Z</time>
      </trkpt>
      <trkpt lat="59.4931338905" lon="18.0969178095">
        <ele>31.4</ele>
        <time>2013-03-14T19:47:46Z</time>
      </trkpt>
      <trkpt lat="59.4930357384" lon="18.0966117025">
        <ele>31.4</ele>
        <time>2013-03-14T19:47:51Z</time>
      </trkpt>
      <trkpt lat="59.493100782" lon="18.0963344293">
        <ele>31.4</ele>
        <time>2013-03-14T19:47:55Z</time>
      </trkpt>
      <trkpt lat="59.4932054719" lon="18.0962518675">
        <ele>31.4</ele>
        <time>2013-03-14T19:47:58Z</time>
      </trkpt>
      <trkpt lat="59.4932431066" lon="18.096238205">
        <ele>31.4</ele>
        <time>2013-03-14T19:47:59Z</time>
      </trkpt>
      <trkpt lat="59.4934404165" lon="18.0960698127">
        <ele>31.4</ele>
        <time>2013-03-14T19:48:04Z</time>
      </trkpt>
      <trkpt lat="59.4935298514" lon="18.0958298389">
        <ele>31.4</ele>
        <time>2013-03-14T19:48:08Z</time>
      </trkpt>
      <trkpt lat="59.4935228944" lon="18.0955434294">
        <ele>31.4</ele>
        <time>2013-03-14T19:48:12Z</time>
      </trkpt>
      <trkpt lat="59.4934270893" lon="18.0953030365">
        <ele>31.4</ele>
        <time>2013-03-14T19:48:16Z</time>
      </trkpt>
      <trkpt lat="59.4932339703" lon="18.095143948">
        <ele>31.4</ele>
        <time>2013-03-14T19:48:21Z</time>
      </trkpt>
      <trkpt lat="59.4931595391" lon="18.0951216521">
        <ele>31.4</ele>
        <time>2013-03-14T19:48:23Z</time>
      </trkpt>
      <trkpt lat="59.4929999477" lon="18.0950980152">
        <ele>31.4</ele>
        <time>2013-03-14T19:48:27Z</time>
      </trkpt>
      <trkpt lat="59.4927162204" lon="18.0950484782">
        <ele>31.4</ele>
        <time>2013-03-14T19:48:34Z</time>
      </trkpt>
      <trkpt lat="59.492560317" lon="18.0949867036">
        <ele>31.4</ele>
        <time>2013-03-14T19:48:38Z</time>
      </trkpt>
      <trkpt lat="59.492518659" lon="18.0949582051">
        <ele>31.4</ele>
        <time>2013-03-14T19:48:39Z</time>
      </trkpt>
      <trkpt lat="59.4923077704" lon="18.0948060736">
        <ele>31.4</ele>
        <time>2013-03-14T19:48:44Z</time>
      </trkpt>
      <trkpt lat="59.4922648551" lon="18.094770702">
        <ele>31.4</ele>
        <time>2013-03-14T19:48:45Z</time>
      </trkpt>
      <trkpt lat="59.492000909" lon="18.0945285489">
        <ele>31.4</ele>
        <time>2013-03-14T19:48:51Z</time>
      </trkpt>
      <trkpt lat="59.4918787848" lon="18.0944514354">
        <ele>31.4</ele>
        <time>2013-03-14T19:48:54Z</time>
      </trkpt>
      <trkpt lat="59.4918349474" lon="18.0944343363">
        <ele>31.4</ele>
        <time>2013-03-14T19:48:55Z</time>
      </trkpt>
      <trkpt lat="59.4917854942" lon="18.0944120405">
        <ele>31.4</ele>
        <time>2013-03-14T19:48:56Z</time>
      </trkpt>
      <trkpt lat="59.4917403158" lon="18.0944019822">
        <ele>31.4</ele>
        <time>2013-03-14T19:48:57Z</time>
      </trkpt>
      <trkpt lat="59.4915584285" lon="18.0944261221">
        <ele>31.4</ele>
        <time>2013-03-14T19:49:01Z</time>
      </trkpt>
      <trkpt lat="59.4913897009" lon="18.0946099372">
        <ele>31.4</ele>
        <time>2013-03-14T19:49:05Z</time>
      </trkpt>
      <trkpt lat="59.4912959074" lon="18.0949328079">
        <ele>31.4</ele>
        <time>2013-03-14T19:49:09Z</time>
      </trkpt>
      <trkpt lat="59.4913293512" lon="18.0953437725">
        <ele>31.4</ele>
        <time>2013-03-14T19:49:13Z</time>
      </trkpt>
      <trkpt lat="59.4914476198" lon="18.0955976602">
        <ele>31.4</ele>
        <time>2013-03-14T19:49:17Z</time>
      </trkpt>
      <trkpt lat="59.4915254038" lon="18.0956728459">
        <ele>31.4</ele>
        <time>2013-03-14T19:49:19Z</time>
      </trkpt>
      <trkpt lat="59.4916473605" lon="18.0957689863">
        <ele>31.4</ele>
        <time>2013-03-14T19:49:22Z</time>
      </trkpt>
      <trkpt lat="59.4918408986" lon="18.0959092993">
        <ele>31.4</ele>
        <time>2013-03-14T19:49:27Z</time>
      </trkpt>
      <trkpt lat="59.4920170861" lon="18.0961089561">
        <ele>31.4</ele>
        <time>2013-03-14T19:49:32Z</time>
      </trkpt>
      <trkpt lat="59.4920491888" lon="18.0961638576">
        <ele>31.4</ele>
        <time>2013-03-14T19:49:33Z</time>
      </trkpt>
      <trkpt lat="59.492134768" lon="18.0963389555">
        <ele>31.4</ele>
        <time>2013-03-14T19:49:36Z</time>
      </trkpt>
      <trkpt lat="59.4921889989" lon="18.0964570565">
        <ele>31.4</ele>
        <time>2013-03-14T19:49:38Z</time>
      </trkpt>
      <trkpt lat="59.4923516915" lon="18.0968346611">
        <ele>31.4</ele>
        <time>2013-03-14T19:49:44Z</time>
      </trkpt>
      <trkpt lat="59.4924711336" lon="18.0971298716">
        <ele>31.4</ele>
        <time>2013-03-14T19:49:49Z</time>
      </trkpt>
      <trkpt lat="59.4926088482" lon="18.0974135989">
        <ele>31.4</ele>
        <time>2013-03-14T19:49:54Z</time>
      </trkpt>
      <trkpt lat="59.492776151" lon="18.0976730187">
        <ele>31.4</ele>
        <time>2013-03-14T19:49:59Z</time>
      </trkpt>
      <trkpt lat="59.4929576191" lon="18.0979211229">
        <ele>31.4</ele>
        <time>2013-03-14T19:50:04Z</time>
      </trkpt>
      <trkpt lat="59.493110002" lon="18.098184566">
        <ele>31.4</ele>
        <time>2013-03-14T19:50:09Z</time>
      </trkpt>
      <trkpt lat="59.493129951" lon="18.09825774">
        <ele>31.4</ele>
        <time>2013-03-14T19:50:10Z</time>
      </trkpt>
      <trkpt lat="59.4931566054" lon="18.0985058443">
        <ele>31.4</ele>
        <time>2013-03-14T19:50:13Z</time>
      </trkpt>
      <trkpt lat="59.4931460442" lon="18.0987731431">
        <ele>31.4</ele>
        <time>2013-03-14T19:50:16Z</time>
      </trkpt>
      <trkpt lat="59.4931195574" lon="18.0989292979">
        <ele>31.4</ele>
        <time>2013-03-14T19:50:18Z</time>
      </trkpt>
      <trkpt lat="59.4931006143" lon="18.0990085068">
        <ele>31.4</ele>
        <time>2013-03-14T19:50:19Z</time>
      </trkpt>
      <trkpt lat="59.4930158733" lon="18.0991872089">
        <ele>31.4</ele>
        <time>2013-03-14T19:50:22Z</time>
      </trkpt>
      <trkpt lat="59.4929760593" lon="18.0992239216">
        <ele>31.4</ele>
        <time>2013-03-14T19:50:23Z</time>
      </trkpt>
      <trkpt lat="59.492854857" lon="18.0992691001">
        <ele>31.4</ele>
        <time>2013-03-14T19:50:26Z</time>
      </trkpt>
      <trkpt lat="59.4927282903" lon="18.0992430324">
        <ele>31.4</ele>
        <time>2013-03-14T19:50:29Z</time>
      </trkpt>
      <trkpt lat="59.4926487461" lon="18.0992157074">
        <ele>31.4</ele>
        <time>2013-03-14T19:50:31Z</time>
      </trkpt>
      <trkpt lat="59.4925624125" lon="18.0992040565">
        <ele>31.4</ele>
        <time>2013-03-14T19:50:33Z</time>
      </trkpt>
      <trkpt lat="59.49247742" lon="18.0992087504">
        <ele>31.4</ele>
        <time>2013-03-14T19:50:35Z</time>
      </trkpt>
      <trkpt lat="59.4924282183" lon="18.0992145339">
        <ele>31.4</ele>
        <time>2013-03-14T19:50:36Z</time>
      </trkpt>
      <trkpt lat="59.4922104565" lon="18.0992712794">
        <ele>31.4</ele>
        <time>2013-03-14T19:50:41Z</time>
      </trkpt>
      <trkpt lat="59.4920787769" lon="18.0992651606">
        <ele>31.4</ele>
        <time>2013-03-14T19:50:44Z</time>
      </trkpt>
      <trkpt lat="59.4920361968" lon="18.0992716147">
        <ele>30.6</ele>
        <time>2013-03-14T19:50:45Z</time>
      </trkpt>
      <trkpt lat="59.4919961314" lon="18.0992716985">
        <ele>30.2</ele>
        <time>2013-03-14T19:50:46Z</time>
      </trkpt>
      <trkpt lat="59.4919522102" lon="18.0992726205">
        <ele>29.8</ele>
        <time>2013-03-14T19:50:47Z</time>
      </trkpt>
      <trkpt lat="59.4919074508" lon="18.0992726205">
        <ele>29.4</ele>
        <time>2013-03-14T19:50:48Z</time>
      </trkpt>
      <trkpt lat="59.4917728375" lon="18.0992675913">
        <ele>29.4</ele>
        <time>2013-03-14T19:50:51Z</time>
      </trkpt>
      <trkpt lat="59.4915331152" lon="18.0992157074">
        <ele>29.4</ele>
        <time>2013-03-14T19:50:57Z</time>
      </trkpt>
      <trkpt lat="59.4913311114" lon="18.0991659189">
        <ele>29.4</ele>
        <time>2013-03-14T19:51:02Z</time>
      </trkpt>
      <trkpt lat="59.491097424" lon="18.0990328143">
        <ele>29.4</ele>
        <time>2013-03-14T19:51:08Z</time>
      </trkpt>
      <trkpt lat="59.4910230766" lon="18.0989702015">
        <ele>29.4</ele>
        <time>2013-03-14T19:51:10Z</time>
      </trkpt>
      <trkpt lat="59.4909170455" lon="18.098870876">
        <ele>29.4</ele>
        <time>2013-03-14T19:51:13Z</time>
      </trkpt>
      <trkpt lat="59.4907886348" lon="18.0986866419">
        <ele>29.4</ele>
        <time>2013-03-14T19:51:17Z</time>
      </trkpt>
      <trkpt lat="59.4907604717" lon="18.0986200058">
        <ele>29.4</ele>
        <time>2013-03-14T19:51:18Z</time>
      </trkpt>
      <trkpt lat="59.490657039" lon="18.0983029185">
        <ele>29.4</ele>
        <time>2013-03-14T19:51:23Z</time>
      </trkpt>
      <trkpt lat="59.490596857" lon="18.097948867">
        <ele>29.4</ele>
        <time>2013-03-14T19:51:28Z</time>
      </trkpt>
      <trkpt lat="59.490545895" lon="18.0975166963">
        <ele>29.4</ele>
        <time>2013-03-14T19:51:34Z</time>
      </trkpt>
      <trkpt lat="59.4904907421" lon="18.0969266943">
        <ele>29.4</ele>
        <time>2013-03-14T19:51:41Z</time>
      </trkpt>
      <trkpt lat="59.4904757385" lon="18.0967548654">
        <ele>29.4</ele>
        <time>2013-03-14T19:51:43Z</time>
      </trkpt>
      <trkpt lat="59.4904323203" lon="18.0963672863">
        <ele>29.4</ele>
        <time>2013-03-14T19:51:48Z</time>
      </trkpt>
      <trkpt lat="59.4904076775" lon="18.0958953015">
        <ele>29.4</ele>
        <time>2013-03-14T19:51:54Z</time>
      </trkpt>
      <trkpt lat="59.4904342481" lon="18.0955865961">
        <ele>29.4</ele>
        <time>2013-03-14T19:51:58Z</time>
      </trkpt>
      <trkpt lat="59.4904518501" lon="18.0955110752">
        <ele>29.4</ele>
        <time>2013-03-14T19:51:59Z</time>
      </trkpt>
      <trkpt lat="59.490504237" lon="18.0952760467">
        <ele>29.4</ele>
        <time>2013-03-14T19:52:02Z</time>
      </trkpt>
      <trkpt lat="59.4905287121" lon="18.0951064809">
        <ele>29.4</ele>
        <time>2013-03-14T19:52:04Z</time>
      </trkpt>
      <trkpt lat="59.4905329031" lon="18.0950211532">
        <ele>29.4</ele>
        <time>2013-03-14T19:52:05Z</time>
      </trkpt>
      <trkpt lat="59.4904951845" lon="18.0947209135">
        <ele>29.4</ele>
        <time>2013-03-14T19:52:09Z</time>
      </trkpt>
      <trkpt lat="59.4904355054" lon="18.0945371823">
        <ele>29.4</ele>
        <time>2013-03-14T19:52:12Z</time>
      </trkpt>
      <trkpt lat="59.4903775865" lon="18.0944132978">
        <ele>29.4</ele>
        <time>2013-03-14T19:52:14Z</time>
      </trkpt>
      <trkpt lat="59.49019813" lon="18.0941869865">
        <ele>29.4</ele>
        <time>2013-03-14T19:52:19Z</time>
      </trkpt>
      <trkpt lat="59.4901577292" lon="18.0941573984">
        <ele>29.4</ele>
        <time>2013-03-14T19:52:20Z</time>
      </trkpt>
      <trkpt lat="59.4900373651" lon="18.0941352702">
        <ele>29.4</ele>
        <time>2013-03-14T19:52:23Z</time>
      </trkpt>
      <trkpt lat="59.4898474313" lon="18.0941967933">
        <ele>29.4</ele>
        <time>2013-03-14T19:52:28Z</time>
      </trkpt>
      <trkpt lat="59.4897382151" lon="18.0942915926">
        <ele>29.4</ele>
        <time>2013-03-14T19:52:31Z</time>
      </trkpt>
      <trkpt lat="59.4896439188" lon="18.0944492561">
        <ele>29.4</ele>
        <time>2013-03-14T19:52:34Z</time>
      </trkpt>
      <trkpt lat="59.489443759" lon="18.0948223345">
        <ele>29.4</ele>
        <time>2013-03-14T19:52:40Z</time>
      </trkpt>
      <trkpt lat="59.4893616164" lon="18.0949189778">
        <ele>29.4</ele>
        <time>2013-03-14T19:52:42Z</time>
      </trkpt>
      <trkpt lat="59.4892282603" lon="18.0950625598">
        <ele>29.4</ele>
        <time>2013-03-14T19:52:45Z</time>
      </trkpt>
      <trkpt lat="59.4890317886" lon="18.095255092">
        <ele>29.4</ele>
        <time>2013-03-14T19:52:50Z</time>
      </trkpt>
      <trkpt lat="59.4888478897" lon="18.095428262">
        <ele>29.4</ele>
        <time>2013-03-14T19:52:55Z</time>
      </trkpt>
      <trkpt lat="59.4886571177" lon="18.0954915454">
        <ele>29.4</ele>
        <time>2013-03-14T19:53:00Z</time>
      </trkpt>
      <trkpt lat="59.4885023878" lon="18.0954183714">
        <ele>29.4</ele>
        <time>2013-03-14T19:53:04Z</time>
      </trkpt>
      <trkpt lat="59.4884632443" lon="18.0953923875">
        <ele>29.4</ele>
        <time>2013-03-14T19:53:05Z</time>
      </trkpt>
      <trkpt lat="59.4883831972" lon="18.0953368155">
        <ele>29.4</ele>
        <time>2013-03-14T19:53:07Z</time>
      </trkpt>
      <trkpt lat="59.4881983763" lon="18.0951997715">
        <ele>29.4</ele>
        <time>2013-03-14T19:53:12Z</time>
      </trkpt>
      <trkpt lat="59.4880121305" lon="18.0950658287">
        <ele>29.4</ele>
        <time>2013-03-14T19:53:17Z</time>
      </trkpt>
      <trkpt lat="59.4877829693" lon="18.0948876295">
        <ele>29.4</ele>
        <time>2013-03-14T19:53:23Z</time>
      </trkpt>
      <trkpt lat="59.4875576638" lon="18.0947344084">
        <ele>29.4</ele>
        <time>2013-03-14T19:53:29Z</time>
      </trkpt>
      <trkpt lat="59.4873274969" lon="18.0945878089">
        <ele>29.4</ele>
        <time>2013-03-14T19:53:35Z</time>
      </trkpt>
      <trkpt lat="59.4871002636" lon="18.0944999666">
        <ele>29.4</ele>
        <time>2013-03-14T19:53:41Z</time>
      </trkpt>
      <trkpt lat="59.486991718" lon="18.0943987133">
        <ele>29.4</ele>
        <time>2013-03-14T19:53:44Z</time>
      </trkpt>
      <trkpt lat="59.4869249142" lon="18.0943209292">
        <ele>29.4</ele>
        <time>2013-03-14T19:53:46Z</time>
      </trkpt>
      <trkpt lat="59.4867492296" lon="18.0941305763">
        <ele>29.4</ele>
        <time>2013-03-14T19:53:51Z</time>
      </trkpt>
      <trkpt lat="59.4865632352" lon="18.0939278181">
        <ele>29.4</ele>
        <time>2013-03-14T19:53:56Z</time>
      </trkpt>
      <trkpt lat="59.4863860419" lon="18.0937522173">
        <ele>29.4</ele>
        <time>2013-03-14T19:54:01Z</time>
      </trkpt>
      <trkpt lat="59.4862089323" lon="18.0935331145">
        <ele>29.4</ele>
        <time>2013-03-14T19:54:06Z</time>
      </trkpt>
      <trkpt lat="59.4860466587" lon="18.0932679111">
        <ele>29.4</ele>
        <time>2013-03-14T19:54:11Z</time>
      </trkpt>
      <trkpt lat="59.4858905878" lon="18.0930533345">
        <ele>29.4</ele>
        <time>2013-03-14T19:54:16Z</time>
      </trkpt>
      <trkpt lat="59.4857268054" lon="18.0928532586">
        <ele>29.4</ele>
        <time>2013-03-14T19:54:21Z</time>
      </trkpt>
      <trkpt lat="59.4856064413" lon="18.0927720379">
        <ele>29.4</ele>
        <time>2013-03-14T19:54:24Z</time>
      </trkpt>
      <trkpt lat="59.4855186828" lon="18.0927322239">
        <ele>29.4</ele>
        <time>2013-03-14T19:54:26Z</time>
      </trkpt>
      <trkpt lat="59.4853610193" lon="18.0926605587">
        <ele>29.4</ele>
        <time>2013-03-14T19:54:30Z</time>
      </trkpt>
      <trkpt lat="59.4852969816" lon="18.0925904022">
        <ele>29.4</ele>
        <time>2013-03-14T19:54:32Z</time>
      </trkpt>
      <trkpt lat="59.4851863405" lon="18.09233115">
        <ele>29.4</ele>
        <time>2013-03-14T19:54:36Z</time>
      </trkpt>
      <trkpt lat="59.4851284216" lon="18.0919698063">
        <ele>29.4</ele>
        <time>2013-03-14T19:54:40Z</time>
      </trkpt>
      <trkpt lat="59.4851181118" lon="18.0918703131">
        <ele>29.4</ele>
        <time>2013-03-14T19:54:41Z</time>
      </trkpt>
      <trkpt lat="59.4850617855" lon="18.0912866814">
        <ele>29.4</ele>
        <time>2013-03-14T19:54:47Z</time>
      </trkpt>
      <trkpt lat="59.4850594385" lon="18.0911828297">
        <ele>29.4</ele>
        <time>2013-03-14T19:54:48Z</time>
      </trkpt>
      <trkpt lat="59.4850625399" lon="18.0910839233">
        <ele>29.4</ele>
        <time>2013-03-14T19:54:49Z</time>
      </trkpt>
      <trkpt lat="59.4850987497" lon="18.0907758046">
        <ele>29.4</ele>
        <time>2013-03-14T19:54:52Z</time>
      </trkpt>
      <trkpt lat="59.4851433414" lon="18.0905988627">
        <ele>29.4</ele>
        <time>2013-03-14T19:54:54Z</time>
      </trkpt>
      <trkpt lat="59.4851732648" lon="18.0905108528">
        <ele>29.4</ele>
        <time>2013-03-14T19:54:55Z</time>
      </trkpt>
      <trkpt lat="59.4852065409" lon="18.0904342422">
        <ele>29.4</ele>
        <time>2013-03-14T19:54:56Z</time>
      </trkpt>
      <trkpt lat="59.485276865" lon="18.0902888162">
        <ele>29.4</ele>
        <time>2013-03-14T19:54:58Z</time>
      </trkpt>
      <trkpt lat="59.4853662999" lon="18.0902124571">
        <ele>29.4</ele>
        <time>2013-03-14T19:55:00Z</time>
      </trkpt>
      <trkpt lat="59.4855215327" lon="18.0902386925">
        <ele>29.4</ele>
        <time>2013-03-14T19:55:03Z</time>
      </trkpt>
      <trkpt lat="59.4856806212" lon="18.0904279558">
        <ele>29.4</ele>
        <time>2013-03-14T19:55:07Z</time>
      </trkpt>
      <trkpt lat="59.4858392905" lon="18.0906971824">
        <ele>29.4</ele>
        <time>2013-03-14T19:55:12Z</time>
      </trkpt>
      <trkpt lat="59.4859858061" lon="18.0909516569">
        <ele>29.4</ele>
        <time>2013-03-14T19:55:17Z</time>
      </trkpt>
      <trkpt lat="59.4861453137" lon="18.0911700892">
        <ele>29.4</ele>
        <time>2013-03-14T19:55:22Z</time>
      </trkpt>
      <trkpt lat="59.4863379298" lon="18.0912192071">
        <ele>29.4</ele>
        <time>2013-03-14T19:55:27Z</time>
      </trkpt>
      <trkpt lat="59.4864779913" lon="18.0910695064">
        <ele>29.4</ele>
        <time>2013-03-14T19:55:31Z</time>
      </trkpt>
      <trkpt lat="59.4865825974" lon="18.0907866173">
        <ele>29.4</ele>
        <time>2013-03-14T19:55:35Z</time>
      </trkpt>
      <trkpt lat="59.486597601" lon="18.0907143653">
        <ele>29.4</ele>
        <time>2013-03-14T19:55:36Z</time>
      </trkpt>
      <trkpt lat="59.4866335594" lon="18.0905295444">
        <ele>29</ele>
        <time>2013-03-14T19:55:38Z</time>
      </trkpt>
      <trkpt lat="59.4866410193" lon="18.0904481562">
        <ele>28.6</ele>
        <time>2013-03-14T19:55:39Z</time>
      </trkpt>
      <trkpt lat="59.4866502394" lon="18.090354698">
        <ele>28.2</ele>
        <time>2013-03-14T19:55:40Z</time>
      </trkpt>
      <trkpt lat="59.4866591242" lon="18.0902606531">
        <ele>27.4</ele>
        <time>2013-03-14T19:55:41Z</time>
      </trkpt>
      <trkpt lat="59.4866602138" lon="18.0901730622">
        <ele>27.4</ele>
        <time>2013-03-14T19:55:42Z</time>
      </trkpt>
      <trkpt lat="59.4866613035" lon="18.0899989701">
        <ele>27.4</ele>
        <time>2013-03-14T19:55:44Z</time>
      </trkpt>
      <trkpt lat="59.4866530054" lon="18.0898375348">
        <ele>27.4</ele>
        <time>2013-03-14T19:55:46Z</time>
      </trkpt>
      <trkpt lat="59.486616125" lon="18.0895890114">
        <ele>27.4</ele>
        <time>2013-03-14T19:55:49Z</time>
      </trkpt>
      <trkpt lat="59.486469777" lon="18.0893096427">
        <ele>27.4</ele>
        <time>2013-03-14T19:55:54Z</time>
      </trkpt>
      <trkpt lat="59.4864365847" lon="18.0892638775">
        <ele>27.4</ele>
        <time>2013-03-14T19:55:55Z</time>
      </trkpt>
      <trkpt lat="59.4863390194" lon="18.0891270011">
        <ele>27.4</ele>
        <time>2013-03-14T19:55:58Z</time>
      </trkpt>
      <trkpt lat="59.4862835312" lon="18.0890110794">
        <ele>27.4</ele>
        <time>2013-03-14T19:56:00Z</time>
      </trkpt>
      <trkpt lat="59.4862392748" lon="18.0888801541">
        <ele>27.4</ele>
        <time>2013-03-14T19:56:02Z</time>
      </trkpt>
      <trkpt lat="59.4861823617" lon="18.0886071556">
        <ele>27.4</ele>
        <time>2013-03-14T19:56:06Z</time>
      </trkpt>
      <trkpt lat="59.4861728063" lon="18.0881597298">
        <ele>27.4</ele>
        <time>2013-03-14T19:56:12Z</time>
      </trkpt>
      <trkpt lat="59.4861936773" lon="18.087669221">
        <ele>27.4</ele>
        <time>2013-03-14T19:56:18Z</time>
      </trkpt>
      <trkpt lat="59.4861959404" lon="18.0874986494">
        <ele>27.4</ele>
        <time>2013-03-14T19:56:20Z</time>
      </trkpt>
      <trkpt lat="59.4861765782" lon="18.087142251">
        <ele>27.4</ele>
        <time>2013-03-14T19:56:24Z</time>
      </trkpt>
      <trkpt lat="59.4861422124" lon="18.0867229883">
        <ele>27.4</ele>
        <time>2013-03-14T19:56:29Z</time>
      </trkpt>
      <trkpt lat="59.4861452299" lon="18.0866343078">
        <ele>27.4</ele>
        <time>2013-03-14T19:56:30Z</time>
      </trkpt>
      <trkpt lat="59.4861849601" lon="18.0864121037">
        <ele>27.4</ele>
        <time>2013-03-14T19:56:33Z</time>
      </trkpt>
      <trkpt lat="59.4863275362" lon="18.0861818529">
        <ele>27.4</ele>
        <time>2013-03-14T19:56:37Z</time>
      </trkpt>
      <trkpt lat="59.4864121934" lon="18.0860971957">
        <ele>27.4</ele>
        <time>2013-03-14T19:56:39Z</time>
      </trkpt>
      <trkpt lat="59.4864848645" lon="18.0859944336">
        <ele>27.4</ele>
        <time>2013-03-14T19:56:41Z</time>
      </trkpt>
      <trkpt lat="59.4865089205" lon="18.0859367661">
        <ele>27.4</ele>
        <time>2013-03-14T19:56:42Z</time>
      </trkpt>
      <trkpt lat="59.4865310487" lon="18.0858213474">
        <ele>27.4</ele>
        <time>2013-03-14T19:56:44Z</time>
      </trkpt>
      <trkpt lat="59.486541107" lon="18.0856732392">
        <ele>27.4</ele>
        <time>2013-03-14T19:56:46Z</time>
      </trkpt>
      <trkpt lat="59.4865472258" lon="18.0855928568">
        <ele>27.4</ele>
        <time>2013-03-14T19:56:47Z</time>
      </trkpt>
      <trkpt lat="59.4865653307" lon="18.0854416473">
        <ele>27.4</ele>
        <time>2013-03-14T19:56:49Z</time>
      </trkpt>
      <trkpt lat="59.4866075755" lon="18.0852239694">
        <ele>27.4</ele>
        <time>2013-03-14T19:56:52Z</time>
      </trkpt>
      <trkpt lat="59.4867467988" lon="18.084857848">
        <ele>27.4</ele>
        <time>2013-03-14T19:56:58Z</time>
      </trkpt>
      <trkpt lat="59.486880071" lon="18.0846786429">
        <ele>27.4</ele>
        <time>2013-03-14T19:57:03Z</time>
      </trkpt>
      <trkpt lat="59.4869095753" lon="18.0846969155">
        <ele>27.4</ele>
        <time>2013-03-14T19:57:04Z</time>
      </trkpt>
      <trkpt lat="59.4869481321" lon="18.0847872724">
        <ele>27.4</ele>
        <time>2013-03-14T19:57:06Z</time>
      </trkpt>
      <trkpt lat="59.4869419295" lon="18.0850109853">
        <ele>27.4</ele>
        <time>2013-03-14T19:57:10Z</time>
      </trkpt>
      <trkpt lat="59.486868504" lon="18.0852033499">
        <ele>27.4</ele>
        <time>2013-03-14T19:57:13Z</time>
      </trkpt>
      <trkpt lat="59.4868471302" lon="18.0852683934">
        <ele>27.4</ele>
        <time>2013-03-14T19:57:14Z</time>
      </trkpt>
      <trkpt lat="59.4868136026" lon="18.085425135">
        <ele>27.4</ele>
        <time>2013-03-14T19:57:16Z</time>
      </trkpt>
      <trkpt lat="59.4867939051" lon="18.0856445731">
        <ele>27.4</ele>
        <time>2013-03-14T19:57:19Z</time>
      </trkpt>
      <trkpt lat="59.4868366528" lon="18.0860321522">
        <ele>27.4</ele>
        <time>2013-03-14T19:57:24Z</time>
      </trkpt>
      <trkpt lat="59.486894907" lon="18.0863737984">
        <ele>27.4</ele>
        <time>2013-03-14T19:57:29Z</time>
      </trkpt>
      <trkpt lat="59.4869862697" lon="18.0868119203">
        <ele>27.4</ele>
        <time>2013-03-14T19:57:35Z</time>
      </trkpt>
      <trkpt lat="59.4870169475" lon="18.0869513951">
        <ele>27.4</ele>
        <time>2013-03-14T19:57:37Z</time>
      </trkpt>
      <trkpt lat="59.4870900376" lon="18.0872171852">
        <ele>27.4</ele>
        <time>2013-03-14T19:57:41Z</time>
      </trkpt>
      <trkpt lat="59.487240828" lon="18.0876804528">
        <ele>27.4</ele>
        <time>2013-03-14T19:57:48Z</time>
      </trkpt>
      <trkpt lat="59.4873369684" lon="18.0882495838">
        <ele>27.4</ele>
        <time>2013-03-14T19:57:55Z</time>
      </trkpt>
      <trkpt lat="59.4873845776" lon="18.0886848559">
        <ele>27.4</ele>
        <time>2013-03-14T19:58:01Z</time>
      </trkpt>
      <trkpt lat="59.48740109" lon="18.0890695013">
        <ele>27.4</ele>
        <time>2013-03-14T19:58:06Z</time>
      </trkpt>
      <trkpt lat="59.4874804665" lon="18.0894482793">
        <ele>27.4</ele>
        <time>2013-03-14T19:58:12Z</time>
      </trkpt>
      <trkpt lat="59.4876320113" lon="18.089824459">
        <ele>27.4</ele>
        <time>2013-03-14T19:58:18Z</time>
      </trkpt>
      <trkpt lat="59.487773833" lon="18.0900614153">
        <ele>27.4</ele>
        <time>2013-03-14T19:58:23Z</time>
      </trkpt>
      <trkpt lat="59.4879628449" lon="18.0903181529">
        <ele>27.4</ele>
        <time>2013-03-14T19:58:29Z</time>
      </trkpt>
      <trkpt lat="59.488125789" lon="18.0904807618">
        <ele>27.4</ele>
        <time>2013-03-14T19:58:34Z</time>
      </trkpt>
      <trkpt lat="59.4883995419" lon="18.0907022116">
        <ele>27.8</ele>
        <time>2013-03-14T19:58:42Z</time>
      </trkpt>
      <trkpt lat="59.4884336562" lon="18.0907262676">
        <ele>28.2</ele>
        <time>2013-03-14T19:58:43Z</time>
      </trkpt>
      <trkpt lat="59.4884579637" lon="18.0907458813">
        <ele>28.6</ele>
        <time>2013-03-14T19:58:44Z</time>
      </trkpt>
      <trkpt lat="59.4884929162" lon="18.090773793">
        <ele>29</ele>
        <time>2013-03-14T19:58:45Z</time>
      </trkpt>
      <trkpt lat="59.4885239293" lon="18.0907915626">
        <ele>29.4</ele>
        <time>2013-03-14T19:58:46Z</time>
      </trkpt>
      <trkpt lat="59.4885618155" lon="18.0908100028">
        <ele>29.4</ele>
        <time>2013-03-14T19:58:47Z</time>
      </trkpt>
      <trkpt lat="59.4887858637" lon="18.0909188837">
        <ele>29.4</ele>
        <time>2013-03-14T19:58:53Z</time>
      </trkpt>
      <trkpt lat="59.4888239175" lon="18.0909340549">
        <ele>29.4</ele>
        <time>2013-03-14T19:58:54Z</time>
      </trkpt>
      <trkpt lat="59.4890040445" lon="18.0910671595">
        <ele>29.4</ele>
        <time>2013-03-14T19:58:59Z</time>
      </trkpt>
      <trkpt lat="59.4890407572" lon="18.0911100748">
        <ele>29.4</ele>
        <time>2013-03-14T19:59:00Z</time>
      </trkpt>
      <trkpt lat="59.4891893683" lon="18.0912993381">
        <ele>29.4</ele>
        <time>2013-03-14T19:59:05Z</time>
      </trkpt>
      <trkpt lat="59.4893895281" lon="18.0915266552">
        <ele>29.4</ele>
        <time>2013-03-14T19:59:11Z</time>
      </trkpt>
      <trkpt lat="59.4895175197" lon="18.0917915233">
        <ele>29.4</ele>
        <time>2013-03-14T19:59:16Z</time>
      </trkpt>
      <trkpt lat="59.4896537256" lon="18.0922109536">
        <ele>29.4</ele>
        <time>2013-03-14T19:59:22Z</time>
      </trkpt>
      <trkpt lat="59.4897885065" lon="18.0926667613">
        <ele>29.4</ele>
        <time>2013-03-14T19:59:28Z</time>
      </trkpt>
      <trkpt lat="59.4899675439" lon="18.0930489759">
        <ele>29.4</ele>
        <time>2013-03-14T19:59:34Z</time>
      </trkpt>
      <trkpt lat="59.4900718147" lon="18.0931641432">
        <ele>29.4</ele>
        <time>2013-03-14T19:59:37Z</time>
      </trkpt>
      <trkpt lat="59.4901392052" lon="18.0932234033">
        <ele>29.4</ele>
        <time>2013-03-14T19:59:39Z</time>
      </trkpt>
      <trkpt lat="59.4902101161" lon="18.0933151851">
        <ele>29.4</ele>
        <time>2013-03-14T19:59:41Z</time>
      </trkpt>
      <trkpt lat="59.4902822004" lon="18.0934995869">
        <ele>29.4</ele>
        <time>2013-03-14T19:59:44Z</time>
      </trkpt>
      <trkpt lat="59.4903070109" lon="18.0935719227">
        <ele>29.4</ele>
        <time>2013-03-14T19:59:45Z</time>
      </trkpt>
      <trkpt lat="59.490380101" lon="18.0937664666">
        <ele>29.4</ele>
        <time>2013-03-14T19:59:48Z</time>
      </trkpt>
      <trkpt lat="59.4904372656" lon="18.093858416">
        <ele>29.4</ele>
        <time>2013-03-14T19:59:50Z</time>
      </trkpt>
      <trkpt lat="59.4905992039" lon="18.0939351104">
        <ele>29.4</ele>
        <time>2013-03-14T19:59:54Z</time>
      </trkpt>
      <trkpt lat="59.4907510001" lon="18.0938160874">
        <ele>29.4</ele>
        <time>2013-03-14T19:59:58Z</time>
      </trkpt>
      <trkpt lat="59.4909759703" lon="18.0937054463">
        <ele>29.4</ele>
        <time>2013-03-14T20:00:04Z</time>
      </trkpt>
      <trkpt lat="59.4912828317" lon="18.0936169335">
        <ele>29.4</ele>
        <time>2013-03-14T20:00:12Z</time>
      </trkpt>
      <trkpt lat="59.4914112424" lon="18.0935361319">
        <ele>29.4</ele>
        <time>2013-03-14T20:00:16Z</time>
      </trkpt>
      <trkpt lat="59.4915509686" lon="18.0934135886">
        <ele>29.4</ele>
        <time>2013-03-14T20:00:21Z</time>
      </trkpt>
      <trkpt lat="59.4917871706" lon="18.0932895364">
        <ele>29.4</ele>
        <time>2013-03-14T20:00:28Z</time>
      </trkpt>
      <trkpt lat="59.4919585804" lon="18.0933539933">
        <ele>29.4</ele>
        <time>2013-03-14T20:00:33Z</time>
      </trkpt>
      <trkpt lat="59.4920554752" lon="18.0936181907">
        <ele>29.4</ele>
        <time>2013-03-14T20:00:37Z</time>
      </trkpt>
      <trkpt lat="59.4921939442" lon="18.0939136527">
        <ele>29.4</ele>
        <time>2013-03-14T20:00:42Z</time>
      </trkpt>
      <trkpt lat="59.4924082694" lon="18.0941493517">
        <ele>29.4</ele>
        <time>2013-03-14T20:00:48Z</time>
      </trkpt>
      <trkpt lat="59.4926139612" lon="18.0943407105">
        <ele>29.4</ele>
        <time>2013-03-14T20:00:54Z</time>
      </trkpt>
      <trkpt lat="59.4928170546" lon="18.0945474082">
        <ele>29.4</ele>
        <time>2013-03-14T20:01:00Z</time>
      </trkpt>
      <trkpt lat="59.4930597106" lon="18.0947570395">
        <ele>29.4</ele>
        <time>2013-03-14T20:01:07Z</time>
      </trkpt>
      <trkpt lat="59.4932385804" lon="18.0947727975">
        <ele>29.4</ele>
        <time>2013-03-14T20:01:12Z</time>
      </trkpt>
      <trkpt lat="59.4933349722" lon="18.0947205782">
        <ele>29.8</ele>
        <time>2013-03-14T20:01:15Z</time>
      </trkpt>
      <trkpt lat="59.4933776361" lon="18.0947059937">
        <ele>30.2</ele>
        <time>2013-03-14T20:01:16Z</time>
      </trkpt>
      <trkpt lat="59.4934200485" lon="18.094706329">
        <ele>30.6</ele>
        <time>2013-03-14T20:01:17Z</time>
      </trkpt>
      <trkpt lat="59.4934637182" lon="18.0947107714">
        <ele>31</ele>
        <time>2013-03-14T20:01:18Z</time>
      </trkpt>
      <trkpt lat="59.4935002633" lon="18.0947130345">
        <ele>31.6</ele>
        <time>2013-03-14T20:01:19Z</time>
      </trkpt>
      <trkpt lat="59.4936147601" lon="18.0947233443">
        <ele>31.6</ele>
        <time>2013-03-14T20:01:22Z</time>
      </trkpt>
      <trkpt lat="59.493782901" lon="18.0947309718">
        <ele>31.6</ele>
        <time>2013-03-14T20:01:27Z</time>
      </trkpt>
      <trkpt lat="59.4939240522" lon="18.0947551955">
        <ele>31.6</ele>
        <time>2013-03-14T20:01:31Z</time>
      </trkpt>
      <trkpt lat="59.4941076996" lon="18.0947226737">
        <ele>31.6</ele>
        <time>2013-03-14T20:01:36Z</time>
      </trkpt>
      <trkpt lat="59.4941903451" lon="18.0946463146">
        <ele>31.6</ele>
        <time>2013-03-14T20:01:38Z</time>
      </trkpt>
      <trkpt lat="59.494289503" lon="18.0945241903">
        <ele>31.6</ele>
        <time>2013-03-14T20:01:41Z</time>
      </trkpt>
      <trkpt lat="59.4944243678" lon="18.0942553828">
        <ele>31.6</ele>
        <time>2013-03-14T20:01:46Z</time>
      </trkpt>
      <trkpt lat="59.4944823705" lon="18.0939729128">
        <ele>31.6</ele>
        <time>2013-03-14T20:01:50Z</time>
      </trkpt>
      <trkpt lat="59.4945087735" lon="18.0935545721">
        <ele>31.6</ele>
        <time>2013-03-14T20:01:55Z</time>
      </trkpt>
      <trkpt lat="59.4945076839" lon="18.0934808114">
        <ele>31.6</ele>
        <time>2013-03-14T20:01:56Z</time>
      </trkpt>
      <trkpt lat="59.4944428918" lon="18.0931013628">
        <ele>31.6</ele>
        <time>2013-03-14T20:02:01Z</time>
      </trkpt>
      <trkpt lat="59.4944166564" lon="18.0930286917">
        <ele>31.6</ele>
        <time>2013-03-14T20:02:02Z</time>
      </trkpt>
      <trkpt lat="59.4943119665" lon="18.0927945014">
        <ele>31.6</ele>
        <time>2013-03-14T20:02:06Z</time>
      </trkpt>
      <trkpt lat="59.494146424" lon="18.0925939226">
        <ele>31.6</ele>
        <time>2013-03-14T20:02:11Z</time>
      </trkpt>
      <trkpt lat="59.493969063" lon="18.0924128735">
        <ele>31.6</ele>
        <time>2013-03-14T20:02:16Z</time>
      </trkpt>
      <trkpt lat="59.4939367088" lon="18.0923764123">
        <ele>31.6</ele>
        <time>2013-03-14T20:02:17Z</time>
      </trkpt>
      <trkpt lat="59.4937647123" lon="18.0921881548">
        <ele>31.6</ele>
        <time>2013-03-14T20:02:22Z</time>
      </trkpt>
      <trkpt lat="59.49357218" lon="18.0920159906">
        <ele>31.6</ele>
        <time>2013-03-14T20:02:28Z</time>
      </trkpt>
      <trkpt lat="59.4933827491" lon="18.0918702293">
        <ele>31.6</ele>
        <time>2013-03-14T20:02:34Z</time>
      </trkpt>
      <trkpt lat="59.4932549251" lon="18.0917371247">
        <ele>31.6</ele>
        <time>2013-03-14T20:02:38Z</time>
      </trkpt>
      <trkpt lat="59.4931120975" lon="18.091574013">
        <ele>31.6</ele>
        <time>2013-03-14T20:02:43Z</time>
      </trkpt>
      <trkpt lat="59.4930407675" lon="18.0914958098">
        <ele>32</ele>
        <time>2013-03-14T20:02:46Z</time>
      </trkpt>
      <trkpt lat="59.4930140293" lon="18.0914411599">
        <ele>32.4</ele>
        <time>2013-03-14T20:02:47Z</time>
      </trkpt>
      <trkpt lat="59.492998439" lon="18.0913920419">
        <ele>32.8</ele>
        <time>2013-03-14T20:02:48Z</time>
      </trkpt>
      <trkpt lat="59.492972958" lon="18.0913389007">
        <ele>33.2</ele>
        <time>2013-03-14T20:02:49Z</time>
      </trkpt>
      <trkpt lat="59.492956278" lon="18.0912976617">
        <ele>33.6</ele>
        <time>2013-03-14T20:02:50Z</time>
      </trkpt>
      <trkpt lat="59.4929065733" lon="18.0911439377">
        <ele>33.6</ele>
        <time>2013-03-14T20:02:53Z</time>
      </trkpt>
      <trkpt lat="59.492858545" lon="18.0907229148">
        <ele>33.6</ele>
        <time>2013-03-14T20:02:59Z</time>
      </trkpt>
      <trkpt lat="59.4929028015" lon="18.0902779198">
        <ele>33.6</ele>
        <time>2013-03-14T20:03:04Z</time>
      </trkpt>
      <trkpt lat="59.4930231656" lon="18.089986984">
        <ele>33.6</ele>
        <time>2013-03-14T20:03:08Z</time>
      </trkpt>
      <trkpt lat="59.4931929829" lon="18.0898698889">
        <ele>33.6</ele>
        <time>2013-03-14T20:03:12Z</time>
      </trkpt>
      <trkpt lat="59.4932917216" lon="18.0898719844">
        <ele>33.6</ele>
        <time>2013-03-14T20:03:14Z</time>
      </trkpt>
      <trkpt lat="59.4934371476" lon="18.089867961">
        <ele>33.6</ele>
        <time>2013-03-14T20:03:17Z</time>
      </trkpt>
      <trkpt lat="59.4936551608" lon="18.0898489341">
        <ele>33.2</ele>
        <time>2013-03-14T20:03:22Z</time>
      </trkpt>
      <trkpt lat="59.493703692" lon="18.0898437374">
        <ele>32.8</ele>
        <time>2013-03-14T20:03:23Z</time>
      </trkpt>
      <trkpt lat="59.4937468588" lon="18.0898392111">
        <ele>32.4</ele>
        <time>2013-03-14T20:03:24Z</time>
      </trkpt>
      <trkpt lat="59.4937850803" lon="18.0898333438">
        <ele>32</ele>
        <time>2013-03-14T20:03:25Z</time>
      </trkpt>
      <trkpt lat="59.4938257325" lon="18.0898311645">
        <ele>31.6</ele>
        <time>2013-03-14T20:03:26Z</time>
      </trkpt>
      <trkpt lat="59.4939499522" lon="18.0898196813">
        <ele>31.6</ele>
        <time>2013-03-14T20:03:29Z</time>
      </trkpt>
      <trkpt lat="59.494171402" lon="18.0897993133">
        <ele>31.6</ele>
        <time>2013-03-14T20:03:34Z</time>
      </trkpt>
      <trkpt lat="59.4943838832" lon="18.089789255">
        <ele>31.6</ele>
        <time>2013-03-14T20:03:39Z</time>
      </trkpt>
      <trkpt lat="59.4944900819" lon="18.0897985589">
        <ele>31.6</ele>
        <time>2013-03-14T20:03:42Z</time>
      </trkpt>
      <trkpt lat="59.4945298959" lon="18.0898061026">
        <ele>31.6</ele>
        <time>2013-03-14T20:03:43Z</time>
      </trkpt>
      <trkpt lat="59.4947245236" lon="18.0899019916">
        <ele>31.6</ele>
        <time>2013-03-14T20:03:48Z</time>
      </trkpt>
      <trkpt lat="59.4948706201" lon="18.0900973736">
        <ele>31.6</ele>
        <time>2013-03-14T20:03:52Z</time>
      </trkpt>
      <trkpt lat="59.4949020523" lon="18.0901573042">
        <ele>31.6</ele>
        <time>2013-03-14T20:03:53Z</time>
      </trkpt>
      <trkpt lat="59.4950095082" lon="18.0905182288">
        <ele>31.6</ele>
        <time>2013-03-14T20:03:58Z</time>
      </trkpt>
      <trkpt lat="59.4950413594" lon="18.0908499845">
        <ele>31.6</ele>
        <time>2013-03-14T20:04:02Z</time>
      </trkpt>
      <trkpt lat="59.4950493222" lon="18.0913440975">
        <ele>31.6</ele>
        <time>2013-03-14T20:04:08Z</time>
      </trkpt>
      <trkpt lat="59.4950529265" lon="18.0918289066">
        <ele>31.6</ele>
        <time>2013-03-14T20:04:14Z</time>
      </trkpt>
      <trkpt lat="59.4950701094" lon="18.0920658629">
        <ele>31.6</ele>
        <time>2013-03-14T20:04:17Z</time>
      </trkpt>
      <trkpt lat="59.4951019606" lon="18.092215396">
        <ele>31.6</ele>
        <time>2013-03-14T20:04:19Z</time>
      </trkpt>
      <trkpt lat="59.4952158706" lon="18.0924992071">
        <ele>31.6</ele>
        <time>2013-03-14T20:04:24Z</time>
      </trkpt>
      <trkpt lat="59.495358782" lon="18.0928426135">
        <ele>31.6</ele>
        <time>2013-03-14T20:04:30Z</time>
      </trkpt>
      <trkpt lat="59.4954026193" lon="18.0931861038">
        <ele>31.6</ele>
        <time>2013-03-14T20:04:35Z</time>
      </trkpt>
      <trkpt lat="59.4953764678" lon="18.093356424">
        <ele>31.6</ele>
        <time>2013-03-14T20:04:37Z</time>
      </trkpt>
      <trkpt lat="59.4953313732" lon="18.0934922946">
        <ele>31.6</ele>
        <time>2013-03-14T20:04:39Z</time>
      </trkpt>
      <trkpt lat="59.4952373283" lon="18.0936754391">
        <ele>31.6</ele>
        <time>2013-03-14T20:04:42Z</time>
      </trkpt>
      <trkpt lat="59.4951730391" lon="18.0937719148">
        <ele>31.6</ele>
        <time>2013-03-14T20:04:44Z</time>
      </trkpt>
      <trkpt lat="59.495049909" lon="18.0939745053">
        <ele>31.6</ele>
        <time>2013-03-14T20:04:48Z</time>
      </trkpt>
      <trkpt lat="59.4949848654" lon="18.0940642755">
        <ele>31.6</ele>
        <time>2013-03-14T20:04:50Z</time>
      </trkpt>
      <trkpt lat="59.4947995416" lon="18.0943319095">
        <ele>31.6</ele>
        <time>2013-03-14T20:04:56Z</time>
      </trkpt>
      <trkpt lat="59.4946048301" lon="18.0945827798">
        <ele>31.6</ele>
        <time>2013-03-14T20:05:03Z</time>
      </trkpt>
      <trkpt lat="59.494434929" lon="18.0947370906">
        <ele>31.6</ele>
        <time>2013-03-14T20:05:08Z</time>
      </trkpt>
      <trkpt lat="59.4942776007" lon="18.0949510805">
        <ele>31.6</ele>
        <time>2013-03-14T20:05:13Z</time>
      </trkpt>
      <trkpt lat="59.4941346055" lon="18.095065242">
        <ele>31.6</ele>
        <time>2013-03-14T20:05:17Z</time>
      </trkpt>
      <trkpt lat="59.494061683" lon="18.0951432774">
        <ele>31.6</ele>
        <time>2013-03-14T20:05:19Z</time>
      </trkpt>
      <trkpt lat="59.4940284906" lon="18.0951892103">
        <ele>31.6</ele>
        <time>2013-03-14T20:05:20Z</time>
      </trkpt>
      <trkpt lat="59.4939371279" lon="18.0954437686">
        <ele>31.6</ele>
        <time>2013-03-14T20:05:24Z</time>
      </trkpt>
      <trkpt lat="59.4939220405" lon="18.0957568325">
        <ele>31.6</ele>
        <time>2013-03-14T20:05:28Z</time>
      </trkpt>
      <trkpt lat="59.4939263153" lon="18.0961014963">
        <ele>31.6</ele>
        <time>2013-03-14T20:05:32Z</time>
      </trkpt>
      <trkpt lat="59.4939079589" lon="18.096266955">
        <ele>31.6</ele>
        <time>2013-03-14T20:05:34Z</time>
      </trkpt>
      <trkpt lat="59.4938717491" lon="18.0964165719">
        <ele>31.6</ele>
        <time>2013-03-14T20:05:36Z</time>
      </trkpt>
      <trkpt lat="59.4937980722" lon="18.0965935138">
        <ele>31.6</ele>
        <time>2013-03-14T20:05:39Z</time>
      </trkpt>
      <trkpt lat="59.4937730942" lon="18.0966371835">
        <ele>31.6</ele>
        <time>2013-03-14T20:05:40Z</time>
      </trkpt>
      <trkpt lat="59.4936565019" lon="18.0967605651">
        <ele>31.6</ele>
        <time>2013-03-14T20:05:43Z</time>
      </trkpt>
      <trkpt lat="59.4935430948" lon="18.096911104">
        <ele>31.6</ele>
        <time>2013-03-14T20:05:46Z</time>
      </trkpt>
      <trkpt lat="59.4934826613" lon="18.0970478966">
        <ele>31.6</ele>
        <time>2013-03-14T20:05:48Z</time>
      </trkpt>
      <trkpt lat="59.4934233175" lon="18.0973897105">
        <ele>31.2</ele>
        <time>2013-03-14T20:05:52Z</time>
      </trkpt>
      <trkpt lat="59.4934280113" lon="18.0974804026">
        <ele>30.8</ele>
        <time>2013-03-14T20:05:53Z</time>
      </trkpt>
      <trkpt lat="59.4934401651" lon="18.0975644731">
        <ele>30.4</ele>
        <time>2013-03-14T20:05:54Z</time>
      </trkpt>
      <trkpt lat="59.4934575156" lon="18.0976474539">
        <ele>30</ele>
        <time>2013-03-14T20:05:55Z</time>
      </trkpt>
      <trkpt lat="59.4934820746" lon="18.0977278363">
        <ele>29.4</ele>
        <time>2013-03-14T20:05:56Z</time>
      </trkpt>
      <trkpt lat="59.4936377265" lon="18.0979512978">
        <ele>29.4</ele>
        <time>2013-03-14T20:06:00Z</time>
      </trkpt>
      <trkpt lat="59.4938275765" lon="18.0979932911">
        <ele>29.4</ele>
        <time>2013-03-14T20:06:04Z</time>
      </trkpt>
      <trkpt lat="59.493919023" lon="18.0979712467">
        <ele>29.4</ele>
        <time>2013-03-14T20:06:06Z</time>
      </trkpt>
      <trkpt lat="59.4940905167" lon="18.0979249786">
        <ele>29.4</ele>
        <time>2013-03-14T20:06:10Z</time>
      </trkpt>
      <trkpt lat="59.4943397106" lon="18.0978684008">
        <ele>29.4</ele>
        <time>2013-03-14T20:06:16Z</time>
      </trkpt>
      <trkpt lat="59.4944224399" lon="18.0978903614">
        <ele>29.4</ele>
        <time>2013-03-14T20:06:18Z</time>
      </trkpt>
      <trkpt lat="59.4945331648" lon="18.0979774493">
        <ele>29.4</ele>
        <time>2013-03-14T20:06:21Z</time>
      </trkpt>
      <trkpt lat="59.4946348373" lon="18.098251286">
        <ele>29.4</ele>
        <time>2013-03-14T20:06:25Z</time>
      </trkpt>
      <trkpt lat="59.4946462367" lon="18.098344828">
        <ele>29</ele>
        <time>2013-03-14T20:06:26Z</time>
      </trkpt>
      <trkpt lat="59.4946479969" lon="18.0984317483">
        <ele>28.6</ele>
        <time>2013-03-14T20:06:27Z</time>
      </trkpt>
      <trkpt lat="59.4946376871" lon="18.0985120469">
        <ele>28.2</ele>
        <time>2013-03-14T20:06:28Z</time>
      </trkpt>
      <trkpt lat="59.4946189117" lon="18.0985872325">
        <ele>27.8</ele>
        <time>2013-03-14T20:06:29Z</time>
      </trkpt>
      <trkpt lat="59.4945926763" lon="18.0986548745">
        <ele>27.4</ele>
        <time>2013-03-14T20:06:30Z</time>
      </trkpt>
      <trkpt lat="59.4944804427" lon="18.0987878114">
        <ele>27.4</ele>
        <time>2013-03-14T20:06:33Z</time>
      </trkpt>
      <trkpt lat="59.4943261319" lon="18.0988209199">
        <ele>27.4</ele>
        <time>2013-03-14T20:06:37Z</time>
      </trkpt>
      <trkpt lat="59.4942853121" lon="18.0988116998">
        <ele>27.4</ele>
        <time>2013-03-14T20:06:38Z</time>
      </trkpt>
      <trkpt lat="59.4940573244" lon="18.0987448961">
        <ele>27.4</ele>
        <time>2013-03-14T20:06:44Z</time>
      </trkpt>
      <trkpt lat="59.4939429114" lon="18.098713883">
        <ele>27.4</ele>
        <time>2013-03-14T20:06:47Z</time>
      </trkpt>
      <trkpt lat="59.4938631158" lon="18.0986971192">
        <ele>27.4</ele>
        <time>2013-03-14T20:06:49Z</time>
      </trkpt>
      <trkpt lat="59.4937854155" lon="18.0986739014">
        <ele>27.4</ele>
        <time>2013-03-14T20:06:51Z</time>
      </trkpt>
      <trkpt lat="59.4936363015" lon="18.0986257893">
        <ele>27.4</ele>
        <time>2013-03-14T20:06:55Z</time>
      </trkpt>
      <trkpt lat="59.4935327013" lon="18.0985563871">
        <ele>27.4</ele>
        <time>2013-03-14T20:06:58Z</time>
      </trkpt>
      <trkpt lat="59.4934695856" lon="18.0984883261">
        <ele>27.4</ele>
        <time>2013-03-14T20:07:00Z</time>
      </trkpt>
      <trkpt lat="59.493342013" lon="18.0982299959">
        <ele>27.4</ele>
        <time>2013-03-14T20:07:05Z</time>
      </trkpt>
      <trkpt lat="59.4932746226" lon="18.0979061193">
        <ele>27.4</ele>
        <time>2013-03-14T20:07:10Z</time>
      </trkpt>
      <trkpt lat="59.4932343894" lon="18.0973818315">
        <ele>27.4</ele>
        <time>2013-03-14T20:07:17Z</time>
      </trkpt>
      <trkpt lat="59.4931664122" lon="18.0970169674">
        <ele>27.4</ele>
        <time>2013-03-14T20:07:22Z</time>
      </trkpt>
      <trkpt lat="59.4931001952" lon="18.0968670152">
        <ele>27.8</ele>
        <time>2013-03-14T20:07:25Z</time>
      </trkpt>
      <trkpt lat="59.4930763906" lon="18.0968227588">
        <ele>28.4</ele>
        <time>2013-03-14T20:07:26Z</time>
      </trkpt>
      <trkpt lat="59.4930552682" lon="18.0967705395">
        <ele>28.8</ele>
        <time>2013-03-14T20:07:27Z</time>
      </trkpt>
      <trkpt lat="59.4930409352" lon="18.0967156381">
        <ele>29.2</ele>
        <time>2013-03-14T20:07:28Z</time>
      </trkpt>
      <trkpt lat="59.4930337268" lon="18.0966586412">
        <ele>29.6</ele>
        <time>2013-03-14T20:07:29Z</time>
      </trkpt>
      <trkpt lat="59.4930379177" lon="18.0965207589">
        <ele>29.6</ele>
        <time>2013-03-14T20:07:31Z</time>
      </trkpt>
      <trkpt lat="59.4930918133" lon="18.0963402128">
        <ele>29.6</ele>
        <time>2013-03-14T20:07:34Z</time>
      </trkpt>
      <trkpt lat="59.4931241675" lon="18.0963048412">
        <ele>29.6</ele>
        <time>2013-03-14T20:07:35Z</time>
      </trkpt>
      <trkpt lat="59.4932348085" lon="18.0962473413">
        <ele>29.6</ele>
        <time>2013-03-14T20:07:38Z</time>
      </trkpt>
      <trkpt lat="59.4933043783" lon="18.0962152386">
        <ele>29.6</ele>
        <time>2013-03-14T20:07:40Z</time>
      </trkpt>
      <trkpt lat="59.4933419292" lon="18.0961946192">
        <ele>29.6</ele>
        <time>2013-03-14T20:07:41Z</time>
      </trkpt>
      <trkpt lat="59.4934753691" lon="18.096044667">
        <ele>29.6</ele>
        <time>2013-03-14T20:07:45Z</time>
      </trkpt>
      <trkpt lat="59.4935303543" lon="18.0957855824">
        <ele>29.6</ele>
        <time>2013-03-14T20:07:49Z</time>
      </trkpt>
      <trkpt lat="59.4934897021" lon="18.0954526534">
        <ele>29.6</ele>
        <time>2013-03-14T20:07:54Z</time>
      </trkpt>
      <trkpt lat="59.4933576034" lon="18.0952172896">
        <ele>29.6</ele>
        <time>2013-03-14T20:07:59Z</time>
      </trkpt>
      <trkpt lat="59.4931480559" lon="18.0951060618">
        <ele>29.6</ele>
        <time>2013-03-14T20:08:05Z</time>
      </trkpt>
      <trkpt lat="59.4928822658" lon="18.0950812514">
        <ele>29.6</ele>
        <time>2013-03-14T20:08:12Z</time>
      </trkpt>
      <trkpt lat="59.4926730536" lon="18.0950218237">
        <ele>29.6</ele>
        <time>2013-03-14T20:08:17Z</time>
      </trkpt>
      <trkpt lat="59.4925036554" lon="18.0949152898">
        <ele>29.6</ele>
        <time>2013-03-14T20:08:21Z</time>
      </trkpt>
      <trkpt lat="59.4924631708" lon="18.0948875457">
        <ele>29.6</ele>
        <time>2013-03-14T20:08:22Z</time>
      </trkpt>
      <trkpt lat="59.4924213451" lon="18.094858209">
        <ele>29.6</ele>
        <time>2013-03-14T20:08:23Z</time>
      </trkpt>
      <trkpt lat="59.4922516955" lon="18.0947115258">
        <ele>29.6</ele>
        <time>2013-03-14T20:08:27Z</time>
      </trkpt>
      <trkpt lat="59.4920383761" lon="18.0945185744">
        <ele>29.6</ele>
        <time>2013-03-14T20:08:32Z</time>
      </trkpt>
      <trkpt lat="59.4918711572" lon="18.0944064246">
        <ele>29.6</ele>
        <time>2013-03-14T20:08:36Z</time>
      </trkpt>
      <trkpt lat="59.4916958079" lon="18.0943653533">
        <ele>29.6</ele>
        <time>2013-03-14T20:08:40Z</time>
      </trkpt>
      <trkpt lat="59.4915237275" lon="18.0944033233">
        <ele>29.6</ele>
        <time>2013-03-14T20:08:44Z</time>
      </trkpt>
      <trkpt lat="59.4913781339" lon="18.0945848753">
        <ele>29.6</ele>
        <time>2013-03-14T20:08:48Z</time>
      </trkpt>
      <trkpt lat="59.4913003498" lon="18.0948146232">
        <ele>29.2</ele>
        <time>2013-03-14T20:08:51Z</time>
      </trkpt>
      <trkpt lat="59.491285011" lon="18.0948953408">
        <ele>28.8</ele>
        <time>2013-03-14T20:08:52Z</time>
      </trkpt>
      <trkpt lat="59.4912759585" lon="18.0949784893">
        <ele>28</ele>
        <time>2013-03-14T20:08:53Z</time>
      </trkpt>
      <trkpt lat="59.4912721028" lon="18.0950664154">
        <ele>27.6</ele>
        <time>2013-03-14T20:08:54Z</time>
      </trkpt>
      <trkpt lat="59.4912824964" lon="18.0952362327">
        <ele>27.6</ele>
        <time>2013-03-14T20:08:56Z</time>
      </trkpt>
      <trkpt lat="59.491371596" lon="18.0954991729">
        <ele>27.6</ele>
        <time>2013-03-14T20:09:00Z</time>
      </trkpt>
      <trkpt lat="59.4915074666" lon="18.0956534837">
        <ele>27.6</ele>
        <time>2013-03-14T20:09:04Z</time>
      </trkpt>
      <trkpt lat="59.4915466939" lon="18.0956860893">
        <ele>27.6</ele>
        <time>2013-03-14T20:09:05Z</time>
      </trkpt>
      <trkpt lat="59.4918282419" lon="18.0958921164">
        <ele>27.6</ele>
        <time>2013-03-14T20:09:12Z</time>
      </trkpt>
      <trkpt lat="59.4920242945" lon="18.0961184277">
        <ele>27.6</ele>
        <time>2013-03-14T20:09:18Z</time>
      </trkpt>
      <trkpt lat="59.4921589917" lon="18.0963770093">
        <ele>27.6</ele>
        <time>2013-03-14T20:09:23Z</time>
      </trkpt>
      <trkpt lat="59.4922792719" lon="18.0966471579">
        <ele>27.6</ele>
        <time>2013-03-14T20:09:28Z</time>
      </trkpt>
      <trkpt lat="59.4924033241" lon="18.0969369202">
        <ele>27.6</ele>
        <time>2013-03-14T20:09:33Z</time>
      </trkpt>
      <trkpt lat="59.4925844569" lon="18.0973299475">
        <ele>27.6</ele>
        <time>2013-03-14T20:09:40Z</time>
      </trkpt>
      <trkpt lat="59.4926951818" lon="18.0975360584">
        <ele>27.6</ele>
        <time>2013-03-14T20:09:44Z</time>
      </trkpt>
      <trkpt lat="59.4928904801" lon="18.0977961488">
        <ele>27.6</ele>
        <time>2013-03-14T20:09:50Z</time>
      </trkpt>
      <trkpt lat="59.4930490656" lon="18.0980341109">
        <ele>27.6</ele>
        <time>2013-03-14T20:09:55Z</time>
      </trkpt>
      <trkpt lat="59.4931511572" lon="18.0983288185">
        <ele>27.6</ele>
        <time>2013-03-14T20:10:00Z</time>
      </trkpt>
      <trkpt lat="59.493166999" lon="18.0985011504">
        <ele>27.6</ele>
        <time>2013-03-14T20:10:02Z</time>
      </trkpt>
      <trkpt lat="59.4931687592" lon="18.0986733146">
        <ele>27.6</ele>
        <time>2013-03-14T20:10:04Z</time>
      </trkpt>
      <trkpt lat="59.4931634786" lon="18.0987580556">
        <ele>27.6</ele>
        <time>2013-03-14T20:10:05Z</time>
      </trkpt>
      <trkpt lat="59.4930882091" lon="18.0990994504">
        <ele>27.6</ele>
        <time>2013-03-14T20:10:10Z</time>
      </trkpt>
      <trkpt lat="59.4930239199" lon="18.099190897">
        <ele>27.6</ele>
        <time>2013-03-14T20:10:12Z</time>
      </trkpt>
      <trkpt lat="59.4929497401" lon="18.0992487321">
        <ele>27.6</ele>
        <time>2013-03-14T20:10:14Z</time>
      </trkpt>
      <trkpt lat="59.4927722953" lon="18.0992532583">
        <ele>27.6</ele>
        <time>2013-03-14T20:10:18Z</time>
      </trkpt>
      <trkpt lat="59.492728877" lon="18.0992388414">
        <ele>27.6</ele>
        <time>2013-03-14T20:10:19Z</time>
      </trkpt>
      <trkpt lat="59.4924745702" lon="18.0991994465">
        <ele>27.6</ele>
        <time>2013-03-14T20:10:25Z</time>
      </trkpt>
      <trkpt lat="59.4922563893" lon="18.0992449602">
        <ele>27.6</ele>
        <time>2013-03-14T20:10:30Z</time>
      </trkpt>
      <trkpt lat="59.4920437405" lon="18.0992636519">
        <ele>27.6</ele>
        <time>2013-03-14T20:10:35Z</time>
      </trkpt>
      <trkpt lat="59.4918335225" lon="18.0992559405">
        <ele>27.6</ele>
        <time>2013-03-14T20:10:40Z</time>
      </trkpt>
      <trkpt lat="59.4915881843" lon="18.0992143663">
        <ele>27.6</ele>
        <time>2013-03-14T20:10:46Z</time>
      </trkpt>
      <trkpt lat="59.4914741066" lon="18.0991950879">
        <ele>27.6</ele>
        <time>2013-03-14T20:10:49Z</time>
      </trkpt>
      <trkpt lat="59.4914315266" lon="18.0991800005">
        <ele>27.6</ele>
        <time>2013-03-14T20:10:50Z</time>
      </trkpt>
      <trkpt lat="59.4912364798" lon="18.0990867938">
        <ele>27.6</ele>
        <time>2013-03-14T20:10:55Z</time>
      </trkpt>
      <trkpt lat="59.4910856894" lon="18.0989932518">
        <ele>27.6</ele>
        <time>2013-03-14T20:10:59Z</time>
      </trkpt>
      <trkpt lat="59.491005307" lon="18.0989222571">
        <ele>27.6</ele>
        <time>2013-03-14T20:11:01Z</time>
      </trkpt>
      <trkpt lat="59.4907963462" lon="18.0986497615">
        <ele>27.6</ele>
        <time>2013-03-14T20:11:07Z</time>
      </trkpt>
      <trkpt lat="59.4906850346" lon="18.0983348535">
        <ele>27.6</ele>
        <time>2013-03-14T20:11:12Z</time>
      </trkpt>
      <trkpt lat="59.4906038978" lon="18.0979202847">
        <ele>27.6</ele>
        <time>2013-03-14T20:11:18Z</time>
      </trkpt>
      <trkpt lat="59.4905480743" lon="18.0975171153">
        <ele>27.6</ele>
        <time>2013-03-14T20:11:24Z</time>
      </trkpt>
      <trkpt lat="59.4905028959" lon="18.0971041391">
        <ele>27.6</ele>
        <time>2013-03-14T20:11:30Z</time>
      </trkpt>
      <trkpt lat="59.4904667699" lon="18.0966444757">
        <ele>27.6</ele>
        <time>2013-03-14T20:11:36Z</time>
      </trkpt>
      <trkpt lat="59.4904279617" lon="18.0962709783">
        <ele>27.6</ele>
        <time>2013-03-14T20:11:42Z</time>
      </trkpt>
      <trkpt lat="59.4904060849" lon="18.0958699882">
        <ele>27.6</ele>
        <time>2013-03-14T20:11:47Z</time>
      </trkpt>
      <trkpt lat="59.4904521854" lon="18.095506549">
        <ele>27.6</ele>
        <time>2013-03-14T20:11:52Z</time>
      </trkpt>
      <trkpt lat="59.490468111" lon="18.0954304413">
        <ele>27.6</ele>
        <time>2013-03-14T20:11:53Z</time>
      </trkpt>
      <trkpt lat="59.4905311429" lon="18.0950094185">
        <ele>27.6</ele>
        <time>2013-03-14T20:11:59Z</time>
      </trkpt>
      <trkpt lat="59.4904545323" lon="18.0946048242">
        <ele>27.6</ele>
        <time>2013-03-14T20:12:05Z</time>
      </trkpt>
      <trkpt lat="59.4903471602" lon="18.0943595698">
        <ele>27.6</ele>
        <time>2013-03-14T20:12:09Z</time>
      </trkpt>
      <trkpt lat="59.4902775904" lon="18.0942575621">
        <ele>27.6</ele>
        <time>2013-03-14T20:12:11Z</time>
      </trkpt>
      <trkpt lat="59.4901032469" lon="18.0941219429">
        <ele>27.6</ele>
        <time>2013-03-14T20:12:16Z</time>
      </trkpt>
      <trkpt lat="59.4899123072" lon="18.0941501061">
        <ele>27.6</ele>
        <time>2013-03-14T20:12:21Z</time>
      </trkpt>
      <trkpt lat="59.4897315096" lon="18.094319169">
        <ele>27.6</ele>
        <time>2013-03-14T20:12:26Z</time>
      </trkpt>
      <trkpt lat="59.4896997422" lon="18.0943726456">
        <ele>27.6</ele>
        <time>2013-03-14T20:12:27Z</time>
      </trkpt>
      <trkpt lat="59.4894947209" lon="18.0947579615">
        <ele>27.6</ele>
        <time>2013-03-14T20:12:33Z</time>
      </trkpt>
      <trkpt lat="59.4892861793" lon="18.0950000308">
        <ele>27.6</ele>
        <time>2013-03-14T20:12:38Z</time>
      </trkpt>
      <trkpt lat="59.488960291" lon="18.0953125918">
        <ele>27.6</ele>
        <time>2013-03-14T20:12:46Z</time>
      </trkpt>
      <trkpt lat="59.4888436149" lon="18.0954087322">
        <ele>27.6</ele>
        <time>2013-03-14T20:12:49Z</time>
      </trkpt>
      <trkpt lat="59.4887272742" lon="18.0954614544">
        <ele>27.6</ele>
        <time>2013-03-14T20:12:52Z</time>
      </trkpt>
      <trkpt lat="59.4886082512" lon="18.0954541621">
        <ele>27.6</ele>
        <time>2013-03-14T20:12:55Z</time>
      </trkpt>
      <trkpt lat="59.4885660902" lon="18.095429687">
        <ele>27.6</ele>
        <time>2013-03-14T20:12:56Z</time>
      </trkpt>
      <trkpt lat="59.4883417068" lon="18.0952679163">
        <ele>27.6</ele>
        <time>2013-03-14T20:13:02Z</time>
      </trkpt>
      <trkpt lat="59.488122101" lon="18.0951105042">
        <ele>27.6</ele>
        <time>2013-03-14T20:13:08Z</time>
      </trkpt>
      <trkpt lat="59.487895203" lon="18.094962396">
        <ele>27.6</ele>
        <time>2013-03-14T20:13:14Z</time>
      </trkpt>
      <trkpt lat="59.4876607612" lon="18.0947902318">
        <ele>27.6</ele>
        <time>2013-03-14T20:13:20Z</time>
      </trkpt>
      <trkpt lat="59.4874301751" lon="18.0946101886">
        <ele>27.6</ele>
        <time>2013-03-14T20:13:26Z</time>
      </trkpt>
      <trkpt lat="59.487354738" lon="18.0945643396">
        <ele>27.6</ele>
        <time>2013-03-14T20:13:28Z</time>
      </trkpt>
      <trkpt lat="59.4872060431" lon="18.0945005534">
        <ele>27.6</ele>
        <time>2013-03-14T20:13:32Z</time>
      </trkpt>
      <trkpt lat="59.4870025306" lon="18.0943501821">
        <ele>27.6</ele>
        <time>2013-03-14T20:13:38Z</time>
      </trkpt>
      <trkpt lat="59.4868558474" lon="18.0942097852">
        <ele>27.6</ele>
        <time>2013-03-14T20:13:43Z</time>
      </trkpt>
      <trkpt lat="59.486665662" lon="18.0939921073">
        <ele>27.6</ele>
        <time>2013-03-14T20:13:49Z</time>
      </trkpt>
      <trkpt lat="59.4863945914" lon="18.0937240541">
        <ele>27.6</ele>
        <time>2013-03-14T20:13:57Z</time>
      </trkpt>
      <trkpt lat="59.4863587169" lon="18.0936813065">
        <ele>27.6</ele>
        <time>2013-03-14T20:13:58Z</time>
      </trkpt>
      <trkpt lat="59.4862512609" lon="18.0935311028">
        <ele>27.6</ele>
        <time>2013-03-14T20:14:01Z</time>
      </trkpt>
      <trkpt lat="59.4861768296" lon="18.0934199588">
        <ele>27.6</ele>
        <time>2013-03-14T20:14:03Z</time>
      </trkpt>
      <trkpt lat="59.4860662724" lon="18.0932585234">
        <ele>27.6</ele>
        <time>2013-03-14T20:14:06Z</time>
      </trkpt>
      <trkpt lat="59.4859033282" lon="18.0930115926">
        <ele>27.6</ele>
        <time>2013-03-14T20:14:11Z</time>
      </trkpt>
      <trkpt lat="59.4857361093" lon="18.0928226646">
        <ele>27.6</ele>
        <time>2013-03-14T20:14:16Z</time>
      </trkpt>
      <trkpt lat="59.4856601693" lon="18.0927701101">
        <ele>27.6</ele>
        <time>2013-03-14T20:14:18Z</time>
      </trkpt>
      <trkpt lat="59.4855494444" lon="18.0927216627">
        <ele>27.6</ele>
        <time>2013-03-14T20:14:21Z</time>
      </trkpt>
      <trkpt lat="59.4853989055" lon="18.0926385143">
        <ele>27.6</ele>
        <time>2013-03-14T20:14:25Z</time>
      </trkpt>
      <trkpt lat="59.4853613546" lon="18.0926012148">
        <ele>27.6</ele>
        <time>2013-03-14T20:14:26Z</time>
      </trkpt>
      <trkpt lat="59.4852400685" lon="18.0923989596">
        <ele>27.6</ele>
        <time>2013-03-14T20:14:30Z</time>
      </trkpt>
      <trkpt lat="59.4852167668" lon="18.0923251989">
        <ele>27.6</ele>
        <time>2013-03-14T20:14:31Z</time>
      </trkpt>
      <trkpt lat="59.485175444" lon="18.09216259">
        <ele>27.6</ele>
        <time>2013-03-14T20:14:33Z</time>
      </trkpt>
      <trkpt lat="59.4851331155" lon="18.0918857358">
        <ele>27.6</ele>
        <time>2013-03-14T20:14:36Z</time>
      </trkpt>
      <trkpt lat="59.4850902839" lon="18.0914992464">
        <ele>27.6</ele>
        <time>2013-03-14T20:14:40Z</time>
      </trkpt>
      <trkpt lat="59.4850735201" lon="18.0913104022">
        <ele>27.6</ele>
        <time>2013-03-14T20:14:42Z</time>
      </trkpt>
      <trkpt lat="59.4850746098" lon="18.091032207">
        <ele>27.6</ele>
        <time>2013-03-14T20:14:45Z</time>
      </trkpt>
      <trkpt lat="59.4850988335" lon="18.0908462126">
        <ele>27.6</ele>
        <time>2013-03-14T20:14:47Z</time>
      </trkpt>
      <trkpt lat="59.4851958121" lon="18.0904855394">
        <ele>27.6</ele>
        <time>2013-03-14T20:14:51Z</time>
      </trkpt>
      <trkpt lat="59.48526161" lon="18.0903376827">
        <ele>27.6</ele>
        <time>2013-03-14T20:14:53Z</time>
      </trkpt>
      <trkpt lat="59.4853003344" lon="18.0902769139">
        <ele>27.6</ele>
        <time>2013-03-14T20:14:54Z</time>
      </trkpt>
      <trkpt lat="59.485344507" lon="18.0902309811">
        <ele>27.6</ele>
        <time>2013-03-14T20:14:55Z</time>
      </trkpt>
      <trkpt lat="59.4855279029" lon="18.0902099426">
        <ele>27.6</ele>
        <time>2013-03-14T20:14:59Z</time>
      </trkpt>
      <trkpt lat="59.4856708982" lon="18.0904064981">
        <ele>27.6</ele>
        <time>2013-03-14T20:15:03Z</time>
      </trkpt>
      <trkpt lat="59.4857730735" lon="18.0905763992">
        <ele>27.2</ele>
        <time>2013-03-14T20:15:06Z</time>
      </trkpt>
      <trkpt lat="59.4858345967" lon="18.0906789937">
        <ele>26.4</ele>
        <time>2013-03-14T20:15:07Z</time>
      </trkpt>
      <trkpt lat="59.48586452" lon="18.0907291175">
        <ele>26</ele>
        <time>2013-03-14T20:15:09Z</time>
      </trkpt>
      <trkpt lat="59.4858934376" lon="18.0907759723">
        <ele>25.6</ele>
        <time>2013-03-14T20:15:10Z</time>
      </trkpt>
      <trkpt lat="59.4861307292" lon="18.0911416746">
        <ele>25.6</ele>
        <time>2013-03-14T20:15:18Z</time>
      </trkpt>
      <trkpt lat="59.4862043223" lon="18.0912030301">
        <ele>25.6</ele>
        <time>2013-03-14T20:15:20Z</time>
      </trkpt>
      <trkpt lat="59.4863260275" lon="18.0912238172">
        <ele>25.6</ele>
        <time>2013-03-14T20:15:23Z</time>
      </trkpt>
      <trkpt lat="59.4864772369" lon="18.0911093204">
        <ele>25.6</ele>
        <time>2013-03-14T20:15:27Z</time>
      </trkpt>
      <trkpt lat="59.4865798314" lon="18.0908374954">
        <ele>25.6</ele>
        <time>2013-03-14T20:15:31Z</time>
      </trkpt>
      <trkpt lat="59.4865981878" lon="18.0907597952">
        <ele>25.6</ele>
        <time>2013-03-14T20:15:32Z</time>
      </trkpt>
      <trkpt lat="59.4866424442" lon="18.0905092602">
        <ele>25.6</ele>
        <time>2013-03-14T20:15:35Z</time>
      </trkpt>
      <trkpt lat="59.4866605491" lon="18.0903350843">
        <ele>25.6</ele>
        <time>2013-03-14T20:15:37Z</time>
      </trkpt>
      <trkpt lat="59.486668009" lon="18.0899029136">
        <ele>25.6</ele>
        <time>2013-03-14T20:15:42Z</time>
      </trkpt>
      <trkpt lat="59.486661052" lon="18.0898102936">
        <ele>25.6</ele>
        <time>2013-03-14T20:15:43Z</time>
      </trkpt>
      <trkpt lat="59.4866121017" lon="18.0895699007">
        <ele>25.6</ele>
        <time>2013-03-14T20:15:46Z</time>
      </trkpt>
      <trkpt lat="59.4864914862" lon="18.0893475289">
        <ele>25.6</ele>
        <time>2013-03-14T20:15:50Z</time>
      </trkpt>
      <trkpt lat="59.4864572042" lon="18.0893033563">
        <ele>25.6</ele>
        <time>2013-03-14T20:15:51Z</time>
      </trkpt>
      <trkpt lat="59.4863610638" lon="18.0891589361">
        <ele>25.6</ele>
        <time>2013-03-14T20:15:54Z</time>
      </trkpt>
      <trkpt lat="59.4863099342" lon="18.089051564">
        <ele>25.6</ele>
        <time>2013-03-14T20:15:56Z</time>
      </trkpt>
      <trkpt lat="59.4862144644" lon="18.0887409308">
        <ele>25.6</ele>
        <time>2013-03-14T20:16:01Z</time>
      </trkpt>
      <trkpt lat="59.4861837028" lon="18.0885069081">
        <ele>25.6</ele>
        <time>2013-03-14T20:16:04Z</time>
      </trkpt>
      <trkpt lat="59.48618035" lon="18.088268946">
        <ele>25.6</ele>
        <time>2013-03-14T20:16:07Z</time>
      </trkpt>
      <trkpt lat="59.4862018915" lon="18.0877446581">
        <ele>25.6</ele>
        <time>2013-03-14T20:16:14Z</time>
      </trkpt>
      <trkpt lat="59.4862014724" lon="18.0872699911">
        <ele>25.6</ele>
        <time>2013-03-14T20:16:20Z</time>
      </trkpt>
      <trkpt lat="59.4861778355" lon="18.0867892892">
        <ele>25.6</ele>
        <time>2013-03-14T20:16:26Z</time>
      </trkpt>
      <trkpt lat="59.4861769135" lon="18.0867015307">
        <ele>25.6</ele>
        <time>2013-03-14T20:16:27Z</time>
      </trkpt>
      <trkpt lat="59.4862248579" lon="18.086411936">
        <ele>25.6</ele>
        <time>2013-03-14T20:16:31Z</time>
      </trkpt>
      <trkpt lat="59.4863579625" lon="18.0861884746">
        <ele>25.6</ele>
        <time>2013-03-14T20:16:35Z</time>
      </trkpt>
      <trkpt lat="59.4863996205" lon="18.0861478224">
        <ele>25</ele>
        <time>2013-03-14T20:16:36Z</time>
      </trkpt>
      <trkpt lat="59.4864411109" lon="18.0861058291">
        <ele>24.6</ele>
        <time>2013-03-14T20:16:37Z</time>
      </trkpt>
      <trkpt lat="59.4864774046" lon="18.0860577169">
        <ele>24.2</ele>
        <time>2013-03-14T20:16:38Z</time>
      </trkpt>
      <trkpt lat="59.4865028017" lon="18.0860053301">
        <ele>23.8</ele>
        <time>2013-03-14T20:16:39Z</time>
      </trkpt>
      <trkpt lat="59.4865218286" lon="18.0859534461">
        <ele>23.4</ele>
        <time>2013-03-14T20:16:40Z</time>
      </trkpt>
      <trkpt lat="59.4865516682" lon="18.0857422222">
        <ele>23.4</ele>
        <time>2013-03-14T20:16:43Z</time>
      </trkpt>
      <trkpt lat="59.4865685996" lon="18.085492274">
        <ele>23.4</ele>
        <time>2013-03-14T20:16:46Z</time>
      </trkpt>
      <trkpt lat="59.4865816754" lon="18.0854104666">
        <ele>23.4</ele>
        <time>2013-03-14T20:16:47Z</time>
      </trkpt>
      <trkpt lat="59.4866205674" lon="18.0852622746">
        <ele>23.4</ele>
        <time>2013-03-14T20:16:49Z</time>
      </trkpt>
      <trkpt lat="59.4867006146" lon="18.0849664774">
        <ele>23.4</ele>
        <time>2013-03-14T20:16:53Z</time>
      </trkpt>
      <trkpt lat="59.4868113395" lon="18.0847131764">
        <ele>23.4</ele>
        <time>2013-03-14T20:16:57Z</time>
      </trkpt>
      <trkpt lat="59.4868388321" lon="18.0846606219">
        <ele>23.4</ele>
        <time>2013-03-14T20:16:58Z</time>
      </trkpt>
      <trkpt lat="59.4868966672" lon="18.0846193829">
        <ele>23.4</ele>
        <time>2013-03-14T20:17:00Z</time>
      </trkpt>
      <trkpt lat="59.4869256686" lon="18.0846539163">
        <ele>23.4</ele>
        <time>2013-03-14T20:17:01Z</time>
      </trkpt>
      <trkpt lat="59.4869977529" lon="18.0849487916">
        <ele>23.4</ele>
        <time>2013-03-14T20:17:05Z</time>
      </trkpt>
      <trkpt lat="59.4869554243" lon="18.0852220415">
        <ele>23.4</ele>
        <time>2013-03-14T20:17:09Z</time>
      </trkpt>
      <trkpt lat="59.486908821" lon="18.0853805432">
        <ele>23.4</ele>
        <time>2013-03-14T20:17:11Z</time>
      </trkpt>
      <trkpt lat="59.486875461" lon="18.0855388773">
        <ele>23.4</ele>
        <time>2013-03-14T20:17:13Z</time>
      </trkpt>
      <trkpt lat="59.4868580267" lon="18.0856873208">
        <ele>23.4</ele>
        <time>2013-03-14T20:17:15Z</time>
      </trkpt>
      <trkpt lat="59.4868802387" lon="18.0860421266">
        <ele>23.4</ele>
        <time>2013-03-14T20:17:20Z</time>
      </trkpt>
      <trkpt lat="59.4869591962" lon="18.0865225771">
        <ele>23.4</ele>
        <time>2013-03-14T20:17:27Z</time>
      </trkpt>
      <trkpt lat="59.4870623774" lon="18.0870300173">
        <ele>23.4</ele>
        <time>2013-03-14T20:17:34Z</time>
      </trkpt>
      <trkpt lat="59.4872154309" lon="18.0874823047">
        <ele>23.4</ele>
        <time>2013-03-14T20:17:41Z</time>
      </trkpt>
      <trkpt lat="59.4872741042" lon="18.087691014">
        <ele>23.4</ele>
        <time>2013-03-14T20:17:44Z</time>
      </trkpt>
      <trkpt lat="59.4873152593" lon="18.0879080214">
        <ele>23.4</ele>
        <time>2013-03-14T20:17:47Z</time>
      </trkpt>
      <trkpt lat="59.4873786265" lon="18.088405068">
        <ele>23.4</ele>
        <time>2013-03-14T20:17:54Z</time>
      </trkpt>
      <trkpt lat="59.4874031854" lon="18.0888119255">
        <ele>23.4</ele>
        <time>2013-03-14T20:18:00Z</time>
      </trkpt>
      <trkpt lat="59.4874226314" lon="18.0892385642">
        <ele>23.4</ele>
        <time>2013-03-14T20:18:06Z</time>
      </trkpt>
      <trkpt lat="59.4874663011" lon="18.0894389754">
        <ele>23.8</ele>
        <time>2013-03-14T20:18:09Z</time>
      </trkpt>
      <trkpt lat="59.4874850766" lon="18.0894908594">
        <ele>24.2</ele>
        <time>2013-03-14T20:18:10Z</time>
      </trkpt>
      <trkpt lat="59.4875041035" lon="18.0895408155">
        <ele>24.6</ele>
        <time>2013-03-14T20:18:11Z</time>
      </trkpt>
      <trkpt lat="59.4875248068" lon="18.0895963037">
        <ele>25</ele>
        <time>2013-03-14T20:18:12Z</time>
      </trkpt>
      <trkpt lat="59.487546935" lon="18.0896560666">
        <ele>25.4</ele>
        <time>2013-03-14T20:18:13Z</time>
      </trkpt>
      <trkpt lat="59.4876328495" lon="18.0898610041">
        <ele>25.4</ele>
        <time>2013-03-14T20:18:16Z</time>
      </trkpt>
      <trkpt lat="59.4878143176" lon="18.0901428874">
        <ele>25.4</ele>
        <time>2013-03-14T20:18:22Z</time>
      </trkpt>
      <trkpt lat="59.4880265473" lon="18.0904166402">
        <ele>25.4</ele>
        <time>2013-03-14T20:18:29Z</time>
      </trkpt>
      <trkpt lat="59.4882159783" lon="18.0905883854">
        <ele>25.4</ele>
        <time>2013-03-14T20:18:35Z</time>
      </trkpt>
      <trkpt lat="59.4883813532" lon="18.0907212385">
        <ele>25.4</ele>
        <time>2013-03-14T20:18:40Z</time>
      </trkpt>
      <trkpt lat="59.4884059121" lon="18.0907386728">
        <ele>25.8</ele>
        <time>2013-03-14T20:18:41Z</time>
      </trkpt>
      <trkpt lat="59.488435165" lon="18.0907574483">
        <ele>26.4</ele>
        <time>2013-03-14T20:18:42Z</time>
      </trkpt>
      <trkpt lat="59.4884613165" lon="18.0907753855">
        <ele>26.8</ele>
        <time>2013-03-14T20:18:43Z</time>
      </trkpt>
      <trkpt lat="59.4884895635" lon="18.0907914788">
        <ele>27.2</ele>
        <time>2013-03-14T20:18:44Z</time>
      </trkpt>
      <trkpt lat="59.4885168885" lon="18.0908100866">
        <ele>27.6</ele>
        <time>2013-03-14T20:18:45Z</time>
      </trkpt>
      <trkpt lat="59.4886162978" lon="18.090865491">
        <ele>27.6</ele>
        <time>2013-03-14T20:18:48Z</time>
      </trkpt>
      <trkpt lat="59.4886566986" lon="18.090885859">
        <ele>27.6</ele>
        <time>2013-03-14T20:18:49Z</time>
      </trkpt>
      <trkpt lat="59.4888690121" lon="18.0909845139">
        <ele>27.6</ele>
        <time>2013-03-14T20:18:55Z</time>
      </trkpt>
      <trkpt lat="59.4890263404" lon="18.0911174509">
        <ele>27.6</ele>
        <time>2013-03-14T20:19:00Z</time>
      </trkpt>
      <trkpt lat="59.489169587" lon="18.091279473">
        <ele>27.6</ele>
        <time>2013-03-14T20:19:04Z</time>
      </trkpt>
      <trkpt lat="59.4892416714" lon="18.0913585981">
        <ele>27.6</ele>
        <time>2013-03-14T20:19:06Z</time>
      </trkpt>
      <trkpt lat="59.4894444295" lon="18.0916387212">
        <ele>27.6</ele>
        <time>2013-03-14T20:19:12Z</time>
      </trkpt>
      <trkpt lat="59.4895954714" lon="18.0920136436">
        <ele>27.6</ele>
        <time>2013-03-14T20:19:18Z</time>
      </trkpt>
      <trkpt lat="59.489750788" lon="18.0925162224">
        <ele>27.6</ele>
        <time>2013-03-14T20:19:25Z</time>
      </trkpt>
      <trkpt lat="59.4899072781" lon="18.0929240856">
        <ele>27.6</ele>
        <time>2013-03-14T20:19:31Z</time>
      </trkpt>
      <trkpt lat="59.4900992236" lon="18.0931914682">
        <ele>27.6</ele>
        <time>2013-03-14T20:19:37Z</time>
      </trkpt>
      <trkpt lat="59.490206931" lon="18.0933189569">
        <ele>27.6</ele>
        <time>2013-03-14T20:19:40Z</time>
      </trkpt>
      <trkpt lat="59.4902630059" lon="18.0934261614">
        <ele>27.6</ele>
        <time>2013-03-14T20:19:42Z</time>
      </trkpt>
      <trkpt lat="59.4903310669" lon="18.0936080486">
        <ele>27.6</ele>
        <time>2013-03-14T20:19:45Z</time>
      </trkpt>
      <trkpt lat="59.4904257824" lon="18.0938491959">
        <ele>27.6</ele>
        <time>2013-03-14T20:19:49Z</time>
      </trkpt>
      <trkpt lat="59.4904575498" lon="18.0938977271">
        <ele>27.6</ele>
        <time>2013-03-14T20:19:50Z</time>
      </trkpt>
      <trkpt lat="59.4905698672" lon="18.0939725775">
        <ele>27.6</ele>
        <time>2013-03-14T20:19:53Z</time>
      </trkpt>
      <trkpt lat="59.4907141197" lon="18.0939059414">
        <ele>27.6</ele>
        <time>2013-03-14T20:19:57Z</time>
      </trkpt>
      <trkpt lat="59.4907460548" lon="18.0938720785">
        <ele>27.6</ele>
        <time>2013-03-14T20:19:58Z</time>
      </trkpt>
      <trkpt lat="59.4908970966" lon="18.0937807996">
        <ele>27.6</ele>
        <time>2013-03-14T20:20:02Z</time>
      </trkpt>
      <trkpt lat="59.4909364916" lon="18.0937683106">
        <ele>27.6</ele>
        <time>2013-03-14T20:20:03Z</time>
      </trkpt>
      <trkpt lat="59.4911596177" lon="18.093685665">
        <ele>27.6</ele>
        <time>2013-03-14T20:20:09Z</time>
      </trkpt>
      <trkpt lat="59.4913703387" lon="18.0936172687">
        <ele>27.6</ele>
        <time>2013-03-14T20:20:15Z</time>
      </trkpt>
      <trkpt lat="59.4915280022" lon="18.0934933004">
        <ele>27.6</ele>
        <time>2013-03-14T20:20:20Z</time>
      </trkpt>
      <trkpt lat="59.4916828159" lon="18.0933672367">
        <ele>27.6</ele>
        <time>2013-03-14T20:20:25Z</time>
      </trkpt>
      <trkpt lat="59.4918514598" lon="18.0933246566">
        <ele>27.6</ele>
        <time>2013-03-14T20:20:30Z</time>
      </trkpt>
      <trkpt lat="59.4918871667" lon="18.0933278417">
        <ele>28</ele>
        <time>2013-03-14T20:20:31Z</time>
      </trkpt>
      <trkpt lat="59.4919276512" lon="18.0933422586">
        <ele>28.4</ele>
        <time>2013-03-14T20:20:32Z</time>
      </trkpt>
      <trkpt lat="59.4919630228" lon="18.0933686616">
        <ele>28.8</ele>
        <time>2013-03-14T20:20:33Z</time>
      </trkpt>
      <trkpt lat="59.4919979754" lon="18.0934054581">
        <ele>29.2</ele>
        <time>2013-03-14T20:20:34Z</time>
      </trkpt>
      <trkpt lat="59.4920224505" lon="18.0934470323">
        <ele>29.6</ele>
        <time>2013-03-14T20:20:35Z</time>
      </trkpt>
      <trkpt lat="59.4920836384" lon="18.0936248963">
        <ele>29.6</ele>
        <time>2013-03-14T20:20:38Z</time>
      </trkpt>
      <trkpt lat="59.4922461634" lon="18.0939469289">
        <ele>29.6</ele>
        <time>2013-03-14T20:20:44Z</time>
      </trkpt>
      <trkpt lat="59.4924341694" lon="18.0941395449">
        <ele>29.6</ele>
        <time>2013-03-14T20:20:50Z</time>
      </trkpt>
      <trkpt lat="59.4926634982" lon="18.094362252">
        <ele>29.6</ele>
        <time>2013-03-14T20:20:57Z</time>
      </trkpt>
      <trkpt lat="59.492929875" lon="18.0946319816">
        <ele>29.6</ele>
        <time>2013-03-14T20:21:05Z</time>
      </trkpt>
      <trkpt lat="59.4930812521" lon="18.0947644994">
        <ele>29.6</ele>
        <time>2013-03-14T20:21:10Z</time>
      </trkpt>
      <trkpt lat="59.4932483872" lon="18.0947886393">
        <ele>29.6</ele>
        <time>2013-03-14T20:21:15Z</time>
      </trkpt>
      <trkpt lat="59.493468915" lon="18.094702641">
        <ele>29.6</ele>
        <time>2013-03-14T20:21:21Z</time>
      </trkpt>
      <trkpt lat="59.4937336992" lon="18.0947194048">
        <ele>29.6</ele>
        <time>2013-03-14T20:21:28Z</time>
      </trkpt>
      <trkpt lat="59.4939579989" lon="18.0947453887">
        <ele>29.6</ele>
        <time>2013-03-14T20:21:34Z</time>
      </trkpt>
      <trkpt lat="59.4941323424" lon="18.0947049879">
        <ele>29.6</ele>
        <time>2013-03-14T20:21:39Z</time>
      </trkpt>
      <trkpt lat="59.4942977173" lon="18.0945743979">
        <ele>29.6</ele>
        <time>2013-03-14T20:21:44Z</time>
      </trkpt>
      <trkpt lat="59.4944308218" lon="18.0943411296">
        <ele>29.6</ele>
        <time>2013-03-14T20:21:49Z</time>
      </trkpt>
      <trkpt lat="59.4945026547" lon="18.0939572386">
        <ele>29.6</ele>
        <time>2013-03-14T20:21:54Z</time>
      </trkpt>
      <trkpt lat="59.494510869" lon="18.093867217">
        <ele>29.6</ele>
        <time>2013-03-14T20:21:55Z</time>
      </trkpt>
      <trkpt lat="59.494518748" lon="18.0936929573">
        <ele>29.6</ele>
        <time>2013-03-14T20:21:57Z</time>
      </trkpt>
      <trkpt lat="59.4945123777" lon="18.0935066277">
        <ele>29.6</ele>
        <time>2013-03-14T20:21:59Z</time>
      </trkpt>
      <trkpt lat="59.4945061751" lon="18.093418953">
        <ele>29.6</ele>
        <time>2013-03-14T20:22:00Z</time>
      </trkpt>
      <trkpt lat="59.4944855557" lon="18.0932545001">
        <ele>29.6</ele>
        <time>2013-03-14T20:22:02Z</time>
      </trkpt>
      <trkpt lat="59.4944468313" lon="18.093095244">
        <ele>29.6</ele>
        <time>2013-03-14T20:22:04Z</time>
      </trkpt>
      <trkpt lat="59.4943984677" lon="18.0929623071">
        <ele>29.6</ele>
        <time>2013-03-14T20:22:06Z</time>
      </trkpt>
      <trkpt lat="59.4943167442" lon="18.0928001173">
        <ele>29.6</ele>
        <time>2013-03-14T20:22:09Z</time>
      </trkpt>
      <trkpt lat="59.4941585777" lon="18.0925982812">
        <ele>29.6</ele>
        <time>2013-03-14T20:22:14Z</time>
      </trkpt>
      <trkpt lat="59.4939118984" lon="18.0923287192">
        <ele>29.6</ele>
        <time>2013-03-14T20:22:21Z</time>
      </trkpt>
      <trkpt lat="59.4938408199" lon="18.092252444">
        <ele>29.6</ele>
        <time>2013-03-14T20:22:23Z</time>
      </trkpt>
      <trkpt lat="59.493693969" lon="18.0921105384">
        <ele>29.6</ele>
        <time>2013-03-14T20:22:27Z</time>
      </trkpt>
      <trkpt lat="59.4934831642" lon="18.0919227">
        <ele>29.6</ele>
        <time>2013-03-14T20:22:33Z</time>
      </trkpt>
      <trkpt lat="59.4933748701" lon="18.0918261405">
        <ele>29.6</ele>
        <time>2013-03-14T20:22:36Z</time>
      </trkpt>
      <trkpt lat="59.4932760475" lon="18.0917297487">
        <ele>29.6</ele>
        <time>2013-03-14T20:22:39Z</time>
      </trkpt>
      <trkpt lat="59.4931131033" lon="18.0915623621">
        <ele>29.6</ele>
        <time>2013-03-14T20:22:44Z</time>
      </trkpt>
      <trkpt lat="59.4930794919" lon="18.0915186086">
        <ele>30</ele>
        <time>2013-03-14T20:22:45Z</time>
      </trkpt>
      <trkpt lat="59.4930468025" lon="18.0914792137">
        <ele>30.4</ele>
        <time>2013-03-14T20:22:46Z</time>
      </trkpt>
      <trkpt lat="59.4930217406" lon="18.0914349573">
        <ele>30.8</ele>
        <time>2013-03-14T20:22:47Z</time>
      </trkpt>
      <trkpt lat="59.493003049" lon="18.0913969034">
        <ele>31.2</ele>
        <time>2013-03-14T20:22:48Z</time>
      </trkpt>
      <trkpt lat="59.4929782386" lon="18.0913443489">
        <ele>31.6</ele>
        <time>2013-03-14T20:22:49Z</time>
      </trkpt>
      <trkpt lat="59.492916464" lon="18.0911825782">
        <ele>31.6</ele>
        <time>2013-03-14T20:22:52Z</time>
      </trkpt>
      <trkpt lat="59.4928711179" lon="18.0908473022">
        <ele>31.6</ele>
        <time>2013-03-14T20:22:57Z</time>
      </trkpt>
      <trkpt lat="59.4928873788" lon="18.090416724">
        <ele>31.6</ele>
        <time>2013-03-14T20:23:02Z</time>
      </trkpt>
      <trkpt lat="59.4930011212" lon="18.0900267981">
        <ele>31.6</ele>
        <time>2013-03-14T20:23:07Z</time>
      </trkpt>
      <trkpt lat="59.4931723634" lon="18.0898584895">
        <ele>31.6</ele>
        <time>2013-03-14T20:23:11Z</time>
      </trkpt>
      <trkpt lat="59.4933228185" lon="18.0898385406">
        <ele>31.6</ele>
        <time>2013-03-14T20:23:14Z</time>
      </trkpt>
      <trkpt lat="59.4933750377" lon="18.0898388759">
        <ele>31.6</ele>
        <time>2013-03-14T20:23:15Z</time>
      </trkpt>
      <trkpt lat="59.4936272491" lon="18.0898076952">
        <ele>31.6</ele>
        <time>2013-03-14T20:23:20Z</time>
      </trkpt>
      <trkpt lat="59.4936720923" lon="18.0897972178">
        <ele>31.6</ele>
        <time>2013-03-14T20:23:21Z</time>
      </trkpt>
      <trkpt lat="59.4939181848" lon="18.0897724912">
        <ele>31.6</ele>
        <time>2013-03-14T20:23:26Z</time>
      </trkpt>
      <trkpt lat="59.4940667121" lon="18.0897738323">
        <ele>31.6</ele>
        <time>2013-03-14T20:23:29Z</time>
      </trkpt>
      <trkpt lat="59.494206606" lon="18.0897796158">
        <ele>31.2</ele>
        <time>2013-03-14T20:23:32Z</time>
      </trkpt>
      <trkpt lat="59.4942472582" lon="18.089777688">
        <ele>30.8</ele>
        <time>2013-03-14T20:23:33Z</time>
      </trkpt>
      <trkpt lat="59.4942920176" lon="18.0897754249">
        <ele>30.4</ele>
        <time>2013-03-14T20:23:34Z</time>
      </trkpt>
      <trkpt lat="59.4943444045" lon="18.0897746705">
        <ele>30</ele>
        <time>2013-03-14T20:23:35Z</time>
      </trkpt>
      <trkpt lat="59.494390924" lon="18.0897739999">
        <ele>29.6</ele>
        <time>2013-03-14T20:23:36Z</time>
      </trkpt>
      <trkpt lat="59.4944255412" lon="18.0897705634">
        <ele>29.6</ele>
        <time>2013-03-14T20:23:37Z</time>
      </trkpt>
      <trkpt lat="59.4945969511" lon="18.0897999838">
        <ele>29.6</ele>
        <time>2013-03-14T20:23:41Z</time>
      </trkpt>
      <trkpt lat="59.4946819436" lon="18.0898405522">
        <ele>29.6</ele>
        <time>2013-03-14T20:23:43Z</time>
      </trkpt>
      <trkpt lat="59.4947976976" lon="18.0899428952">
        <ele>29.6</ele>
        <time>2013-03-14T20:23:46Z</time>
      </trkpt>
      <trkpt lat="59.4948334045" lon="18.0899862297">
        <ele>29.6</ele>
        <time>2013-03-14T20:23:47Z</time>
      </trkpt>
      <trkpt lat="59.4949043992" lon="18.0900889079">
        <ele>29.6</ele>
        <time>2013-03-14T20:23:49Z</time>
      </trkpt>
      <trkpt lat="59.494962821" lon="18.0902321546">
        <ele>29.6</ele>
        <time>2013-03-14T20:23:51Z</time>
      </trkpt>
      <trkpt lat="59.4949877153" lon="18.0903096872">
        <ele>29.6</ele>
        <time>2013-03-14T20:23:52Z</time>
      </trkpt>
      <trkpt lat="59.4950481488" lon="18.0905515888">
        <ele>29.6</ele>
        <time>2013-03-14T20:23:55Z</time>
      </trkpt>
      <trkpt lat="59.4950608054" lon="18.0906412751">
        <ele>29.6</ele>
        <time>2013-03-14T20:23:56Z</time>
      </trkpt>
      <trkpt lat="59.495087879" lon="18.0909887049">
        <ele>29.6</ele>
        <time>2013-03-14T20:24:00Z</time>
      </trkpt>
      <trkpt lat="59.4950893039" lon="18.0911711789">
        <ele>29.6</ele>
        <time>2013-03-14T20:24:02Z</time>
      </trkpt>
      <trkpt lat="59.4950913156" lon="18.0913441813">
        <ele>29.6</ele>
        <time>2013-03-14T20:24:04Z</time>
      </trkpt>
      <trkpt lat="59.4950867055" lon="18.0916796249">
        <ele>29.6</ele>
        <time>2013-03-14T20:24:08Z</time>
      </trkpt>
      <trkpt lat="59.4950907288" lon="18.0920609175">
        <ele>29.6</ele>
        <time>2013-03-14T20:24:13Z</time>
      </trkpt>
      <trkpt lat="59.4951808343" lon="18.0923884822">
        <ele>29.6</ele>
        <time>2013-03-14T20:24:18Z</time>
      </trkpt>
      <trkpt lat="59.4953758811" lon="18.0928773146">
        <ele>29.6</ele>
        <time>2013-03-14T20:24:26Z</time>
      </trkpt>
      <trkpt lat="59.4954096601" lon="18.0930400073">
        <ele>29.6</ele>
        <time>2013-03-14T20:24:28Z</time>
      </trkpt>
      <trkpt lat="59.4954264239" lon="18.0932993433">
        <ele>29.6</ele>
        <time>2013-03-14T20:24:31Z</time>
      </trkpt>
      <trkpt lat="59.4953613804" lon="18.0935844955">
        <ele>29.6</ele>
        <time>2013-03-14T20:24:35Z</time>
      </trkpt>
      <trkpt lat="59.4952028787" lon="18.0937566597">
        <ele>29.6</ele>
        <time>2013-03-14T20:24:39Z</time>
      </trkpt>
      <trkpt lat="59.4951732905" lon="18.0938073702">
        <ele>29.6</ele>
        <time>2013-03-14T20:24:40Z</time>
      </trkpt>
      <trkpt lat="59.4949529304" lon="18.094139042">
        <ele>29.6</ele>
        <time>2013-03-14T20:24:47Z</time>
      </trkpt>
      <trkpt lat="59.4947370965" lon="18.094441461">
        <ele>29.6</ele>
        <time>2013-03-14T20:24:54Z</time>
      </trkpt>
      <trkpt lat="59.4945278842" lon="18.094635921">
        <ele>29.6</ele>
        <time>2013-03-14T20:25:00Z</time>
      </trkpt>
      <trkpt lat="59.4944587336" lon="18.0947147109">
        <ele>29.6</ele>
        <time>2013-03-14T20:25:02Z</time>
      </trkpt>
      <trkpt lat="59.494370556" lon="18.0948694408">
        <ele>29.6</ele>
        <time>2013-03-14T20:25:05Z</time>
      </trkpt>
      <trkpt lat="59.4941660376" lon="18.095064739">
        <ele>29.6</ele>
        <time>2013-03-14T20:25:11Z</time>
      </trkpt>
      <trkpt lat="59.4940581626" lon="18.0951736199">
        <ele>29.6</ele>
        <time>2013-03-14T20:25:14Z</time>
      </trkpt>
      <trkpt lat="59.4939765229" lon="18.095345868">
        <ele>29.6</ele>
        <time>2013-03-14T20:25:17Z</time>
      </trkpt>
      <trkpt lat="59.4939403969" lon="18.0954856781">
        <ele>29.6</ele>
        <time>2013-03-14T20:25:19Z</time>
      </trkpt>
      <trkpt lat="59.4939142453" lon="18.0957126599">
        <ele>29.6</ele>
        <time>2013-03-14T20:25:22Z</time>
      </trkpt>
      <trkpt lat="59.4939155026" lon="18.0961019992">
        <ele>29.6</ele>
        <time>2013-03-14T20:25:27Z</time>
      </trkpt>
      <trkpt lat="59.4939076236" lon="18.0961926913">
        <ele>29.6</ele>
        <time>2013-03-14T20:25:28Z</time>
      </trkpt>
      <trkpt lat="59.4938664685" lon="18.0964060107">
        <ele>29.6</ele>
        <time>2013-03-14T20:25:31Z</time>
      </trkpt>
      <trkpt lat="59.493731017" lon="18.0966668554">
        <ele>29.6</ele>
        <time>2013-03-14T20:25:36Z</time>
      </trkpt>
      <trkpt lat="59.4935264148" lon="18.096981931">
        <ele>29.6</ele>
        <time>2013-03-14T20:25:42Z</time>
      </trkpt>
      <trkpt lat="59.4934159414" lon="18.0973970865">
        <ele>29.6</ele>
        <time>2013-03-14T20:25:47Z</time>
      </trkpt>
      <trkpt lat="59.4934283466" lon="18.0977004275">
        <ele>29.6</ele>
        <time>2013-03-14T20:25:51Z</time>
      </trkpt>
      <trkpt lat="59.4934620418" lon="18.0977746911">
        <ele>29.6</ele>
        <time>2013-03-14T20:25:52Z</time>
      </trkpt>
      <trkpt lat="59.4935981639" lon="18.0979440893">
        <ele>29.6</ele>
        <time>2013-03-14T20:25:55Z</time>
      </trkpt>
      <trkpt lat="59.4937090564" lon="18.0980039361">
        <ele>29.2</ele>
        <time>2013-03-14T20:25:57Z</time>
      </trkpt>
      <trkpt lat="59.4937702443" lon="18.0980135753">
        <ele>28.8</ele>
        <time>2013-03-14T20:25:58Z</time>
      </trkpt>
      <trkpt lat="59.4938222121" lon="18.0980114798">
        <ele>28.4</ele>
        <time>2013-03-14T20:25:59Z</time>
      </trkpt>
      <trkpt lat="59.4938754372" lon="18.0980072889">
        <ele>28</ele>
        <time>2013-03-14T20:26:00Z</time>
      </trkpt>
      <trkpt lat="59.4939274887" lon="18.0979953866">
        <ele>27.6</ele>
        <time>2013-03-14T20:26:01Z</time>
      </trkpt>
      <trkpt lat="59.4941062747" lon="18.0979473583">
        <ele>27.6</ele>
        <time>2013-03-14T20:26:05Z</time>
      </trkpt>
      <trkpt lat="59.4942995613" lon="18.0979014255">
        <ele>27.6</ele>
        <time>2013-03-14T20:26:10Z</time>
      </trkpt>
      <trkpt lat="59.494483544" lon="18.097955824">
        <ele>27.6</ele>
        <time>2013-03-14T20:26:15Z</time>
      </trkpt>
      <trkpt lat="59.4946059197" lon="18.098141986">
        <ele>27.6</ele>
        <time>2013-03-14T20:26:19Z</time>
      </trkpt>
      <trkpt lat="59.4946565464" lon="18.0983608374">
        <ele>27.6</ele>
        <time>2013-03-14T20:26:22Z</time>
      </trkpt>
      <trkpt lat="59.4946624976" lon="18.0984428124">
        <ele>27.6</ele>
        <time>2013-03-14T20:26:23Z</time>
      </trkpt>
      <trkpt lat="59.4946225159" lon="18.0987318203">
        <ele>27.6</ele>
        <time>2013-03-14T20:26:27Z</time>
      </trkpt>
      <trkpt lat="59.4944729828" lon="18.0988629132">
        <ele>27.6</ele>
        <time>2013-03-14T20:26:31Z</time>
      </trkpt>
      <trkpt lat="59.4943180853" lon="18.0988375161">
        <ele>27.6</ele>
        <time>2013-03-14T20:26:35Z</time>
      </trkpt>
      <trkpt lat="59.4942696379" lon="18.0988236021">
        <ele>27.6</ele>
        <time>2013-03-14T20:26:36Z</time>
      </trkpt>
      <trkpt lat="59.4940948753" lon="18.0987514339">
        <ele>27.6</ele>
        <time>2013-03-14T20:26:41Z</time>
      </trkpt>
      <trkpt lat="59.4938797957" lon="18.098687983">
        <ele>27.6</ele>
        <time>2013-03-14T20:26:47Z</time>
      </trkpt>
      <trkpt lat="59.4936128322" lon="18.0985784315">
        <ele>27.6</ele>
        <time>2013-03-14T20:26:54Z</time>
      </trkpt>
      <trkpt lat="59.4934466191" lon="18.0984127214">
        <ele>27.6</ele>
        <time>2013-03-14T20:26:59Z</time>
      </trkpt>
      <trkpt lat="59.4933890355" lon="18.0982961291">
        <ele>27.6</ele>
        <time>2013-03-14T20:27:01Z</time>
      </trkpt>
      <trkpt lat="59.4933426836" lon="18.098180878">
        <ele>27.6</ele>
        <time>2013-03-14T20:27:03Z</time>
      </trkpt>
      <trkpt lat="59.4933241596" lon="18.0981156668">
        <ele>27.6</ele>
        <time>2013-03-14T20:27:04Z</time>
      </trkpt>
      <trkpt lat="59.4932612115" lon="18.0976827417">
        <ele>27.6</ele>
        <time>2013-03-14T20:27:10Z</time>
      </trkpt>
      <trkpt lat="59.4932005266" lon="18.0970687675">
        <ele>27.6</ele>
        <time>2013-03-14T20:27:18Z</time>
      </trkpt>
      <trkpt lat="59.493082677" lon="18.0967965234">
        <ele>27.6</ele>
        <time>2013-03-14T20:27:23Z</time>
      </trkpt>
      <trkpt lat="59.4930636501" lon="18.0964990498">
        <ele>27.6</ele>
        <time>2013-03-14T20:27:27Z</time>
      </trkpt>
      <trkpt lat="59.4931064816" lon="18.096366951">
        <ele>28</ele>
        <time>2013-03-14T20:27:29Z</time>
      </trkpt>
      <trkpt lat="59.4931377461" lon="18.0963208506">
        <ele>28.4</ele>
        <time>2013-03-14T20:27:30Z</time>
      </trkpt>
      <trkpt lat="59.4931745427" lon="18.0962860657">
        <ele>28.8</ele>
        <time>2013-03-14T20:27:31Z</time>
      </trkpt>
      <trkpt lat="59.4932146082" lon="18.0962628478">
        <ele>29.2</ele>
        <time>2013-03-14T20:27:32Z</time>
      </trkpt>
      <trkpt lat="59.4932576073" lon="18.0962454135">
        <ele>29.6</ele>
        <time>2013-03-14T20:27:33Z</time>
      </trkpt>
      <trkpt lat="59.4932959126" lon="18.0962237882">
        <ele>29.6</ele>
        <time>2013-03-14T20:27:34Z</time>
      </trkpt>
      <trkpt lat="59.4934790571" lon="18.0960293281">
        <ele>29.6</ele>
        <time>2013-03-14T20:27:39Z</time>
      </trkpt>
      <trkpt lat="59.4935306058" lon="18.0957586765">
        <ele>29.6</ele>
        <time>2013-03-14T20:27:43Z</time>
      </trkpt>
      <trkpt lat="59.4934820746" lon="18.0954182038">
        <ele>29.6</ele>
        <time>2013-03-14T20:27:48Z</time>
      </trkpt>
      <trkpt lat="59.4933374868" lon="18.0951977598">
        <ele>29.6</ele>
        <time>2013-03-14T20:27:53Z</time>
      </trkpt>
      <trkpt lat="59.4931597905" lon="18.0951155334">
        <ele>29.6</ele>
        <time>2013-03-14T20:27:58Z</time>
      </trkpt>
      <trkpt lat="59.4929613071" lon="18.0950955006">
        <ele>29.6</ele>
        <time>2013-03-14T20:28:03Z</time>
      </trkpt>
      <trkpt lat="59.4927061621" lon="18.0950477238">
        <ele>29.6</ele>
        <time>2013-03-14T20:28:09Z</time>
      </trkpt>
      <trkpt lat="59.4924537831" lon="18.0948885515">
        <ele>29.6</ele>
        <time>2013-03-14T20:28:15Z</time>
      </trkpt>
      <trkpt lat="59.4921983866" lon="18.0946702868">
        <ele>29.6</ele>
        <time>2013-03-14T20:28:21Z</time>
      </trkpt>
      <trkpt lat="59.4919655374" lon="18.0944595659">
        <ele>29.6</ele>
        <time>2013-03-14T20:28:27Z</time>
      </trkpt>
      <trkpt lat="59.4919278189" lon="18.0944350907">
        <ele>29.6</ele>
        <time>2013-03-14T20:28:28Z</time>
      </trkpt>
      <trkpt lat="59.4917137451" lon="18.0943656048">
        <ele>29.6</ele>
        <time>2013-03-14T20:28:33Z</time>
      </trkpt>
      <trkpt lat="59.4914963187" lon="18.0944202548">
        <ele>29.2</ele>
        <time>2013-03-14T20:28:38Z</time>
      </trkpt>
      <trkpt lat="59.4914544092" lon="18.0944577218">
        <ele>28.8</ele>
        <time>2013-03-14T20:28:39Z</time>
      </trkpt>
      <trkpt lat="59.491418367" lon="18.0945086838">
        <ele>28</ele>
        <time>2013-03-14T20:28:40Z</time>
      </trkpt>
      <trkpt lat="59.4913829115" lon="18.0945671056">
        <ele>27.6</ele>
        <time>2013-03-14T20:28:41Z</time>
      </trkpt>
      <trkpt lat="59.4913198797" lon="18.094718818">
        <ele>27.6</ele>
        <time>2013-03-14T20:28:43Z</time>
      </trkpt>
      <trkpt lat="59.4912953207" lon="18.0947933331">
        <ele>27.6</ele>
        <time>2013-03-14T20:28:44Z</time>
      </trkpt>
      <trkpt lat="59.4912767129" lon="18.094878158">
        <ele>27.6</ele>
        <time>2013-03-14T20:28:45Z</time>
      </trkpt>
      <trkpt lat="59.4912542494" lon="18.0950656611">
        <ele>27.6</ele>
        <time>2013-03-14T20:28:47Z</time>
      </trkpt>
      <trkpt lat="59.4912939796" lon="18.0953681638">
        <ele>27.6</ele>
        <time>2013-03-14T20:28:51Z</time>
      </trkpt>
      <trkpt lat="59.4914307722" lon="18.0955756997">
        <ele>27.6</ele>
        <time>2013-03-14T20:28:55Z</time>
      </trkpt>
      <trkpt lat="59.4915028565" lon="18.0956427549">
        <ele>27.6</ele>
        <time>2013-03-14T20:28:57Z</time>
      </trkpt>
      <trkpt lat="59.4916286689" lon="18.095742248">
        <ele>27.6</ele>
        <time>2013-03-14T20:29:00Z</time>
      </trkpt>
      <trkpt lat="59.4918502863" lon="18.0959178488">
        <ele>27.6</ele>
        <time>2013-03-14T20:29:05Z</time>
      </trkpt>
      <trkpt lat="59.492062516" lon="18.0961901768">
        <ele>27.6</ele>
        <time>2013-03-14T20:29:11Z</time>
      </trkpt>
      <trkpt lat="59.4922882406" lon="18.0966662687">
        <ele>27.6</ele>
        <time>2013-03-14T20:29:19Z</time>
      </trkpt>
      <trkpt lat="59.4924677809" lon="18.097063906">
        <ele>27.6</ele>
        <time>2013-03-14T20:29:26Z</time>
      </trkpt>
      <trkpt lat="59.4926857941" lon="18.0975073923">
        <ele>27.6</ele>
        <time>2013-03-14T20:29:34Z</time>
      </trkpt>
      <trkpt lat="59.4929530929" lon="18.0978807222">
        <ele>27.6</ele>
        <time>2013-03-14T20:29:42Z</time>
      </trkpt>
      <trkpt lat="59.4931443678" lon="18.0981854042">
        <ele>27.6</ele>
        <time>2013-03-14T20:29:48Z</time>
      </trkpt>
      <trkpt lat="59.4931686753" lon="18.0982506992">
        <ele>27.6</ele>
        <time>2013-03-14T20:29:49Z</time>
      </trkpt>
      <trkpt lat="59.49321377" lon="18.0985766713">
        <ele>27.6</ele>
        <time>2013-03-14T20:29:53Z</time>
      </trkpt>
      <trkpt lat="59.4931692621" lon="18.0989945929">
        <ele>27.6</ele>
        <time>2013-03-14T20:29:58Z</time>
      </trkpt>
      <trkpt lat="59.4931209823" lon="18.0991272783">
        <ele>27.6</ele>
        <time>2013-03-14T20:30:00Z</time>
      </trkpt>
      <trkpt lat="59.4930255963" lon="18.0992691839">
        <ele>27.6</ele>
        <time>2013-03-14T20:30:03Z</time>
      </trkpt>
      <trkpt lat="59.4928611434" lon="18.099270525">
        <ele>27.6</ele>
        <time>2013-03-14T20:30:07Z</time>
      </trkpt>
      <trkpt lat="59.4926069204" lon="18.0991955908">
        <ele>27.6</ele>
        <time>2013-03-14T20:30:13Z</time>
      </trkpt>
      <trkpt lat="59.4925666035" lon="18.0991919028">
        <ele>27.6</ele>
        <time>2013-03-14T20:30:14Z</time>
      </trkpt>
      <trkpt lat="59.492385303" lon="18.0992254304">
        <ele>27.6</ele>
        <time>2013-03-14T20:30:18Z</time>
      </trkpt>
      <trkpt lat="59.4920961274" lon="18.0992724528">
        <ele>27.6</ele>
        <time>2013-03-14T20:30:25Z</time>
      </trkpt>
      <trkpt lat="59.4918951295" lon="18.099253845">
        <ele>27.6</ele>
        <time>2013-03-14T20:30:30Z</time>
      </trkpt>
      <trkpt lat="59.4918010007" lon="18.099234399">
        <ele>27.6</ele>
        <time>2013-03-14T20:30:32Z</time>
      </trkpt>
      <trkpt lat="59.4915284213" lon="18.0991828503">
        <ele>27.6</ele>
        <time>2013-03-14T20:30:38Z</time>
      </trkpt>
      <trkpt lat="59.4913171136" lon="18.0991196508">
        <ele>27.6</ele>
        <time>2013-03-14T20:30:43Z</time>
      </trkpt>
      <trkpt lat="59.4910804088" lon="18.0989904857">
        <ele>27.6</ele>
        <time>2013-03-14T20:30:49Z</time>
      </trkpt>
      <trkpt lat="59.4910426902" lon="18.0989515099">
        <ele>27.6</ele>
        <time>2013-03-14T20:30:50Z</time>
      </trkpt>
      <trkpt lat="59.4908939953" lon="18.0987843748">
        <ele>27.6</ele>
        <time>2013-03-14T20:30:54Z</time>
      </trkpt>
      <trkpt lat="59.490763573" lon="18.0985223566">
        <ele>27.6</ele>
        <time>2013-03-14T20:30:59Z</time>
      </trkpt>
      <trkpt lat="59.4906678517" lon="18.0981648686">
        <ele>27.6</ele>
        <time>2013-03-14T20:31:04Z</time>
      </trkpt>
      <trkpt lat="59.4905849547" lon="18.0977093961">
        <ele>27.6</ele>
        <time>2013-03-14T20:31:10Z</time>
      </trkpt>
      <trkpt lat="59.4905726333" lon="18.0976334561">
        <ele>27.6</ele>
        <time>2013-03-14T20:31:11Z</time>
      </trkpt>
      <trkpt lat="59.4905251079" lon="18.0971833481">
        <ele>27.6</ele>
        <time>2013-03-14T20:31:17Z</time>
      </trkpt>
      <trkpt lat="59.4904826955" lon="18.0967093516">
        <ele>27.6</ele>
        <time>2013-03-14T20:31:23Z</time>
      </trkpt>
      <trkpt lat="59.4904275426" lon="18.0961461718">
        <ele>27.6</ele>
        <time>2013-03-14T20:31:30Z</time>
      </trkpt>
      <trkpt lat="59.4904246089" lon="18.0957576707">
        <ele>27.6</ele>
        <time>2013-03-14T20:31:35Z</time>
      </trkpt>
      <trkpt lat="59.4904339966" lon="18.0956785456">
        <ele>27.6</ele>
        <time>2013-03-14T20:31:36Z</time>
      </trkpt>
      <trkpt lat="59.4904654288" lon="18.095521385">
        <ele>27.6</ele>
        <time>2013-03-14T20:31:38Z</time>
      </trkpt>
      <trkpt lat="59.4905267005" lon="18.0952151103">
        <ele>27.6</ele>
        <time>2013-03-14T20:31:42Z</time>
      </trkpt>
      <trkpt lat="59.490537094" lon="18.0951275195">
        <ele>27.6</ele>
        <time>2013-03-14T20:31:43Z</time>
      </trkpt>
      <trkpt lat="59.4905241859" lon="18.0948277827">
        <ele>27.6</ele>
        <time>2013-03-14T20:31:47Z</time>
      </trkpt>
      <trkpt lat="59.4904255309" lon="18.0945231007">
        <ele>27.6</ele>
        <time>2013-03-14T20:31:52Z</time>
      </trkpt>
      <trkpt lat="59.4903998823" lon="18.0944609908">
        <ele>27.6</ele>
        <time>2013-03-14T20:31:53Z</time>
      </trkpt>
      <trkpt lat="59.4901916759" lon="18.0941814544">
        <ele>27.6</ele>
        <time>2013-03-14T20:31:59Z</time>
      </trkpt>
      <trkpt lat="59.4899903427" lon="18.0941245413">
        <ele>27.6</ele>
        <time>2013-03-14T20:32:04Z</time>
      </trkpt>
      <trkpt lat="59.4898798692" lon="18.0941790237">
        <ele>27.6</ele>
        <time>2013-03-14T20:32:07Z</time>
      </trkpt>
      <trkpt lat="59.4898094613" lon="18.0942475038">
        <ele>27.6</ele>
        <time>2013-03-14T20:32:09Z</time>
      </trkpt>
      <trkpt lat="59.4897408135" lon="18.0943394532">
        <ele>27.6</ele>
        <time>2013-03-14T20:32:11Z</time>
      </trkpt>
      <trkpt lat="59.4896507919" lon="18.0945086838">
        <ele>27.6</ele>
        <time>2013-03-14T20:32:14Z</time>
      </trkpt>
      <trkpt lat="59.4894285877" lon="18.0948763978">
        <ele>27.6</ele>
        <time>2013-03-14T20:32:20Z</time>
      </trkpt>
      <trkpt lat="59.4892147655" lon="18.0950966741">
        <ele>27.6</ele>
        <time>2013-03-14T20:32:25Z</time>
      </trkpt>
      <trkpt lat="59.4889694273" lon="18.0953216443">
        <ele>27.6</ele>
        <time>2013-03-14T20:32:31Z</time>
      </trkpt>
      <trkpt lat="59.4887766436" lon="18.0954545812">
        <ele>27.6</ele>
        <time>2013-03-14T20:32:36Z</time>
      </trkpt>
      <trkpt lat="59.4886518371" lon="18.0954629631">
        <ele>27.6</ele>
        <time>2013-03-14T20:32:39Z</time>
      </trkpt>
      <trkpt lat="59.4885721252" lon="18.0954263342">
        <ele>27.6</ele>
        <time>2013-03-14T20:32:41Z</time>
      </trkpt>
      <trkpt lat="59.4883472388" lon="18.0952678325">
        <ele>27.6</ele>
        <time>2013-03-14T20:32:47Z</time>
      </trkpt>
      <trkpt lat="59.4881186644" lon="18.0951017032">
        <ele>27.6</ele>
        <time>2013-03-14T20:32:53Z</time>
      </trkpt>
      <trkpt lat="59.4880445684" lon="18.0950618054">
        <ele>27.6</ele>
        <time>2013-03-14T20:32:55Z</time>
      </trkpt>
      <trkpt lat="59.4879178341" lon="18.0949929062">
        <ele>27.6</ele>
        <time>2013-03-14T20:32:58Z</time>
      </trkpt>
      <trkpt lat="59.4877491903" lon="18.0948690217">
        <ele>27.6</ele>
        <time>2013-03-14T20:33:02Z</time>
      </trkpt>
      <trkpt lat="59.4876236294" lon="18.0947745577">
        <ele>27.6</ele>
        <time>2013-03-14T20:33:05Z</time>
      </trkpt>
      <trkpt lat="59.4875749306" lon="18.094743377">
        <ele>27.6</ele>
        <time>2013-03-14T20:33:06Z</time>
      </trkpt>
      <trkpt lat="59.4874881779" lon="18.0946779144">
        <ele>27.6</ele>
        <time>2013-03-14T20:33:08Z</time>
      </trkpt>
      <trkpt lat="59.4874001679" lon="18.0946372621">
        <ele>27.6</ele>
        <time>2013-03-14T20:33:10Z</time>
      </trkpt>
      <trkpt lat="59.4872273332" lon="18.0945531917">
        <ele>27.6</ele>
        <time>2013-03-14T20:33:14Z</time>
      </trkpt>
      <trkpt lat="59.4871506388" lon="18.0945169819">
        <ele>27.6</ele>
        <time>2013-03-14T20:33:16Z</time>
      </trkpt>
      <trkpt lat="59.4870737768" lon="18.0944462386">
        <ele>27.6</ele>
        <time>2013-03-14T20:33:18Z</time>
      </trkpt>
      <trkpt lat="59.4870365611" lon="18.0944236913">
        <ele>27.6</ele>
        <time>2013-03-14T20:33:19Z</time>
      </trkpt>
      <trkpt lat="59.4868867766" lon="18.094254377">
        <ele>27.6</ele>
        <time>2013-03-14T20:33:23Z</time>
      </trkpt>
      <trkpt lat="59.4868519917" lon="18.0942123836">
        <ele>27.6</ele>
        <time>2013-03-14T20:33:24Z</time>
      </trkpt>
      <trkpt lat="59.48681201" lon="18.0941834661">
        <ele>27.6</ele>
        <time>2013-03-14T20:33:25Z</time>
      </trkpt>
      <trkpt lat="59.4867343936" lon="18.0941111303">
        <ele>27.6</ele>
        <time>2013-03-14T20:33:27Z</time>
      </trkpt>
      <trkpt lat="59.486625848" lon="18.0940125591">
        <ele>27.6</ele>
        <time>2013-03-14T20:33:30Z</time>
      </trkpt>
      <trkpt lat="59.4865955055" lon="18.0939727451">
        <ele>27.6</ele>
        <time>2013-03-14T20:33:31Z</time>
      </trkpt>
      <trkpt lat="59.4865599663" lon="18.093917676">
        <ele>27.6</ele>
        <time>2013-03-14T20:33:32Z</time>
      </trkpt>
      <trkpt lat="59.4864504987" lon="18.093801">
        <ele>27.6</ele>
        <time>2013-03-14T20:33:35Z</time>
      </trkpt>
      <trkpt lat="59.486339187" lon="18.0936347031">
        <ele>27.6</ele>
        <time>2013-03-14T20:33:38Z</time>
      </trkpt>
      <trkpt lat="59.4863015523" lon="18.0935885188">
        <ele>27.6</ele>
        <time>2013-03-14T20:33:39Z</time>
      </trkpt>
      <trkpt lat="59.4862622412" lon="18.0935335336">
        <ele>27.6</ele>
        <time>2013-03-14T20:33:40Z</time>
      </trkpt>
      <trkpt lat="59.4860972854" lon="18.0932933083">
        <ele>27.6</ele>
        <time>2013-03-14T20:33:45Z</time>
      </trkpt>
      <trkpt lat="59.4859979599" lon="18.0931421826">
        <ele>27.6</ele>
        <time>2013-03-14T20:33:48Z</time>
      </trkpt>
      <trkpt lat="59.4859029091" lon="18.0930042166">
        <ele>27.6</ele>
        <time>2013-03-14T20:33:51Z</time>
      </trkpt>
      <trkpt lat="59.4856936969" lon="18.0927639075">
        <ele>27.6</ele>
        <time>2013-03-14T20:33:58Z</time>
      </trkpt>
      <trkpt lat="59.4855093789" lon="18.0926684377">
        <ele>27.6</ele>
        <time>2013-03-14T20:34:03Z</time>
      </trkpt>
      <trkpt lat="59.4853672219" lon="18.0925950122">
        <ele>27.6</ele>
        <time>2013-03-14T20:34:07Z</time>
      </trkpt>
      <trkpt lat="59.4852334468" lon="18.0923434714">
        <ele>27.6</ele>
        <time>2013-03-14T20:34:12Z</time>
      </trkpt>
      <trkpt lat="59.485212492" lon="18.0922687887">
        <ele>27.6</ele>
        <time>2013-03-14T20:34:13Z</time>
      </trkpt>
      <trkpt lat="59.4851546569" lon="18.0919276453">
        <ele>27.6</ele>
        <time>2013-03-14T20:34:17Z</time>
      </trkpt>
      <trkpt lat="59.485103695" lon="18.0914603544">
        <ele>27.6</ele>
        <time>2013-03-14T20:34:22Z</time>
      </trkpt>
      <trkpt lat="59.4850858415" lon="18.0911802313">
        <ele>27.6</ele>
        <time>2013-03-14T20:34:25Z</time>
      </trkpt>
      <trkpt lat="59.4851011804" lon="18.0909774732">
        <ele>27.6</ele>
        <time>2013-03-14T20:34:27Z</time>
      </trkpt>
      <trkpt lat="59.4852053674" lon="18.0905291253">
        <ele>27.6</ele>
        <time>2013-03-14T20:34:32Z</time>
      </trkpt>
      <trkpt lat="59.4852336983" lon="18.0904549455">
        <ele>27.6</ele>
        <time>2013-03-14T20:34:33Z</time>
      </trkpt>
      <trkpt lat="59.4852709139" lon="18.0903833641">
        <ele>27.6</ele>
        <time>2013-03-14T20:34:34Z</time>
      </trkpt>
      <trkpt lat="59.4853930382" lon="18.0902448113">
        <ele>27.6</ele>
        <time>2013-03-14T20:34:37Z</time>
      </trkpt>
      <trkpt lat="59.4855745063" lon="18.090248164">
        <ele>27.6</ele>
        <time>2013-03-14T20:34:41Z</time>
      </trkpt>
      <trkpt lat="59.485715909" lon="18.0904608128">
        <ele>27.6</ele>
        <time>2013-03-14T20:34:45Z</time>
      </trkpt>
      <trkpt lat="59.4857812878" lon="18.0905646646">
        <ele>27.6</ele>
        <time>2013-03-14T20:34:47Z</time>
      </trkpt>
      <trkpt lat="59.4859456568" lon="18.0908328016">
        <ele>27.6</ele>
        <time>2013-03-14T20:34:52Z</time>
      </trkpt>
      <trkpt lat="59.4861730578" lon="18.0911788064">
        <ele>27.6</ele>
        <time>2013-03-14T20:34:59Z</time>
      </trkpt>
      <trkpt lat="59.4862533564" lon="18.0912349651">
        <ele>27.6</ele>
        <time>2013-03-14T20:35:01Z</time>
      </trkpt>
      <trkpt lat="59.4863712897" lon="18.0912432632">
        <ele>27.6</ele>
        <time>2013-03-14T20:35:04Z</time>
      </trkpt>
      <trkpt lat="59.4865186435" lon="18.0910916346">
        <ele>27.6</ele>
        <time>2013-03-14T20:35:08Z</time>
      </trkpt>
      <trkpt lat="59.4865762272" lon="18.0909598712">
        <ele>27.6</ele>
        <time>2013-03-14T20:35:10Z</time>
      </trkpt>
      <trkpt lat="59.4866173823" lon="18.0908218213">
        <ele>27.6</ele>
        <time>2013-03-14T20:35:12Z</time>
      </trkpt>
      <trkpt lat="59.4866380856" lon="18.0907392596">
        <ele>27.6</ele>
        <time>2013-03-14T20:35:13Z</time>
      </trkpt>
      <trkpt lat="59.4866529216" lon="18.0906546024">
        <ele>26.8</ele>
        <time>2013-03-14T20:35:14Z</time>
      </trkpt>
      <trkpt lat="59.4866675061" lon="18.0905669277">
        <ele>26.4</ele>
        <time>2013-03-14T20:35:15Z</time>
      </trkpt>
      <trkpt lat="59.4866780673" lon="18.0904754812">
        <ele>26</ele>
        <time>2013-03-14T20:35:16Z</time>
      </trkpt>
      <trkpt lat="59.4866868683" lon="18.0903911592">
        <ele>25.6</ele>
        <time>2013-03-14T20:35:17Z</time>
      </trkpt>
      <trkpt lat="59.4866899696" lon="18.0903101901">
        <ele>25.6</ele>
        <time>2013-03-14T20:35:18Z</time>
      </trkpt>
      <trkpt lat="59.4866810009" lon="18.0897983913">
        <ele>25.6</ele>
        <time>2013-03-14T20:35:24Z</time>
      </trkpt>
      <trkpt lat="59.4865806696" lon="18.0894432502">
        <ele>25.6</ele>
        <time>2013-03-14T20:35:29Z</time>
      </trkpt>
      <trkpt lat="59.4865108484" lon="18.0893387279">
        <ele>25.6</ele>
        <time>2013-03-14T20:35:31Z</time>
      </trkpt>
      <trkpt lat="59.4863778276" lon="18.0891571759">
        <ele>25.6</ele>
        <time>2013-03-14T20:35:35Z</time>
      </trkpt>
      <trkpt lat="59.4863240996" lon="18.0890415057">
        <ele>25.6</ele>
        <time>2013-03-14T20:35:37Z</time>
      </trkpt>
      <trkpt lat="59.4862616545" lon="18.0888462913">
        <ele>25.6</ele>
        <time>2013-03-14T20:35:40Z</time>
      </trkpt>
      <trkpt lat="59.4861971977" lon="18.0884618135">
        <ele>25.6</ele>
        <time>2013-03-14T20:35:45Z</time>
      </trkpt>
      <trkpt lat="59.4862126204" lon="18.0880903277">
        <ele>25.6</ele>
        <time>2013-03-14T20:35:50Z</time>
      </trkpt>
      <trkpt lat="59.4862167275" lon="18.088005922">
        <ele>25.6</ele>
        <time>2013-03-14T20:35:51Z</time>
      </trkpt>
      <trkpt lat="59.4862290489" lon="18.0874315104">
        <ele>25.6</ele>
        <time>2013-03-14T20:35:57Z</time>
      </trkpt>
      <trkpt lat="59.4861866365" lon="18.0868872736">
        <ele>25.6</ele>
        <time>2013-03-14T20:36:03Z</time>
      </trkpt>
      <trkpt lat="59.4861792604" lon="18.0867200547">
        <ele>25.6</ele>
        <time>2013-03-14T20:36:05Z</time>
      </trkpt>
      <trkpt lat="59.4862080941" lon="18.0864779854">
        <ele>25.6</ele>
        <time>2013-03-14T20:36:08Z</time>
      </trkpt>
      <trkpt lat="59.4863416178" lon="18.0862121115">
        <ele>25.6</ele>
        <time>2013-03-14T20:36:12Z</time>
      </trkpt>
      <trkpt lat="59.48647489" lon="18.0860900711">
        <ele>25.6</ele>
        <time>2013-03-14T20:36:15Z</time>
      </trkpt>
      <trkpt lat="59.4865121895" lon="18.0860367622">
        <ele>25.6</ele>
        <time>2013-03-14T20:36:16Z</time>
      </trkpt>
      <trkpt lat="59.486569354" lon="18.085788155">
        <ele>25.6</ele>
        <time>2013-03-14T20:36:20Z</time>
      </trkpt>
      <trkpt lat="59.4865734611" lon="18.0856303239">
        <ele>25.6</ele>
        <time>2013-03-14T20:36:22Z</time>
      </trkpt>
      <trkpt lat="59.4865958408" lon="18.0854010789">
        <ele>25.6</ele>
        <time>2013-03-14T20:36:25Z</time>
      </trkpt>
      <trkpt lat="59.4866972618" lon="18.0850791301">
        <ele>25.6</ele>
        <time>2013-03-14T20:36:30Z</time>
      </trkpt>
      <trkpt lat="59.4867473856" lon="18.0849543236">
        <ele>25.6</ele>
        <time>2013-03-14T20:36:32Z</time>
      </trkpt>
      <trkpt lat="59.4868112556" lon="18.0847374001">
        <ele>25.6</ele>
        <time>2013-03-14T20:36:35Z</time>
      </trkpt>
      <trkpt lat="59.4869336314" lon="18.0846157787">
        <ele>25.6</ele>
        <time>2013-03-14T20:36:39Z</time>
      </trkpt>
      <trkpt lat="59.4870066377" lon="18.0847654794">
        <ele>25.6</ele>
        <time>2013-03-14T20:36:42Z</time>
      </trkpt>
      <trkpt lat="59.4870053805" lon="18.0850404057">
        <ele>25.6</ele>
        <time>2013-03-14T20:36:46Z</time>
      </trkpt>
      <trkpt lat="59.4869128443" lon="18.0854023362">
        <ele>25.6</ele>
        <time>2013-03-14T20:36:51Z</time>
      </trkpt>
      <trkpt lat="59.4868818312" lon="18.0855701418">
        <ele>25.6</ele>
        <time>2013-03-14T20:36:53Z</time>
      </trkpt>
      <trkpt lat="59.4868599545" lon="18.0858061761">
        <ele>25.6</ele>
        <time>2013-03-14T20:36:56Z</time>
      </trkpt>
      <trkpt lat="59.4868614632" lon="18.0858811941">
        <ele>25.6</ele>
        <time>2013-03-14T20:36:57Z</time>
      </trkpt>
      <trkpt lat="59.486893063" lon="18.086108176">
        <ele>25.6</ele>
        <time>2013-03-14T20:37:00Z</time>
      </trkpt>
      <trkpt lat="59.4869178734" lon="18.0862580444">
        <ele>25.6</ele>
        <time>2013-03-14T20:37:02Z</time>
      </trkpt>
      <trkpt lat="59.4870068054" lon="18.0867782251">
        <ele>25.6</ele>
        <time>2013-03-14T20:37:09Z</time>
      </trkpt>
      <trkpt lat="59.4871160215" lon="18.0872364635">
        <ele>25.6</ele>
        <time>2013-03-14T20:37:16Z</time>
      </trkpt>
      <trkpt lat="59.4872788819" lon="18.0876505294">
        <ele>25.6</ele>
        <time>2013-03-14T20:37:23Z</time>
      </trkpt>
      <trkpt lat="59.487344093" lon="18.0880706302">
        <ele>25.6</ele>
        <time>2013-03-14T20:37:29Z</time>
      </trkpt>
      <trkpt lat="59.4873952226" lon="18.0885157091">
        <ele>25.6</ele>
        <time>2013-03-14T20:37:35Z</time>
      </trkpt>
      <trkpt lat="59.4874018443" lon="18.088657028">
        <ele>25.6</ele>
        <time>2013-03-14T20:37:37Z</time>
      </trkpt>
      <trkpt lat="59.487419614" lon="18.0890354707">
        <ele>25.6</ele>
        <time>2013-03-14T20:37:42Z</time>
      </trkpt>
      <trkpt lat="59.487506199" lon="18.0894461">
        <ele>25.6</ele>
        <time>2013-03-14T20:37:48Z</time>
      </trkpt>
      <trkpt lat="59.4875343622" lon="18.0894905241">
        <ele>25.6</ele>
        <time>2013-03-14T20:37:49Z</time>
      </trkpt>
      <trkpt lat="59.4875959691" lon="18.089667466">
        <ele>25.6</ele>
        <time>2013-03-14T20:37:52Z</time>
      </trkpt>
      <trkpt lat="59.4876391359" lon="18.0898127243">
        <ele>25.6</ele>
        <time>2013-03-14T20:37:54Z</time>
      </trkpt>
      <trkpt lat="59.4876995694" lon="18.0899248741">
        <ele>25.6</ele>
        <time>2013-03-14T20:37:56Z</time>
      </trkpt>
      <trkpt lat="59.4877962965" lon="18.0900582302">
        <ele>25.6</ele>
        <time>2013-03-14T20:37:59Z</time>
      </trkpt>
      <trkpt lat="59.4879816203" lon="18.0903090166">
        <ele>25.6</ele>
        <time>2013-03-14T20:38:05Z</time>
      </trkpt>
      <trkpt lat="59.4881620827" lon="18.0904952624">
        <ele>25.6</ele>
        <time>2013-03-14T20:38:11Z</time>
      </trkpt>
      <trkpt lat="59.4881932633" lon="18.0905218331">
        <ele>26</ele>
        <time>2013-03-14T20:38:12Z</time>
      </trkpt>
      <trkpt lat="59.4882293055" lon="18.0905561989">
        <ele>26.4</ele>
        <time>2013-03-14T20:38:13Z</time>
      </trkpt>
      <trkpt lat="59.4882616596" lon="18.0905813446">
        <ele>26.8</ele>
        <time>2013-03-14T20:38:14Z</time>
      </trkpt>
      <trkpt lat="59.4882889846" lon="18.0906129443">
        <ele>27.2</ele>
        <time>2013-03-14T20:38:15Z</time>
      </trkpt>
      <trkpt lat="59.4883234342" lon="18.0906463881">
        <ele>27.6</ele>
        <time>2013-03-14T20:38:16Z</time>
      </trkpt>
      <trkpt lat="59.4883533576" lon="18.0906715338">
        <ele>27.6</ele>
        <time>2013-03-14T20:38:17Z</time>
      </trkpt>
      <trkpt lat="59.4884972748" lon="18.0907706079">
        <ele>27.6</ele>
        <time>2013-03-14T20:38:22Z</time>
      </trkpt>
      <trkpt lat="59.4886631526" lon="18.0908685923">
        <ele>27.6</ele>
        <time>2013-03-14T20:38:27Z</time>
      </trkpt>
      <trkpt lat="59.4889101672" lon="18.0909901298">
        <ele>27.6</ele>
        <time>2013-03-14T20:38:34Z</time>
      </trkpt>
      <trkpt lat="59.4890441938" lon="18.0911078117">
        <ele>28.2</ele>
        <time>2013-03-14T20:38:38Z</time>
      </trkpt>
      <trkpt lat="59.4890747877" lon="18.0911500565">
        <ele>28.6</ele>
        <time>2013-03-14T20:38:39Z</time>
      </trkpt>
      <trkpt lat="59.4891100755" lon="18.0911879427">
        <ele>29</ele>
        <time>2013-03-14T20:38:40Z</time>
      </trkpt>
      <trkpt lat="59.489147375" lon="18.0912294331">
        <ele>29.4</ele>
        <time>2013-03-14T20:38:41Z</time>
      </trkpt>
      <trkpt lat="59.4891869376" lon="18.0912789701">
        <ele>29.8</ele>
        <time>2013-03-14T20:38:42Z</time>
      </trkpt>
      <trkpt lat="59.4893240655" lon="18.0914421657">
        <ele>29.8</ele>
        <time>2013-03-14T20:38:46Z</time>
      </trkpt>
      <trkpt lat="59.4894896918" lon="18.091713404">
        <ele>29.8</ele>
        <time>2013-03-14T20:38:52Z</time>
      </trkpt>
      <trkpt lat="59.4896221258" lon="18.0920666172">
        <ele>29.8</ele>
        <time>2013-03-14T20:38:58Z</time>
      </trkpt>
      <trkpt lat="59.4897774424" lon="18.0925465648">
        <ele>29.8</ele>
        <time>2013-03-14T20:39:05Z</time>
      </trkpt>
      <trkpt lat="59.4898005765" lon="18.0926065792">
        <ele>29.8</ele>
        <time>2013-03-14T20:39:06Z</time>
      </trkpt>
      <trkpt lat="59.4899198509" lon="18.0929244209">
        <ele>29.8</ele>
        <time>2013-03-14T20:39:11Z</time>
      </trkpt>
      <trkpt lat="59.4900920151" lon="18.0931824158">
        <ele>29.8</ele>
        <time>2013-03-14T20:39:17Z</time>
      </trkpt>
      <trkpt lat="59.4902599884" lon="18.0933868503">
        <ele>29.8</ele>
        <time>2013-03-14T20:39:22Z</time>
      </trkpt>
      <trkpt lat="59.4902895765" lon="18.0934476191">
        <ele>29.8</ele>
        <time>2013-03-14T20:39:23Z</time>
      </trkpt>
      <trkpt lat="59.4903614932" lon="18.0936535624">
        <ele>29.8</ele>
        <time>2013-03-14T20:39:26Z</time>
      </trkpt>
      <trkpt lat="59.4904036542" lon="18.0937717472">
        <ele>29.4</ele>
        <time>2013-03-14T20:39:28Z</time>
      </trkpt>
      <trkpt lat="59.4904304763" lon="18.0938291632">
        <ele>28.8</ele>
        <time>2013-03-14T20:39:29Z</time>
      </trkpt>
      <trkpt lat="59.4904588909" lon="18.0938799575">
        <ele>28.4</ele>
        <time>2013-03-14T20:39:30Z</time>
      </trkpt>
      <trkpt lat="59.4904899877" lon="18.093919101">
        <ele>28</ele>
        <time>2013-03-14T20:39:31Z</time>
      </trkpt>
      <trkpt lat="59.490527371" lon="18.0939500302">
        <ele>27.6</ele>
        <time>2013-03-14T20:39:32Z</time>
      </trkpt>
      <trkpt lat="59.49056861" lon="18.0939748406">
        <ele>27.6</ele>
        <time>2013-03-14T20:39:33Z</time>
      </trkpt>
      <trkpt lat="59.4906145428" lon="18.0939749244">
        <ele>27.6</ele>
        <time>2013-03-14T20:39:34Z</time>
      </trkpt>
      <trkpt lat="59.4907543529" lon="18.0938910216">
        <ele>27.6</ele>
        <time>2013-03-14T20:39:38Z</time>
      </trkpt>
      <trkpt lat="59.4907924905" lon="18.0938519619">
        <ele>27.6</ele>
        <time>2013-03-14T20:39:39Z</time>
      </trkpt>
      <trkpt lat="59.4909386708" lon="18.0937576656">
        <ele>27.6</ele>
        <time>2013-03-14T20:39:43Z</time>
      </trkpt>
      <trkpt lat="59.4911597016" lon="18.0936911133">
        <ele>27.6</ele>
        <time>2013-03-14T20:39:49Z</time>
      </trkpt>
      <trkpt lat="59.4913272557" lon="18.0936374691">
        <ele>27.6</ele>
        <time>2013-03-14T20:39:54Z</time>
      </trkpt>
      <trkpt lat="59.4915178601" lon="18.093509226">
        <ele>27.6</ele>
        <time>2013-03-14T20:40:00Z</time>
      </trkpt>
      <trkpt lat="59.4916419961" lon="18.0933943102">
        <ele>28</ele>
        <time>2013-03-14T20:40:04Z</time>
      </trkpt>
      <trkpt lat="59.4916726738" lon="18.0933769597">
        <ele>28.4</ele>
        <time>2013-03-14T20:40:05Z</time>
      </trkpt>
      <trkpt lat="59.4917051118" lon="18.0933584357">
        <ele>28.8</ele>
        <time>2013-03-14T20:40:06Z</time>
      </trkpt>
      <trkpt lat="59.4917422436" lon="18.0933534065">
        <ele>29.2</ele>
        <time>2013-03-14T20:40:07Z</time>
      </trkpt>
      <trkpt lat="59.4917789563" lon="18.0933450246">
        <ele>29.6</ele>
        <time>2013-03-14T20:40:08Z</time>
      </trkpt>
      <trkpt lat="59.4919005777" lon="18.0933389058">
        <ele>29.6</ele>
        <time>2013-03-14T20:40:11Z</time>
      </trkpt>
      <trkpt lat="59.4920123922" lon="18.0934312744">
        <ele>29.6</ele>
        <time>2013-03-14T20:40:14Z</time>
      </trkpt>
      <trkpt lat="59.4920391305" lon="18.0934914564">
        <ele>29.6</ele>
        <time>2013-03-14T20:40:15Z</time>
      </trkpt>
      <trkpt lat="59.4921671221" lon="18.0938373774">
        <ele>29.6</ele>
        <time>2013-03-14T20:40:20Z</time>
      </trkpt>
      <trkpt lat="59.4921974646" lon="18.0938920274">
        <ele>29.6</ele>
        <time>2013-03-14T20:40:21Z</time>
      </trkpt>
      <trkpt lat="59.4922304055" lon="18.0939369544">
        <ele>29.6</ele>
        <time>2013-03-14T20:40:22Z</time>
      </trkpt>
      <trkpt lat="59.4923673657" lon="18.0940863199">
        <ele>29.6</ele>
        <time>2013-03-14T20:40:26Z</time>
      </trkpt>
      <trkpt lat="59.4925879773" lon="18.0942920117">
        <ele>29.6</ele>
        <time>2013-03-14T20:40:32Z</time>
      </trkpt>
      <trkpt lat="59.4927875503" lon="18.0944899922">
        <ele>29.6</ele>
        <time>2013-03-14T20:40:38Z</time>
      </trkpt>
      <trkpt lat="59.4930506582" lon="18.094743377">
        <ele>29.6</ele>
        <time>2013-03-14T20:40:46Z</time>
      </trkpt>
      <trkpt lat="59.4932551766" lon="18.0947841969">
        <ele>29.6</ele>
        <time>2013-03-14T20:40:52Z</time>
      </trkpt>
      <trkpt lat="59.4934348007" lon="18.0947226737">
        <ele>29.6</ele>
        <time>2013-03-14T20:40:57Z</time>
      </trkpt>
      <trkpt lat="59.4936648" lon="18.0947351627">
        <ele>29.6</ele>
        <time>2013-03-14T20:41:03Z</time>
      </trkpt>
      <trkpt lat="59.4938872556" lon="18.0947574586">
        <ele>29.6</ele>
        <time>2013-03-14T20:41:09Z</time>
      </trkpt>
      <trkpt lat="59.4941100465" lon="18.0947400242">
        <ele>29.6</ele>
        <time>2013-03-14T20:41:15Z</time>
      </trkpt>
      <trkpt lat="59.4942907603" lon="18.094613709">
        <ele>29.6</ele>
        <time>2013-03-14T20:41:20Z</time>
      </trkpt>
      <trkpt lat="59.4944291455" lon="18.0943816142">
        <ele>29.6</ele>
        <time>2013-03-14T20:41:25Z</time>
      </trkpt>
      <trkpt lat="59.4944808618" lon="18.0941599129">
        <ele>29.6</ele>
        <time>2013-03-14T20:41:28Z</time>
      </trkpt>
      <trkpt lat="59.4945000563" lon="18.0940910137">
        <ele>29.6</ele>
        <time>2013-03-14T20:41:29Z</time>
      </trkpt>
      <trkpt lat="59.4945325781" lon="18.0938272353">
        <ele>29.6</ele>
        <time>2013-03-14T20:41:32Z</time>
      </trkpt>
      <trkpt lat="59.494539116" lon="18.09364912">
        <ele>29.6</ele>
        <time>2013-03-14T20:41:34Z</time>
      </trkpt>
      <trkpt lat="59.4945177421" lon="18.0933154365">
        <ele>29.6</ele>
        <time>2013-03-14T20:41:38Z</time>
      </trkpt>
      <trkpt lat="59.4945008107" lon="18.0932332939">
        <ele>29.6</ele>
        <time>2013-03-14T20:41:39Z</time>
      </trkpt>
      <trkpt lat="59.4944100347" lon="18.0929581161">
        <ele>29.6</ele>
        <time>2013-03-14T20:41:43Z</time>
      </trkpt>
      <trkpt lat="59.4942911794" lon="18.0927731276">
        <ele>29.6</ele>
        <time>2013-03-14T20:41:47Z</time>
      </trkpt>
      <trkpt lat="59.494256143" lon="18.092732643">
        <ele>29.6</ele>
        <time>2013-03-14T20:41:48Z</time>
      </trkpt>
      <trkpt lat="59.4941833882" lon="18.0926435434">
        <ele>29.6</ele>
        <time>2013-03-14T20:41:50Z</time>
      </trkpt>
      <trkpt lat="59.4940797041" lon="18.0925187369">
        <ele>29.6</ele>
        <time>2013-03-14T20:41:53Z</time>
      </trkpt>
      <trkpt lat="59.4939429114" lon="18.09235244">
        <ele>29.6</ele>
        <time>2013-03-14T20:41:57Z</time>
      </trkpt>
      <trkpt lat="59.4938716653" lon="18.0922833732">
        <ele>29.6</ele>
        <time>2013-03-14T20:41:59Z</time>
      </trkpt>
      <trkpt lat="59.49368609" lon="18.0921043358">
        <ele>29.6</ele>
        <time>2013-03-14T20:42:04Z</time>
      </trkpt>
      <trkpt lat="59.4935067174" lon="18.0919290703">
        <ele>29.6</ele>
        <time>2013-03-14T20:42:10Z</time>
      </trkpt>
      <trkpt lat="59.4933732775" lon="18.0918112207">
        <ele>29.6</ele>
        <time>2013-03-14T20:42:14Z</time>
      </trkpt>
      <trkpt lat="59.4932362335" lon="18.0916919463">
        <ele>30</ele>
        <time>2013-03-14T20:42:19Z</time>
      </trkpt>
      <trkpt lat="59.4932039631" lon="18.0916605142">
        <ele>30.4</ele>
        <time>2013-03-14T20:42:20Z</time>
      </trkpt>
      <trkpt lat="59.4931829246" lon="18.0916403138">
        <ele>31</ele>
        <time>2013-03-14T20:42:21Z</time>
      </trkpt>
      <trkpt lat="59.4931569407" lon="18.0916132403">
        <ele>31.4</ele>
        <time>2013-03-14T20:42:22Z</time>
      </trkpt>
      <trkpt lat="59.4931410151" lon="18.0915910282">
        <ele>31.8</ele>
        <time>2013-03-14T20:42:23Z</time>
      </trkpt>
      <trkpt lat="59.4931106726" lon="18.091553142">
        <ele>31.8</ele>
        <time>2013-03-14T20:42:24Z</time>
      </trkpt>
      <trkpt lat="59.4930041386" lon="18.0913683211">
        <ele>31.8</ele>
        <time>2013-03-14T20:42:29Z</time>
      </trkpt>
      <trkpt lat="59.492948399" lon="18.091213256">
        <ele>32.2</ele>
        <time>2013-03-14T20:42:32Z</time>
      </trkpt>
      <trkpt lat="59.4929321381" lon="18.0911548342">
        <ele>32.6</ele>
        <time>2013-03-14T20:42:33Z</time>
      </trkpt>
      <trkpt lat="59.4929175536" lon="18.0910873599">
        <ele>33</ele>
        <time>2013-03-14T20:42:34Z</time>
      </trkpt>
      <trkpt lat="59.4929044779" lon="18.0910195503">
        <ele>33.4</ele>
        <time>2013-03-14T20:42:35Z</time>
      </trkpt>
      <trkpt lat="59.4928945872" lon="18.0909503996">
        <ele>33.8</ele>
        <time>2013-03-14T20:42:36Z</time>
      </trkpt>
      <trkpt lat="59.4928914859" lon="18.0905622338">
        <ele>33.8</ele>
        <time>2013-03-14T20:42:41Z</time>
      </trkpt>
      <trkpt lat="59.4929842735" lon="18.0901594835">
        <ele>33.8</ele>
        <time>2013-03-14T20:42:46Z</time>
      </trkpt>
      <trkpt lat="59.4931174619" lon="18.0899593238">
        <ele>33.8</ele>
        <time>2013-03-14T20:42:50Z</time>
      </trkpt>
      <trkpt lat="59.4931595391" lon="18.0899307415">
        <ele>33.8</ele>
        <time>2013-03-14T20:42:51Z</time>
      </trkpt>
      <trkpt lat="59.4932954935" lon="18.0898995608">
        <ele>33.8</ele>
        <time>2013-03-14T20:42:54Z</time>
      </trkpt>
      <trkpt lat="59.4933418454" lon="18.0898939449">
        <ele>33.8</ele>
        <time>2013-03-14T20:42:55Z</time>
      </trkpt>
      <trkpt lat="59.4934226469" lon="18.0898820426">
        <ele>33.4</ele>
        <time>2013-03-14T20:42:57Z</time>
      </trkpt>
      <trkpt lat="59.4934668195" lon="18.0898776002">
        <ele>33</ele>
        <time>2013-03-14T20:42:58Z</time>
      </trkpt>
      <trkpt lat="59.4935162727" lon="18.0898795281">
        <ele>32.6</ele>
        <time>2013-03-14T20:42:59Z</time>
      </trkpt>
      <trkpt lat="59.4935622894" lon="18.0898828808">
        <ele>32</ele>
        <time>2013-03-14T20:43:00Z</time>
      </trkpt>
      <trkpt lat="59.4936002594" lon="18.0898840543">
        <ele>31.6</ele>
        <time>2013-03-14T20:43:01Z</time>
      </trkpt>
      <trkpt lat="59.4937635388" lon="18.0898533765">
        <ele>31.6</ele>
        <time>2013-03-14T20:43:05Z</time>
      </trkpt>
      <trkpt lat="59.4940522114" lon="18.0898102098">
        <ele>31.6</ele>
        <time>2013-03-14T20:43:12Z</time>
      </trkpt>
      <trkpt lat="59.494249689" lon="18.0897932783">
        <ele>31.6</ele>
        <time>2013-03-14T20:43:17Z</time>
      </trkpt>
      <trkpt lat="59.4944828734" lon="18.0897894226">
        <ele>31.6</ele>
        <time>2013-03-14T20:43:23Z</time>
      </trkpt>
      <trkpt lat="59.494604411" lon="18.089819346">
        <ele>31.6</ele>
        <time>2013-03-14T20:43:26Z</time>
      </trkpt>
      <trkpt lat="59.4947288822" lon="18.0898921847">
        <ele>31.6</ele>
        <time>2013-03-14T20:43:29Z</time>
      </trkpt>
      <trkpt lat="59.4948061633" lon="18.0899656102">
        <ele>31.6</ele>
        <time>2013-03-14T20:43:31Z</time>
      </trkpt>
      <trkpt lat="59.4949383459" lon="18.0901838749">
        <ele>31.6</ele>
        <time>2013-03-14T20:43:35Z</time>
      </trkpt>
      <trkpt lat="59.495037839" lon="18.0905551092">
        <ele>31.6</ele>
        <time>2013-03-14T20:43:40Z</time>
      </trkpt>
      <trkpt lat="59.4950601349" lon="18.0907083303">
        <ele>31.6</ele>
        <time>2013-03-14T20:43:42Z</time>
      </trkpt>
      <trkpt lat="59.4950825984" lon="18.0910269264">
        <ele>31.6</ele>
        <time>2013-03-14T20:43:46Z</time>
      </trkpt>
      <trkpt lat="59.4950814249" lon="18.0911087337">
        <ele>31.6</ele>
        <time>2013-03-14T20:43:47Z</time>
      </trkpt>
      <trkpt lat="59.4950758929" lon="18.0914863383">
        <ele>31.6</ele>
        <time>2013-03-14T20:43:52Z</time>
      </trkpt>
      <trkpt lat="59.4950701932" lon="18.0919392124">
        <ele>31.6</ele>
        <time>2013-03-14T20:43:58Z</time>
      </trkpt>
      <trkpt lat="59.4951517491" lon="18.092346908">
        <ele>31.6</ele>
        <time>2013-03-14T20:44:04Z</time>
      </trkpt>
      <trkpt lat="59.495356016" lon="18.0927577049">
        <ele>31.6</ele>
        <time>2013-03-14T20:44:11Z</time>
      </trkpt>
      <trkpt lat="59.4954461214" lon="18.0931933122">
        <ele>31.6</ele>
        <time>2013-03-14T20:44:17Z</time>
      </trkpt>
      <trkpt lat="59.4954016973" lon="18.093537054">
        <ele>31.6</ele>
        <time>2013-03-14T20:44:22Z</time>
      </trkpt>
      <trkpt lat="59.4953519927" lon="18.0936515507">
        <ele>31.6</ele>
        <time>2013-03-14T20:44:24Z</time>
      </trkpt>
      <trkpt lat="59.4952431956" lon="18.0937657122">
        <ele>31.6</ele>
        <time>2013-03-14T20:44:27Z</time>
      </trkpt>
      <trkpt lat="59.4950183092" lon="18.0940703104">
        <ele>31.6</ele>
        <time>2013-03-14T20:44:34Z</time>
      </trkpt>
      <trkpt lat="59.494824855" lon="18.0943517746">
        <ele>31.6</ele>
        <time>2013-03-14T20:44:40Z</time>
      </trkpt>
      <trkpt lat="59.4946666885" lon="18.0945558739">
        <ele>31.6</ele>
        <time>2013-03-14T20:44:46Z</time>
      </trkpt>
      <trkpt lat="59.4945323267" lon="18.0946717118">
        <ele>31.6</ele>
        <time>2013-03-14T20:44:50Z</time>
      </trkpt>
      <trkpt lat="59.4944676184" lon="18.0947422035">
        <ele>31.6</ele>
        <time>2013-03-14T20:44:52Z</time>
      </trkpt>
      <trkpt lat="59.494284893" lon="18.094982345">
        <ele>31.6</ele>
        <time>2013-03-14T20:44:58Z</time>
      </trkpt>
      <trkpt lat="59.4940386327" lon="18.0952045491">
        <ele>31.6</ele>
        <time>2013-03-14T20:45:05Z</time>
      </trkpt>
      <trkpt lat="59.493948695" lon="18.0954620411">
        <ele>31.6</ele>
        <time>2013-03-14T20:45:09Z</time>
      </trkpt>
      <trkpt lat="59.4939230463" lon="18.0959253087">
        <ele>31.6</ele>
        <time>2013-03-14T20:45:15Z</time>
      </trkpt>
      <trkpt lat="59.4938870042" lon="18.0964576432">
        <ele>31.6</ele>
        <time>2013-03-14T20:45:22Z</time>
      </trkpt>
      <trkpt lat="59.4938621099" lon="18.0965196692">
        <ele>31.6</ele>
        <time>2013-03-14T20:45:23Z</time>
      </trkpt>
      <trkpt lat="59.4937661372" lon="18.0966848765">
        <ele>31.6</ele>
        <time>2013-03-14T20:45:26Z</time>
      </trkpt>
      <trkpt lat="59.4936909515" lon="18.0967650913">
        <ele>31.6</ele>
        <time>2013-03-14T20:45:28Z</time>
      </trkpt>
      <trkpt lat="59.4935735211" lon="18.0969137024">
        <ele>31.6</ele>
        <time>2013-03-14T20:45:31Z</time>
      </trkpt>
      <trkpt lat="59.4934809011" lon="18.0971293687">
        <ele>31.6</ele>
        <time>2013-03-14T20:45:34Z</time>
      </trkpt>
      <trkpt lat="59.4934341301" lon="18.0972978448">
        <ele>31.6</ele>
        <time>2013-03-14T20:45:36Z</time>
      </trkpt>
      <trkpt lat="59.4934226469" lon="18.0973779758">
        <ele>31.2</ele>
        <time>2013-03-14T20:45:37Z</time>
      </trkpt>
      <trkpt lat="59.493418456" lon="18.0974543349">
        <ele>30.8</ele>
        <time>2013-03-14T20:45:38Z</time>
      </trkpt>
      <trkpt lat="59.4934244071" lon="18.0975348012">
        <ele>30.4</ele>
        <time>2013-03-14T20:45:39Z</time>
      </trkpt>
      <trkpt lat="59.493446703" lon="18.0976215538">
        <ele>30</ele>
        <time>2013-03-14T20:45:40Z</time>
      </trkpt>
      <trkpt lat="59.4934755367" lon="18.0976990026">
        <ele>29.6</ele>
        <time>2013-03-14T20:45:41Z</time>
      </trkpt>
      <trkpt lat="59.4935861778" lon="18.097895139">
        <ele>29.6</ele>
        <time>2013-03-14T20:45:44Z</time>
      </trkpt>
      <trkpt lat="59.4936185319" lon="18.0979408204">
        <ele>29.6</ele>
        <time>2013-03-14T20:45:45Z</time>
      </trkpt>
      <trkpt lat="59.4936684042" lon="18.0979735098">
        <ele>29.6</ele>
        <time>2013-03-14T20:45:46Z</time>
      </trkpt>
      <trkpt lat="59.4938090525" lon="18.098020197">
        <ele>29.6</ele>
        <time>2013-03-14T20:45:49Z</time>
      </trkpt>
      <trkpt lat="59.493855153" lon="18.0980212028">
        <ele>29.6</ele>
        <time>2013-03-14T20:45:50Z</time>
      </trkpt>
      <trkpt lat="59.4940649519" lon="18.0979793771">
        <ele>29.6</ele>
        <time>2013-03-14T20:45:55Z</time>
      </trkpt>
      <trkpt lat="59.4942879943" lon="18.0979293372">
        <ele>29.6</ele>
        <time>2013-03-14T20:46:01Z</time>
      </trkpt>
      <trkpt lat="59.4943697178" lon="18.0979207877">
        <ele>29.6</ele>
        <time>2013-03-14T20:46:03Z</time>
      </trkpt>
      <trkpt lat="59.4944853042" lon="18.0979630324">
        <ele>29.6</ele>
        <time>2013-03-14T20:46:06Z</time>
      </trkpt>
      <trkpt lat="59.4946282156" lon="18.0982004078">
        <ele>29.6</ele>
        <time>2013-03-14T20:46:11Z</time>
      </trkpt>
      <trkpt lat="59.4946542833" lon="18.0983402179">
        <ele>29.2</ele>
        <time>2013-03-14T20:46:13Z</time>
      </trkpt>
      <trkpt lat="59.4946595639" lon="18.0984152359">
        <ele>28.8</ele>
        <time>2013-03-14T20:46:14Z</time>
      </trkpt>
      <trkpt lat="59.4946591448" lon="18.0984873203">
        <ele>28.4</ele>
        <time>2013-03-14T20:46:15Z</time>
      </trkpt>
      <trkpt lat="59.4946510982" lon="18.0985609972">
        <ele>28</ele>
        <time>2013-03-14T20:46:16Z</time>
      </trkpt>
      <trkpt lat="59.4946370166" lon="18.0986279686">
        <ele>27.6</ele>
        <time>2013-03-14T20:46:17Z</time>
      </trkpt>
      <trkpt lat="59.4945915867" lon="18.0987424653">
        <ele>27.6</ele>
        <time>2013-03-14T20:46:19Z</time>
      </trkpt>
      <trkpt lat="59.4944181652" lon="18.098831062">
        <ele>27.6</ele>
        <time>2013-03-14T20:46:24Z</time>
      </trkpt>
      <trkpt lat="59.4943064344" lon="18.0988107778">
        <ele>27.6</ele>
        <time>2013-03-14T20:46:27Z</time>
      </trkpt>
      <trkpt lat="59.4941571528" lon="18.0987568822">
        <ele>27.6</ele>
        <time>2013-03-14T20:46:31Z</time>
      </trkpt>
      <trkpt lat="59.4939373794" lon="18.0986864742">
        <ele>27.6</ele>
        <time>2013-03-14T20:46:37Z</time>
      </trkpt>
      <trkpt lat="59.4937450986" lon="18.0986281362">
        <ele>27.6</ele>
        <time>2013-03-14T20:46:42Z</time>
      </trkpt>
      <trkpt lat="59.4935612835" lon="18.0985302356">
        <ele>27.6</ele>
        <time>2013-03-14T20:46:47Z</time>
      </trkpt>
      <trkpt lat="59.4934065537" lon="18.0983173353">
        <ele>27.6</ele>
        <time>2013-03-14T20:46:52Z</time>
      </trkpt>
      <trkpt lat="59.4932971699" lon="18.0979251462">
        <ele>27.6</ele>
        <time>2013-03-14T20:46:58Z</time>
      </trkpt>
      <trkpt lat="59.4932648157" lon="18.0975644731">
        <ele>27.6</ele>
        <time>2013-03-14T20:47:03Z</time>
      </trkpt>
      <trkpt lat="59.4932451183" lon="18.0973438615">
        <ele>28</ele>
        <time>2013-03-14T20:47:06Z</time>
      </trkpt>
      <trkpt lat="59.4932338027" lon="18.097265826">
        <ele>28.4</ele>
        <time>2013-03-14T20:47:07Z</time>
      </trkpt>
      <trkpt lat="59.4932199726" lon="18.0971822584">
        <ele>28.8</ele>
        <time>2013-03-14T20:47:08Z</time>
      </trkpt>
      <trkpt lat="59.4932021191" lon="18.0971034686">
        <ele>29.2</ele>
        <time>2013-03-14T20:47:09Z</time>
      </trkpt>
      <trkpt lat="59.4931806615" lon="18.0970344017">
        <ele>29.6</ele>
        <time>2013-03-14T20:47:10Z</time>
      </trkpt>
      <trkpt lat="59.4931098344" lon="18.0968756485">
        <ele>29.6</ele>
        <time>2013-03-14T20:47:13Z</time>
      </trkpt>
      <trkpt lat="59.493060465" lon="18.096589239">
        <ele>29.6</ele>
        <time>2013-03-14T20:47:18Z</time>
      </trkpt>
      <trkpt lat="59.4931344772" lon="18.0963656099">
        <ele>29.6</ele>
        <time>2013-03-14T20:47:22Z</time>
      </trkpt>
      <trkpt lat="59.4933125087" lon="18.0962462517">
        <ele>29.6</ele>
        <time>2013-03-14T20:47:27Z</time>
      </trkpt>
      <trkpt lat="59.4934798115" lon="18.0961149073">
        <ele>29.6</ele>
        <time>2013-03-14T20:47:32Z</time>
      </trkpt>
      <trkpt lat="59.493553656" lon="18.095802933">
        <ele>29.6</ele>
        <time>2013-03-14T20:47:37Z</time>
      </trkpt>
      <trkpt lat="59.4935095672" lon="18.0954642204">
        <ele>29.6</ele>
        <time>2013-03-14T20:47:42Z</time>
      </trkpt>
      <trkpt lat="59.4933765465" lon="18.0952407589">
        <ele>29.6</ele>
        <time>2013-03-14T20:47:47Z</time>
      </trkpt>
      <trkpt lat="59.4931954974" lon="18.0951362367">
        <ele>29.6</ele>
        <time>2013-03-14T20:47:52Z</time>
      </trkpt>
      <trkpt lat="59.4930203995" lon="18.0951034634">
        <ele>29.6</ele>
        <time>2013-03-14T20:47:57Z</time>
      </trkpt>
      <trkpt lat="59.492812696" lon="18.0950717798">
        <ele>29.6</ele>
        <time>2013-03-14T20:48:02Z</time>
      </trkpt>
      <trkpt lat="59.4926940922" lon="18.0950314629">
        <ele>29.6</ele>
        <time>2013-03-14T20:48:05Z</time>
      </trkpt>
      <trkpt lat="59.4926513445" lon="18.0950119331">
        <ele>29.6</ele>
        <time>2013-03-14T20:48:06Z</time>
      </trkpt>
      <trkpt lat="59.4924367678" lon="18.0948671777">
        <ele>29.6</ele>
        <time>2013-03-14T20:48:11Z</time>
      </trkpt>
      <trkpt lat="59.4922286453" lon="18.0946918283">
        <ele>29.6</ele>
        <time>2013-03-14T20:48:16Z</time>
      </trkpt>
      <trkpt lat="59.4919875818" lon="18.0944852983">
        <ele>29.6</ele>
        <time>2013-03-14T20:48:22Z</time>
      </trkpt>
      <trkpt lat="59.4917752683" lon="18.0943859728">
        <ele>29.6</ele>
        <time>2013-03-14T20:48:27Z</time>
      </trkpt>
      <trkpt lat="59.4917308442" lon="18.0943839611">
        <ele>29.6</ele>
        <time>2013-03-14T20:48:28Z</time>
      </trkpt>
      <trkpt lat="59.4916048643" lon="18.0944096097">
        <ele>29.6</ele>
        <time>2013-03-14T20:48:31Z</time>
      </trkpt>
      <trkpt lat="59.4915593505" lon="18.0944360965">
        <ele>29.6</ele>
        <time>2013-03-14T20:48:32Z</time>
      </trkpt>
      <trkpt lat="59.4914791358" lon="18.094504409">
        <ele>29.6</ele>
        <time>2013-03-14T20:48:34Z</time>
      </trkpt>
      <trkpt lat="59.4914415848" lon="18.0945538622">
        <ele>29.6</ele>
        <time>2013-03-14T20:48:35Z</time>
      </trkpt>
      <trkpt lat="59.4913238192" lon="18.0948272798">
        <ele>29.6</ele>
        <time>2013-03-14T20:48:39Z</time>
      </trkpt>
      <trkpt lat="59.491279898" lon="18.0950913097">
        <ele>29.2</ele>
        <time>2013-03-14T20:48:42Z</time>
      </trkpt>
      <trkpt lat="59.4912767129" lon="18.0951784814">
        <ele>28.8</ele>
        <time>2013-03-14T20:48:43Z</time>
      </trkpt>
      <trkpt lat="59.4912807362" lon="18.0952592829">
        <ele>28.4</ele>
        <time>2013-03-14T20:48:44Z</time>
      </trkpt>
      <trkpt lat="59.4912933929" lon="18.0953340495">
        <ele>28</ele>
        <time>2013-03-14T20:48:45Z</time>
      </trkpt>
      <trkpt lat="59.4913144314" lon="18.0954007694">
        <ele>27.6</ele>
        <time>2013-03-14T20:48:46Z</time>
      </trkpt>
      <trkpt lat="59.4913420917" lon="18.0954638013">
        <ele>27.6</ele>
        <time>2013-03-14T20:48:47Z</time>
      </trkpt>
      <trkpt lat="59.4915288404" lon="18.0956865922">
        <ele>27.6</ele>
        <time>2013-03-14T20:48:52Z</time>
      </trkpt>
      <trkpt lat="59.4915699117" lon="18.0957183596">
        <ele>27.6</ele>
        <time>2013-03-14T20:48:53Z</time>
      </trkpt>
      <trkpt lat="59.4917422436" lon="18.0958352033">
        <ele>27.6</ele>
        <time>2013-03-14T20:48:57Z</time>
      </trkpt>
      <trkpt lat="59.4918191056" lon="18.0958857462">
        <ele>27.6</ele>
        <time>2013-03-14T20:48:59Z</time>
      </trkpt>
      <trkpt lat="59.4920067764" lon="18.0960811282">
        <ele>27.6</ele>
        <time>2013-03-14T20:49:05Z</time>
      </trkpt>
      <trkpt lat="59.4921907591" lon="18.096394276">
        <ele>27.6</ele>
        <time>2013-03-14T20:49:12Z</time>
      </trkpt>
      <trkpt lat="59.4923542061" lon="18.0967682764">
        <ele>27.6</ele>
        <time>2013-03-14T20:49:19Z</time>
      </trkpt>
      <trkpt lat="59.492534417" lon="18.0971726193">
        <ele>27.6</ele>
        <time>2013-03-14T20:49:26Z</time>
      </trkpt>
      <trkpt lat="59.4927412823" lon="18.0975508944">
        <ele>27.6</ele>
        <time>2013-03-14T20:49:33Z</time>
      </trkpt>
      <trkpt lat="59.4929601337" lon="18.0978414111">
        <ele>27.6</ele>
        <time>2013-03-14T20:49:40Z</time>
      </trkpt>
      <trkpt lat="59.493138249" lon="18.0981314248">
        <ele>27.6</ele>
        <time>2013-03-14T20:49:46Z</time>
      </trkpt>
      <trkpt lat="59.4932058072" lon="18.0984294852">
        <ele>27.6</ele>
        <time>2013-03-14T20:49:50Z</time>
      </trkpt>
      <trkpt lat="59.4931967547" lon="18.0986921739">
        <ele>27.6</ele>
        <time>2013-03-14T20:49:53Z</time>
      </trkpt>
      <trkpt lat="59.4931773925" lon="18.0988610692">
        <ele>27.6</ele>
        <time>2013-03-14T20:49:55Z</time>
      </trkpt>
      <trkpt lat="59.4930933221" lon="18.0991350735">
        <ele>27.6</ele>
        <time>2013-03-14T20:49:59Z</time>
      </trkpt>
      <trkpt lat="59.4930642369" lon="18.0991831018">
        <ele>27.6</ele>
        <time>2013-03-14T20:50:00Z</time>
      </trkpt>
      <trkpt lat="59.4930281947" lon="18.0992183058">
        <ele>27.6</ele>
        <time>2013-03-14T20:50:01Z</time>
      </trkpt>
      <trkpt lat="59.4928957607" lon="18.0992574492">
        <ele>27.6</ele>
        <time>2013-03-14T20:50:04Z</time>
      </trkpt>
      <trkpt lat="59.4928527615" lon="18.0992502408">
        <ele>27.6</ele>
        <time>2013-03-14T20:50:05Z</time>
      </trkpt>
      <trkpt lat="59.4927194893" lon="18.0991986083">
        <ele>27.6</ele>
        <time>2013-03-14T20:50:08Z</time>
      </trkpt>
      <trkpt lat="59.4925200001" lon="18.0991691878">
        <ele>27.6</ele>
        <time>2013-03-14T20:50:13Z</time>
      </trkpt>
      <trkpt lat="59.4922749972" lon="18.0992298728">
        <ele>27.6</ele>
        <time>2013-03-14T20:50:19Z</time>
      </trkpt>
      <trkpt lat="59.4920532121" lon="18.0992503246">
        <ele>27.6</ele>
        <time>2013-03-14T20:50:25Z</time>
      </trkpt>
      <trkpt lat="59.4918357856" lon="18.0992267715">
        <ele>27.6</ele>
        <time>2013-03-14T20:50:30Z</time>
      </trkpt>
      <trkpt lat="59.4916604363" lon="18.0992017934">
        <ele>27.6</ele>
        <time>2013-03-14T20:50:34Z</time>
      </trkpt>
      <trkpt lat="59.4915047006" lon="18.0991545195">
        <ele>27.6</ele>
        <time>2013-03-14T20:50:38Z</time>
      </trkpt>
      <trkpt lat="59.491348881" lon="18.0990997857">
        <ele>27.6</ele>
        <time>2013-03-14T20:50:42Z</time>
      </trkpt>
      <trkpt lat="59.4911498947" lon="18.0990074172">
        <ele>27.6</ele>
        <time>2013-03-14T20:50:47Z</time>
      </trkpt>
      <trkpt lat="59.4909838493" lon="18.0988536093">
        <ele>27.6</ele>
        <time>2013-03-14T20:50:52Z</time>
      </trkpt>
      <trkpt lat="59.4908518344" lon="18.0986824509">
        <ele>27.6</ele>
        <time>2013-03-14T20:50:56Z</time>
      </trkpt>
      <trkpt lat="59.4907409418" lon="18.0983887491">
        <ele>27.6</ele>
        <time>2013-03-14T20:51:01Z</time>
      </trkpt>
      <trkpt lat="59.4906499144" lon="18.0979800477">
        <ele>27.6</ele>
        <time>2013-03-14T20:51:07Z</time>
      </trkpt>
      <trkpt lat="59.4905868825" lon="18.0975311131">
        <ele>27.6</ele>
        <time>2013-03-14T20:51:13Z</time>
      </trkpt>
      <trkpt lat="59.4905340765" lon="18.0970732937">
        <ele>27.6</ele>
        <time>2013-03-14T20:51:19Z</time>
      </trkpt>
      <trkpt lat="59.4904904907" lon="18.0966667716">
        <ele>27.6</ele>
        <time>2013-03-14T20:51:25Z</time>
      </trkpt>
      <trkpt lat="59.4904474915" lon="18.0962117182">
        <ele>27.6</ele>
        <time>2013-03-14T20:51:31Z</time>
      </trkpt>
      <trkpt lat="59.4904336614" lon="18.0959577467">
        <ele>27.6</ele>
        <time>2013-03-14T20:51:34Z</time>
      </trkpt>
      <trkpt lat="59.4904507604" lon="18.0957265739">
        <ele>27.6</ele>
        <time>2013-03-14T20:51:37Z</time>
      </trkpt>
      <trkpt lat="59.4905355853" lon="18.0953101611">
        <ele>27.6</ele>
        <time>2013-03-14T20:51:43Z</time>
      </trkpt>
      <trkpt lat="59.4905522653" lon="18.0949414413">
        <ele>27.6</ele>
        <time>2013-03-14T20:51:48Z</time>
      </trkpt>
      <trkpt lat="59.4904916641" lon="18.094671125">
        <ele>27.6</ele>
        <time>2013-03-14T20:51:52Z</time>
      </trkpt>
      <trkpt lat="59.4904707932" lon="18.094610943">
        <ele>27.6</ele>
        <time>2013-03-14T20:51:53Z</time>
      </trkpt>
      <trkpt lat="59.4903002215" lon="18.0943121282">
        <ele>27.6</ele>
        <time>2013-03-14T20:51:59Z</time>
      </trkpt>
      <trkpt lat="59.4901155683" lon="18.0941607511">
        <ele>27.6</ele>
        <time>2013-03-14T20:52:04Z</time>
      </trkpt>
      <trkpt lat="59.4899257182" lon="18.0941947816">
        <ele>27.6</ele>
        <time>2013-03-14T20:52:09Z</time>
      </trkpt>
      <trkpt lat="59.4897553142" lon="18.0943557141">
        <ele>27.6</ele>
        <time>2013-03-14T20:52:14Z</time>
      </trkpt>
      <trkpt lat="59.4896384705" lon="18.0945750684">
        <ele>27.6</ele>
        <time>2013-03-14T20:52:18Z</time>
      </trkpt>
      <trkpt lat="59.4895811383" lon="18.0946932532">
        <ele>27.6</ele>
        <time>2013-03-14T20:52:20Z</time>
      </trkpt>
      <trkpt lat="59.4895435874" lon="18.0947525971">
        <ele>27.6</ele>
        <time>2013-03-14T20:52:21Z</time>
      </trkpt>
      <trkpt lat="59.489386343" lon="18.0949468057">
        <ele>27.6</ele>
        <time>2013-03-14T20:52:25Z</time>
      </trkpt>
      <trkpt lat="59.4891850097" lon="18.0951447862">
        <ele>27.6</ele>
        <time>2013-03-14T20:52:30Z</time>
      </trkpt>
      <trkpt lat="59.4889554295" lon="18.0953378213">
        <ele>27.6</ele>
        <time>2013-03-14T20:52:36Z</time>
      </trkpt>
      <trkpt lat="59.4887247596" lon="18.0954695848">
        <ele>27.6</ele>
        <time>2013-03-14T20:52:42Z</time>
      </trkpt>
      <trkpt lat="59.4885559481" lon="18.0954170303">
        <ele>27.6</ele>
        <time>2013-03-14T20:52:46Z</time>
      </trkpt>
      <trkpt lat="59.4885116917" lon="18.0953906273">
        <ele>27.6</ele>
        <time>2013-03-14T20:52:47Z</time>
      </trkpt>
      <trkpt lat="59.4884299682" lon="18.0953301938">
        <ele>27.6</ele>
        <time>2013-03-14T20:52:49Z</time>
      </trkpt>
      <trkpt lat="59.4882598994" lon="18.0952265097">
        <ele>27.6</ele>
        <time>2013-03-14T20:52:53Z</time>
      </trkpt>
      <trkpt lat="59.4881800199" lon="18.0951713568">
        <ele>27.6</ele>
        <time>2013-03-14T20:52:55Z</time>
      </trkpt>
      <trkpt lat="59.4880192551" lon="18.0950593746">
        <ele>27.6</ele>
        <time>2013-03-14T20:52:59Z</time>
      </trkpt>
      <trkpt lat="59.4878289859" lon="18.0949241746">
        <ele>27.6</ele>
        <time>2013-03-14T20:53:04Z</time>
      </trkpt>
      <trkpt lat="59.4876838114" lon="18.0948206581">
        <ele>27.6</ele>
        <time>2013-03-14T20:53:08Z</time>
      </trkpt>
      <trkpt lat="59.4874706597" lon="18.0946634137">
        <ele>27.6</ele>
        <time>2013-03-14T20:53:14Z</time>
      </trkpt>
      <trkpt lat="59.4872124134" lon="18.0945373499">
        <ele>27.6</ele>
        <time>2013-03-14T20:53:21Z</time>
      </trkpt>
      <trkpt lat="59.4870514809" lon="18.0944375215">
        <ele>27.6</ele>
        <time>2013-03-14T20:53:26Z</time>
      </trkpt>
      <trkpt lat="59.4868592001" lon="18.0942342604">
        <ele>27.6</ele>
        <time>2013-03-14T20:53:32Z</time>
      </trkpt>
      <trkpt lat="59.4867628083" lon="18.0941218591">
        <ele>28</ele>
        <time>2013-03-14T20:53:35Z</time>
      </trkpt>
      <trkpt lat="59.4867285263" lon="18.0940857331">
        <ele>28.4</ele>
        <time>2013-03-14T20:53:36Z</time>
      </trkpt>
      <trkpt lat="59.4866924841" lon="18.0940474278">
        <ele>28.8</ele>
        <time>2013-03-14T20:53:37Z</time>
      </trkpt>
      <trkpt lat="59.4866584536" lon="18.0940113857">
        <ele>29.2</ele>
        <time>2013-03-14T20:53:38Z</time>
      </trkpt>
      <trkpt lat="59.4866256804" lon="18.0939794506">
        <ele>29.6</ele>
        <time>2013-03-14T20:53:39Z</time>
      </trkpt>
      <trkpt lat="59.4864242633" lon="18.0937698193">
        <ele>29.6</ele>
        <time>2013-03-14T20:53:45Z</time>
      </trkpt>
      <trkpt lat="59.4862324016" lon="18.0935352099">
        <ele>29.6</ele>
        <time>2013-03-14T20:53:51Z</time>
      </trkpt>
      <trkpt lat="59.4860075153" lon="18.0931947372">
        <ele>29.6</ele>
        <time>2013-03-14T20:53:58Z</time>
      </trkpt>
      <trkpt lat="59.4857861493" lon="18.0928739618">
        <ele>29.6</ele>
        <time>2013-03-14T20:54:05Z</time>
      </trkpt>
      <trkpt lat="59.4855994005" lon="18.0927354929">
        <ele>29.6</ele>
        <time>2013-03-14T20:54:10Z</time>
      </trkpt>
      <trkpt lat="59.48544685" lon="18.0926639952">
        <ele>29.6</ele>
        <time>2013-03-14T20:54:14Z</time>
      </trkpt>
      <trkpt lat="59.485303268" lon="18.0925549467">
        <ele>29.6</ele>
        <time>2013-03-14T20:54:18Z</time>
      </trkpt>
      <trkpt lat="59.4852738476" lon="18.0924985365">
        <ele>29.6</ele>
        <time>2013-03-14T20:54:19Z</time>
      </trkpt>
      <trkpt lat="59.4852001707" lon="18.0922972871">
        <ele>29.6</ele>
        <time>2013-03-14T20:54:22Z</time>
      </trkpt>
      <trkpt lat="59.4851836583" lon="18.0922220177">
        <ele>29.6</ele>
        <time>2013-03-14T20:54:23Z</time>
      </trkpt>
      <trkpt lat="59.4851204588" lon="18.0917729155">
        <ele>29.6</ele>
        <time>2013-03-14T20:54:28Z</time>
      </trkpt>
      <trkpt lat="59.4850736878" lon="18.0912330373">
        <ele>29.6</ele>
        <time>2013-03-14T20:54:34Z</time>
      </trkpt>
      <trkpt lat="59.485121297" lon="18.0907704402">
        <ele>29.2</ele>
        <time>2013-03-14T20:54:39Z</time>
      </trkpt>
      <trkpt lat="59.4851423355" lon="18.0906810053">
        <ele>28.8</ele>
        <time>2013-03-14T20:54:40Z</time>
      </trkpt>
      <trkpt lat="59.4851674812" lon="18.0905916543">
        <ele>28.4</ele>
        <time>2013-03-14T20:54:41Z</time>
      </trkpt>
      <trkpt lat="59.4851967341" lon="18.0905038958">
        <ele>28</ele>
        <time>2013-03-14T20:54:42Z</time>
      </trkpt>
      <trkpt lat="59.4852259031" lon="18.0904294645">
        <ele>27.6</ele>
        <time>2013-03-14T20:54:43Z</time>
      </trkpt>
      <trkpt lat="59.4852595983" lon="18.0903604815">
        <ele>27.6</ele>
        <time>2013-03-14T20:54:44Z</time>
      </trkpt>
      <trkpt lat="59.4854358697" lon="18.0902001357">
        <ele>27.6</ele>
        <time>2013-03-14T20:54:48Z</time>
      </trkpt>
      <trkpt lat="59.4856143203" lon="18.0902845415">
        <ele>27.6</ele>
        <time>2013-03-14T20:54:52Z</time>
      </trkpt>
      <trkpt lat="59.4856846445" lon="18.0903973619">
        <ele>27.6</ele>
        <time>2013-03-14T20:54:54Z</time>
      </trkpt>
      <trkpt lat="59.4857790247" lon="18.0905580429">
        <ele>27.6</ele>
        <time>2013-03-14T20:54:57Z</time>
      </trkpt>
      <trkpt lat="59.4859651028" lon="18.0908612162">
        <ele>27.6</ele>
        <time>2013-03-14T20:55:03Z</time>
      </trkpt>
      <trkpt lat="59.4861488341" lon="18.0911430995">
        <ele>27.6</ele>
        <time>2013-03-14T20:55:09Z</time>
      </trkpt>
      <trkpt lat="59.4862199126" lon="18.0912034492">
        <ele>27.6</ele>
        <time>2013-03-14T20:55:11Z</time>
      </trkpt>
      <trkpt lat="59.4863377621" lon="18.0912302713">
        <ele>27.6</ele>
        <time>2013-03-14T20:55:14Z</time>
      </trkpt>
      <trkpt lat="59.4865224154" lon="18.0910783074">
        <ele>27.6</ele>
        <time>2013-03-14T20:55:19Z</time>
      </trkpt>
      <trkpt lat="59.4866216571" lon="18.0907903891">
        <ele>27.6</ele>
        <time>2013-03-14T20:55:23Z</time>
      </trkpt>
      <trkpt lat="59.4866405163" lon="18.0907123537">
        <ele>27.6</ele>
        <time>2013-03-14T20:55:24Z</time>
      </trkpt>
      <trkpt lat="59.4866702721" lon="18.0905391836">
        <ele>27.6</ele>
        <time>2013-03-14T20:55:26Z</time>
      </trkpt>
      <trkpt lat="59.4866952502" lon="18.0902782551">
        <ele>27.6</ele>
        <time>2013-03-14T20:55:29Z</time>
      </trkpt>
      <trkpt lat="59.4867006146" lon="18.0901070128">
        <ele>27.6</ele>
        <time>2013-03-14T20:55:31Z</time>
      </trkpt>
      <trkpt lat="59.486699944" lon="18.090027301">
        <ele>27.2</ele>
        <time>2013-03-14T20:55:32Z</time>
      </trkpt>
      <trkpt lat="59.4866989382" lon="18.0899407998">
        <ele>26.8</ele>
        <time>2013-03-14T20:55:33Z</time>
      </trkpt>
      <trkpt lat="59.486693909" lon="18.0898521193">
        <ele>26.4</ele>
        <time>2013-03-14T20:55:34Z</time>
      </trkpt>
      <trkpt lat="59.4866871197" lon="18.0897756763">
        <ele>26</ele>
        <time>2013-03-14T20:55:35Z</time>
      </trkpt>
      <trkpt lat="59.4866742954" lon="18.0897002392">
        <ele>25.6</ele>
        <time>2013-03-14T20:55:36Z</time>
      </trkpt>
      <trkpt lat="59.4866067373" lon="18.0894842377">
        <ele>25.6</ele>
        <time>2013-03-14T20:55:39Z</time>
      </trkpt>
      <trkpt lat="59.4865787417" lon="18.0894315993">
        <ele>25.6</ele>
        <time>2013-03-14T20:55:40Z</time>
      </trkpt>
      <trkpt lat="59.4865446274" lon="18.0893841578">
        <ele>25.6</ele>
        <time>2013-03-14T20:55:41Z</time>
      </trkpt>
      <trkpt lat="59.4864442961" lon="18.0892422522">
        <ele>25.6</ele>
        <time>2013-03-14T20:55:44Z</time>
      </trkpt>
      <trkpt lat="59.4862838665" lon="18.0889232371">
        <ele>25.6</ele>
        <time>2013-03-14T20:55:50Z</time>
      </trkpt>
      <trkpt lat="59.4862215052" lon="18.0886385878">
        <ele>25.6</ele>
        <time>2013-03-14T20:55:54Z</time>
      </trkpt>
      <trkpt lat="59.4862125365" lon="18.0885647432">
        <ele>25.6</ele>
        <time>2013-03-14T20:55:55Z</time>
      </trkpt>
      <trkpt lat="59.4862068368" lon="18.0882109432">
        <ele>25.6</ele>
        <time>2013-03-14T20:56:00Z</time>
      </trkpt>
      <trkpt lat="59.4862279592" lon="18.0877338455">
        <ele>25.6</ele>
        <time>2013-03-14T20:56:06Z</time>
      </trkpt>
      <trkpt lat="59.486208597" lon="18.0871119923">
        <ele>25.6</ele>
        <time>2013-03-14T20:56:13Z</time>
      </trkpt>
      <trkpt lat="59.4861849601" lon="18.0866959148">
        <ele>25.6</ele>
        <time>2013-03-14T20:56:18Z</time>
      </trkpt>
      <trkpt lat="59.4861886481" lon="18.0866100003">
        <ele>25.6</ele>
        <time>2013-03-14T20:56:19Z</time>
      </trkpt>
      <trkpt lat="59.4862719642" lon="18.0863245966">
        <ele>25.6</ele>
        <time>2013-03-14T20:56:23Z</time>
      </trkpt>
      <trkpt lat="59.4864367524" lon="18.0861313938">
        <ele>25.6</ele>
        <time>2013-03-14T20:56:27Z</time>
      </trkpt>
      <trkpt lat="59.4864741356" lon="18.0860895682">
        <ele>25.6</ele>
        <time>2013-03-14T20:56:28Z</time>
      </trkpt>
      <trkpt lat="59.4865079147" lon="18.0860412046">
        <ele>25.6</ele>
        <time>2013-03-14T20:56:29Z</time>
      </trkpt>
      <trkpt lat="59.4865630676" lon="18.0858557132">
        <ele>25.6</ele>
        <time>2013-03-14T20:56:32Z</time>
      </trkpt>
      <trkpt lat="59.4865748861" lon="18.0857124665">
        <ele>25.6</ele>
        <time>2013-03-14T20:56:34Z</time>
      </trkpt>
      <trkpt lat="59.4866001156" lon="18.0854170045">
        <ele>25.6</ele>
        <time>2013-03-14T20:56:38Z</time>
      </trkpt>
      <trkpt lat="59.486689299" lon="18.0850975703">
        <ele>25.6</ele>
        <time>2013-03-14T20:56:43Z</time>
      </trkpt>
      <trkpt lat="59.4867955815" lon="18.0847779685">
        <ele>25.6</ele>
        <time>2013-03-14T20:56:48Z</time>
      </trkpt>
      <trkpt lat="59.4868389159" lon="18.084685097">
        <ele>25.6</ele>
        <time>2013-03-14T20:56:50Z</time>
      </trkpt>
      <trkpt lat="59.486898176" lon="18.0846439419">
        <ele>25.6</ele>
        <time>2013-03-14T20:56:52Z</time>
      </trkpt>
      <trkpt lat="59.4869705956" lon="18.0847156909">
        <ele>25.6</ele>
        <time>2013-03-14T20:56:55Z</time>
      </trkpt>
      <trkpt lat="59.4869961604" lon="18.0848182854">
        <ele>25.6</ele>
        <time>2013-03-14T20:56:57Z</time>
      </trkpt>
      <trkpt lat="59.4869877785" lon="18.0848788865">
        <ele>25.6</ele>
        <time>2013-03-14T20:56:58Z</time>
      </trkpt>
      <trkpt lat="59.4868955776" lon="18.0851885139">
        <ele>25.6</ele>
        <time>2013-03-14T20:57:03Z</time>
      </trkpt>
      <trkpt lat="59.4868339706" lon="18.0854777733">
        <ele>25.6</ele>
        <time>2013-03-14T20:57:07Z</time>
      </trkpt>
      <trkpt lat="59.4868283547" lon="18.0855588263">
        <ele>25.6</ele>
        <time>2013-03-14T20:57:08Z</time>
      </trkpt>
      <trkpt lat="59.4868537519" lon="18.0859847944">
        <ele>25.6</ele>
        <time>2013-03-14T20:57:14Z</time>
      </trkpt>
      <trkpt lat="59.4869377385" lon="18.0864631494">
        <ele>25.6</ele>
        <time>2013-03-14T20:57:20Z</time>
      </trkpt>
      <trkpt lat="59.4870170313" lon="18.0868622117">
        <ele>25.6</ele>
        <time>2013-03-14T20:57:25Z</time>
      </trkpt>
      <trkpt lat="59.4871327853" lon="18.087270997">
        <ele>25.6</ele>
        <time>2013-03-14T20:57:31Z</time>
      </trkpt>
      <trkpt lat="59.48720378" lon="18.0874615176">
        <ele>25.6</ele>
        <time>2013-03-14T20:57:34Z</time>
      </trkpt>
      <trkpt lat="59.4872819832" lon="18.0877407186">
        <ele>25.6</ele>
        <time>2013-03-14T20:57:38Z</time>
      </trkpt>
      <trkpt lat="59.4873435901" lon="18.0881805169">
        <ele>25.6</ele>
        <time>2013-03-14T20:57:44Z</time>
      </trkpt>
      <trkpt lat="59.4873960608" lon="18.0887743746">
        <ele>25.6</ele>
        <time>2013-03-14T20:57:52Z</time>
      </trkpt>
      <trkpt lat="59.4874186919" lon="18.0892049528">
        <ele>25.6</ele>
        <time>2013-03-14T20:57:58Z</time>
      </trkpt>
      <trkpt lat="59.4875011698" lon="18.0895173462">
        <ele>25.6</ele>
        <time>2013-03-14T20:58:03Z</time>
      </trkpt>
      <trkpt lat="59.4876709033" lon="18.0898811206">
        <ele>25.6</ele>
        <time>2013-03-14T20:58:09Z</time>
      </trkpt>
      <trkpt lat="59.487853042" lon="18.0901523589">
        <ele>25.6</ele>
        <time>2013-03-14T20:58:15Z</time>
      </trkpt>
      <trkpt lat="59.4880464963" lon="18.0903738087">
        <ele>25.6</ele>
        <time>2013-03-14T20:58:21Z</time>
      </trkpt>
      <trkpt lat="59.4882388609" lon="18.0905411953">
        <ele>25.6</ele>
        <time>2013-03-14T20:58:27Z</time>
      </trkpt>
      <trkpt lat="59.4883039882" lon="18.0905971863">
        <ele>26</ele>
        <time>2013-03-14T20:58:29Z</time>
      </trkpt>
      <trkpt lat="59.4883349174" lon="18.0906266068">
        <ele>26.4</ele>
        <time>2013-03-14T20:58:30Z</time>
      </trkpt>
      <trkpt lat="59.4883697861" lon="18.0906526745">
        <ele>26.8</ele>
        <time>2013-03-14T20:58:31Z</time>
      </trkpt>
      <trkpt lat="59.4884011344" lon="18.0906722882">
        <ele>27.2</ele>
        <time>2013-03-14T20:58:32Z</time>
      </trkpt>
      <trkpt lat="59.4884312255" lon="18.0906934106">
        <ele>27.6</ele>
        <time>2013-03-14T20:58:33Z</time>
      </trkpt>
      <trkpt lat="59.4885535174" lon="18.0907790736">
        <ele>27.6</ele>
        <time>2013-03-14T20:58:38Z</time>
      </trkpt>
      <trkpt lat="59.4887641545" lon="18.0908774771">
        <ele>27.6</ele>
        <time>2013-03-14T20:58:44Z</time>
      </trkpt>
      <trkpt lat="59.4889296132" lon="18.0909642297">
        <ele>27.6</ele>
        <time>2013-03-14T20:58:49Z</time>
      </trkpt>
      <trkpt lat="59.4890935632" lon="18.0911213904">
        <ele>27.6</ele>
        <time>2013-03-14T20:58:54Z</time>
      </trkpt>
      <trkpt lat="59.4893420865" lon="18.0914158465">
        <ele>27.6</ele>
        <time>2013-03-14T20:59:01Z</time>
      </trkpt>
      <trkpt lat="59.4894768675" lon="18.0916330215">
        <ele>27.6</ele>
        <time>2013-03-14T20:59:06Z</time>
      </trkpt>
      <trkpt lat="59.4896025122" lon="18.0919440739">
        <ele>27.6</ele>
        <time>2013-03-14T20:59:11Z</time>
      </trkpt>
      <trkpt lat="59.4897307552" lon="18.092391332">
        <ele>27.6</ele>
        <time>2013-03-14T20:59:17Z</time>
      </trkpt>
      <trkpt lat="59.4898720741" lon="18.0928124387">
        <ele>27.6</ele>
        <time>2013-03-14T20:59:23Z</time>
      </trkpt>
      <trkpt lat="59.4900121356" lon="18.0930640633">
        <ele>27.6</ele>
        <time>2013-03-14T20:59:28Z</time>
      </trkpt>
      <trkpt lat="59.4902231919" lon="18.0933014387">
        <ele>27.6</ele>
        <time>2013-03-14T20:59:34Z</time>
      </trkpt>
      <trkpt lat="59.4903403708" lon="18.093613916">
        <ele>27.6</ele>
        <time>2013-03-14T20:59:39Z</time>
      </trkpt>
      <trkpt lat="59.4904816058" lon="18.0938691448">
        <ele>27.6</ele>
        <time>2013-03-14T20:59:44Z</time>
      </trkpt>
      <trkpt lat="59.4906246011" lon="18.0939126469">
        <ele>27.6</ele>
        <time>2013-03-14T20:59:48Z</time>
      </trkpt>
      <trkpt lat="59.4907851983" lon="18.0938015867">
        <ele>27.6</ele>
        <time>2013-03-14T20:59:53Z</time>
      </trkpt>
      <trkpt lat="59.4909648224" lon="18.0937283289">
        <ele>27.6</ele>
        <time>2013-03-14T20:59:58Z</time>
      </trkpt>
      <trkpt lat="59.4912029522" lon="18.0936547358">
        <ele>27.6</ele>
        <time>2013-03-14T21:00:04Z</time>
      </trkpt>
      <trkpt lat="59.4914508049" lon="18.0935445138">
        <ele>27.6</ele>
        <time>2013-03-14T21:00:11Z</time>
      </trkpt>
      <trkpt lat="59.4916635376" lon="18.0933597768">
        <ele>27.6</ele>
        <time>2013-03-14T21:00:18Z</time>
      </trkpt>
      <trkpt lat="59.4917699877" lon="18.0933244051">
        <ele>28.4</ele>
        <time>2013-03-14T21:00:21Z</time>
      </trkpt>
      <trkpt lat="59.4918067004" lon="18.09331661">
        <ele>28.8</ele>
        <time>2013-03-14T21:00:22Z</time>
      </trkpt>
      <trkpt lat="59.4918424911" lon="18.0933121676">
        <ele>29.2</ele>
        <time>2013-03-14T21:00:23Z</time>
      </trkpt>
      <trkpt lat="59.4918789524" lon="18.0933113294">
        <ele>29.6</ele>
        <time>2013-03-14T21:00:24Z</time>
      </trkpt>
      <trkpt lat="59.4919158327" lon="18.0933233155">
        <ele>29.6</ele>
        <time>2013-03-14T21:00:25Z</time>
      </trkpt>
      <trkpt lat="59.491956485" lon="18.0933470363">
        <ele>29.6</ele>
        <time>2013-03-14T21:00:26Z</time>
      </trkpt>
      <trkpt lat="59.4920462551" lon="18.0935041131">
        <ele>29.6</ele>
        <time>2013-03-14T21:00:29Z</time>
      </trkpt>
      <trkpt lat="59.4920695568" lon="18.0935718388">
        <ele>29.6</ele>
        <time>2013-03-14T21:00:30Z</time>
      </trkpt>
      <trkpt lat="59.4921994762" lon="18.0938817177">
        <ele>29.6</ele>
        <time>2013-03-14T21:00:35Z</time>
      </trkpt>
      <trkpt lat="59.4922326686" lon="18.0939247168">
        <ele>29.6</ele>
        <time>2013-03-14T21:00:36Z</time>
      </trkpt>
      <trkpt lat="59.4923634262" lon="18.0940550554">
        <ele>29.6</ele>
        <time>2013-03-14T21:00:40Z</time>
      </trkpt>
      <trkpt lat="59.492615889" lon="18.0943160677">
        <ele>29.6</ele>
        <time>2013-03-14T21:00:47Z</time>
      </trkpt>
      <trkpt lat="59.4928218323" lon="18.0945200832">
        <ele>29.6</ele>
        <time>2013-03-14T21:00:53Z</time>
      </trkpt>
      <trkpt lat="59.4930123529" lon="18.0946940914">
        <ele>29.6</ele>
        <time>2013-03-14T21:00:59Z</time>
      </trkpt>
      <trkpt lat="59.4932255046" lon="18.0947857056">
        <ele>29.6</ele>
        <time>2013-03-14T21:01:05Z</time>
      </trkpt>
      <trkpt lat="59.4934432664" lon="18.0947212488">
        <ele>29.6</ele>
        <time>2013-03-14T21:01:11Z</time>
      </trkpt>
      <trkpt lat="59.4937057037" lon="18.0947428741">
        <ele>29.6</ele>
        <time>2013-03-14T21:01:18Z</time>
      </trkpt>
      <trkpt lat="59.4939464318" lon="18.0947593864">
        <ele>29.6</ele>
        <time>2013-03-14T21:01:24Z</time>
      </trkpt>
      <trkpt lat="59.4941553926" lon="18.0947164711">
        <ele>29.6</ele>
        <time>2013-03-14T21:01:29Z</time>
      </trkpt>
      <trkpt lat="59.4943493498" lon="18.0945061692">
        <ele>29.6</ele>
        <time>2013-03-14T21:01:35Z</time>
      </trkpt>
      <trkpt lat="59.4944681213" lon="18.0942231125">
        <ele>29.6</ele>
        <time>2013-03-14T21:01:40Z</time>
      </trkpt>
      <trkpt lat="59.4945344221" lon="18.0937234674">
        <ele>29.6</ele>
        <time>2013-03-14T21:01:46Z</time>
      </trkpt>
      <trkpt lat="59.494508103" lon="18.0933160233">
        <ele>29.6</ele>
        <time>2013-03-14T21:01:51Z</time>
      </trkpt>
      <trkpt lat="59.4944379465" lon="18.0930311225">
        <ele>29.6</ele>
        <time>2013-03-14T21:01:55Z</time>
      </trkpt>
      <trkpt lat="59.4944129684" lon="18.0929672524">
        <ele>29.6</ele>
        <time>2013-03-14T21:01:56Z</time>
      </trkpt>
      <trkpt lat="59.4942258844" lon="18.0926920746">
        <ele>29.6</ele>
        <time>2013-03-14T21:02:02Z</time>
      </trkpt>
      <trkpt lat="59.493948192" lon="18.0923702935">
        <ele>29.6</ele>
        <time>2013-03-14T21:02:10Z</time>
      </trkpt>
      <trkpt lat="59.4937997486" lon="18.0922155636">
        <ele>29.6</ele>
        <time>2013-03-14T21:02:15Z</time>
      </trkpt>
      <trkpt lat="59.49364351" lon="18.0920751668">
        <ele>29.6</ele>
        <time>2013-03-14T21:02:20Z</time>
      </trkpt>
      <trkpt lat="59.4934659813" lon="18.0919015776">
        <ele>29.6</ele>
        <time>2013-03-14T21:02:26Z</time>
      </trkpt>
      <trkpt lat="59.493308234" lon="18.0917508711">
        <ele>29.6</ele>
        <time>2013-03-14T21:02:31Z</time>
      </trkpt>
      <trkpt lat="59.4931636462" lon="18.0916266513">
        <ele>29.6</ele>
        <time>2013-03-14T21:02:36Z</time>
      </trkpt>
      <trkpt lat="59.4931344772" lon="18.0915959736">
        <ele>30</ele>
        <time>2013-03-14T21:02:37Z</time>
      </trkpt>
      <trkpt lat="59.4931079066" lon="18.0915667207">
        <ele>30.4</ele>
        <time>2013-03-14T21:02:38Z</time>
      </trkpt>
      <trkpt lat="59.4930839343" lon="18.0915325226">
        <ele>30.8</ele>
        <time>2013-03-14T21:02:39Z</time>
      </trkpt>
      <trkpt lat="59.4930570284" lon="18.0914865898">
        <ele>31.2</ele>
        <time>2013-03-14T21:02:40Z</time>
      </trkpt>
      <trkpt lat="59.4930334753" lon="18.0914444288">
        <ele>31.6</ele>
        <time>2013-03-14T21:02:41Z</time>
      </trkpt>
      <trkpt lat="59.4930074914" lon="18.0914028546">
        <ele>31.6</ele>
        <time>2013-03-14T21:02:42Z</time>
      </trkpt>
      <trkpt lat="59.4928989458" lon="18.0911319516">
        <ele>31.6</ele>
        <time>2013-03-14T21:02:47Z</time>
      </trkpt>
      <trkpt lat="59.4928722075" lon="18.0909093283">
        <ele>31.6</ele>
        <time>2013-03-14T21:02:50Z</time>
      </trkpt>
      <trkpt lat="59.4928651667" lon="18.0907345657">
        <ele>31.6</ele>
        <time>2013-03-14T21:02:52Z</time>
      </trkpt>
      <trkpt lat="59.4928691062" lon="18.090552427">
        <ele>31.6</ele>
        <time>2013-03-14T21:02:54Z</time>
      </trkpt>
      <trkpt lat="59.4928896419" lon="18.0903753175">
        <ele>31.6</ele>
        <time>2013-03-14T21:02:56Z</time>
      </trkpt>
      <trkpt lat="59.4929098423" lon="18.0902856311">
        <ele>31.6</ele>
        <time>2013-03-14T21:02:57Z</time>
      </trkpt>
      <trkpt lat="59.4930297034" lon="18.0900035802">
        <ele>31.6</ele>
        <time>2013-03-14T21:03:01Z</time>
      </trkpt>
      <trkpt lat="59.4931963356" lon="18.089885563">
        <ele>31.6</ele>
        <time>2013-03-14T21:03:05Z</time>
      </trkpt>
      <trkpt lat="59.4932809928" lon="18.08987584">
        <ele>31.6</ele>
        <time>2013-03-14T21:03:07Z</time>
      </trkpt>
      <trkpt lat="59.4934539114" lon="18.089860585">
        <ele>31.6</ele>
        <time>2013-03-14T21:03:11Z</time>
      </trkpt>
      <trkpt lat="59.4937020156" lon="18.0898404684">
        <ele>31.6</ele>
        <time>2013-03-14T21:03:17Z</time>
      </trkpt>
      <trkpt lat="59.4938955537" lon="18.0898224473">
        <ele>31.6</ele>
        <time>2013-03-14T21:03:22Z</time>
      </trkpt>
      <trkpt lat="59.4941388803" lon="18.0897950385">
        <ele>31.6</ele>
        <time>2013-03-14T21:03:28Z</time>
      </trkpt>
      <trkpt lat="59.4941781076" lon="18.0897905961">
        <ele>31.2</ele>
        <time>2013-03-14T21:03:29Z</time>
      </trkpt>
      <trkpt lat="59.4942147365" lon="18.0897902608">
        <ele>30.8</ele>
        <time>2013-03-14T21:03:30Z</time>
      </trkpt>
      <trkpt lat="59.4942522874" lon="18.0897863213">
        <ele>30.4</ele>
        <time>2013-03-14T21:03:31Z</time>
      </trkpt>
      <trkpt lat="59.4942918499" lon="18.089788333">
        <ele>30</ele>
        <time>2013-03-14T21:03:32Z</time>
      </trkpt>
      <trkpt lat="59.4943301552" lon="18.089785567">
        <ele>29.6</ele>
        <time>2013-03-14T21:03:33Z</time>
      </trkpt>
      <trkpt lat="59.4943683767" lon="18.0897757601">
        <ele>29.6</ele>
        <time>2013-03-14T21:03:34Z</time>
      </trkpt>
      <trkpt lat="59.4945390322" lon="18.0897770174">
        <ele>29.6</ele>
        <time>2013-03-14T21:03:38Z</time>
      </trkpt>
      <trkpt lat="59.4945811093" lon="18.0897852317">
        <ele>29.6</ele>
        <time>2013-03-14T21:03:39Z</time>
      </trkpt>
      <trkpt lat="59.4947361745" lon="18.0898765106">
        <ele>29.6</ele>
        <time>2013-03-14T21:03:43Z</time>
      </trkpt>
      <trkpt lat="59.4948113601" lon="18.0899555519">
        <ele>29.6</ele>
        <time>2013-03-14T21:03:45Z</time>
      </trkpt>
      <trkpt lat="59.4948437142" lon="18.0899995569">
        <ele>29.6</ele>
        <time>2013-03-14T21:03:46Z</time>
      </trkpt>
      <trkpt lat="59.4949589654" lon="18.0902207552">
        <ele>29.6</ele>
        <time>2013-03-14T21:03:50Z</time>
      </trkpt>
      <trkpt lat="59.4950302115" lon="18.0904411154">
        <ele>29.6</ele>
        <time>2013-03-14T21:03:53Z</time>
      </trkpt>
      <trkpt lat="59.4950573689" lon="18.0905914867">
        <ele>29.6</ele>
        <time>2013-03-14T21:03:55Z</time>
      </trkpt>
      <trkpt lat="59.495076312" lon="18.090742277">
        <ele>29.6</ele>
        <time>2013-03-14T21:03:57Z</time>
      </trkpt>
      <trkpt lat="59.4950865379" lon="18.0910008587">
        <ele>29.6</ele>
        <time>2013-03-14T21:04:00Z</time>
      </trkpt>
      <trkpt lat="59.4950799162" lon="18.0915271582">
        <ele>29.6</ele>
        <time>2013-03-14T21:04:06Z</time>
      </trkpt>
      <trkpt lat="59.4950753061" lon="18.0919072773">
        <ele>29.6</ele>
        <time>2013-03-14T21:04:11Z</time>
      </trkpt>
      <trkpt lat="59.4951327222" lon="18.0922569702">
        <ele>29.6</ele>
        <time>2013-03-14T21:04:16Z</time>
      </trkpt>
      <trkpt lat="59.4952807465" lon="18.0925769073">
        <ele>29.6</ele>
        <time>2013-03-14T21:04:22Z</time>
      </trkpt>
      <trkpt lat="59.4953074009" lon="18.0926387657">
        <ele>29.6</ele>
        <time>2013-03-14T21:04:23Z</time>
      </trkpt>
      <trkpt lat="59.4954199699" lon="18.0930444497">
        <ele>29.6</ele>
        <time>2013-03-14T21:04:29Z</time>
      </trkpt>
      <trkpt lat="59.4954265077" lon="18.0931236586">
        <ele>29.6</ele>
        <time>2013-03-14T21:04:30Z</time>
      </trkpt>
      <trkpt lat="59.4954107498" lon="18.093331865">
        <ele>29.6</ele>
        <time>2013-03-14T21:04:33Z</time>
      </trkpt>
      <trkpt lat="59.4953760487" lon="18.093458767">
        <ele>29.6</ele>
        <time>2013-03-14T21:04:35Z</time>
      </trkpt>
      <trkpt lat="59.4953213149" lon="18.0935769518">
        <ele>29.6</ele>
        <time>2013-03-14T21:04:37Z</time>
      </trkpt>
      <trkpt lat="59.4951372484" lon="18.0938677199">
        <ele>29.6</ele>
        <time>2013-03-14T21:04:43Z</time>
      </trkpt>
      <trkpt lat="59.4949911519" lon="18.0940681311">
        <ele>29.6</ele>
        <time>2013-03-14T21:04:48Z</time>
      </trkpt>
      <trkpt lat="59.4948332369" lon="18.0943003098">
        <ele>29.6</ele>
        <time>2013-03-14T21:04:53Z</time>
      </trkpt>
      <trkpt lat="59.4946688678" lon="18.0945137968">
        <ele>29.6</ele>
        <time>2013-03-14T21:04:59Z</time>
      </trkpt>
      <trkpt lat="59.4945160658" lon="18.0946423751">
        <ele>29.6</ele>
        <time>2013-03-14T21:05:04Z</time>
      </trkpt>
      <trkpt lat="59.4943672032" lon="18.0948459715">
        <ele>29.6</ele>
        <time>2013-03-14T21:05:09Z</time>
      </trkpt>
      <trkpt lat="59.4943337594" lon="18.0948867913">
        <ele>29.6</ele>
        <time>2013-03-14T21:05:10Z</time>
      </trkpt>
      <trkpt lat="59.4942397983" lon="18.0949887152">
        <ele>29.6</ele>
        <time>2013-03-14T21:05:13Z</time>
      </trkpt>
      <trkpt lat="59.4940729985" lon="18.0951528328">
        <ele>29.6</ele>
        <time>2013-03-14T21:05:18Z</time>
      </trkpt>
      <trkpt lat="59.4939695659" lon="18.0954152701">
        <ele>29.6</ele>
        <time>2013-03-14T21:05:23Z</time>
      </trkpt>
      <trkpt lat="59.4939585856" lon="18.0954775476">
        <ele>29.6</ele>
        <time>2013-03-14T21:05:24Z</time>
      </trkpt>
      <trkpt lat="59.4939583341" lon="18.0957692377">
        <ele>29.6</ele>
        <time>2013-03-14T21:05:28Z</time>
      </trkpt>
      <trkpt lat="59.4939587532" lon="18.0960254724">
        <ele>29.6</ele>
        <time>2013-03-14T21:05:31Z</time>
      </trkpt>
      <trkpt lat="59.4939365412" lon="18.0962027496">
        <ele>29.6</ele>
        <time>2013-03-14T21:05:33Z</time>
      </trkpt>
      <trkpt lat="59.493818105" lon="18.0965405402">
        <ele>29.6</ele>
        <time>2013-03-14T21:05:38Z</time>
      </trkpt>
      <trkpt lat="59.4937917858" lon="18.0966004708">
        <ele>29.6</ele>
        <time>2013-03-14T21:05:39Z</time>
      </trkpt>
      <trkpt lat="59.4936237287" lon="18.0968158018">
        <ele>29.6</ele>
        <time>2013-03-14T21:05:44Z</time>
      </trkpt>
      <trkpt lat="59.4935223915" lon="18.0969867925">
        <ele>29.6</ele>
        <time>2013-03-14T21:05:47Z</time>
      </trkpt>
      <trkpt lat="59.4934653108" lon="18.0971453781">
        <ele>29.6</ele>
        <time>2013-03-14T21:05:49Z</time>
      </trkpt>
      <trkpt lat="59.4934324537" lon="18.0974806541">
        <ele>29.6</ele>
        <time>2013-03-14T21:05:53Z</time>
      </trkpt>
      <trkpt lat="59.4935234812" lon="18.0977800556">
        <ele>29.6</ele>
        <time>2013-03-14T21:05:57Z</time>
      </trkpt>
      <trkpt lat="59.4937108166" lon="18.0979718334">
        <ele>29.6</ele>
        <time>2013-03-14T21:06:02Z</time>
      </trkpt>
      <trkpt lat="59.4938541471" lon="18.0979852445">
        <ele>29.2</ele>
        <time>2013-03-14T21:06:05Z</time>
      </trkpt>
      <trkpt lat="59.493900499" lon="18.0979805506">
        <ele>28.8</ele>
        <time>2013-03-14T21:06:06Z</time>
      </trkpt>
      <trkpt lat="59.4939434144" lon="18.0979691512">
        <ele>28</ele>
        <time>2013-03-14T21:06:07Z</time>
      </trkpt>
      <trkpt lat="59.4939797918" lon="18.09795398">
        <ele>27.6</ele>
        <time>2013-03-14T21:06:08Z</time>
      </trkpt>
      <trkpt lat="59.4941284867" lon="18.0979148365">
        <ele>27.6</ele>
        <time>2013-03-14T21:06:12Z</time>
      </trkpt>
      <trkpt lat="59.4943522834" lon="18.097878962">
        <ele>27.6</ele>
        <time>2013-03-14T21:06:18Z</time>
      </trkpt>
      <trkpt lat="59.4943972104" lon="18.0978906966">
        <ele>27.6</ele>
        <time>2013-03-14T21:06:19Z</time>
      </trkpt>
      <trkpt lat="59.4945433908" lon="18.0980004995">
        <ele>27.6</ele>
        <time>2013-03-14T21:06:23Z</time>
      </trkpt>
      <trkpt lat="59.4945759964" lon="18.0980441692">
        <ele>27.6</ele>
        <time>2013-03-14T21:06:24Z</time>
      </trkpt>
      <trkpt lat="59.4946290538" lon="18.0981777767">
        <ele>27.6</ele>
        <time>2013-03-14T21:06:26Z</time>
      </trkpt>
      <trkpt lat="59.4946569655" lon="18.0983371166">
        <ele>27.6</ele>
        <time>2013-03-14T21:06:28Z</time>
      </trkpt>
      <trkpt lat="59.4946234379" lon="18.0986009788">
        <ele>27.6</ele>
        <time>2013-03-14T21:06:31Z</time>
      </trkpt>
      <trkpt lat="59.4944903333" lon="18.0988168966">
        <ele>27.6</ele>
        <time>2013-03-14T21:06:35Z</time>
      </trkpt>
      <trkpt lat="59.494321941" lon="18.0988257814">
        <ele>27.6</ele>
        <time>2013-03-14T21:06:39Z</time>
      </trkpt>
      <trkpt lat="59.4942822108" lon="18.0988113645">
        <ele>27.6</ele>
        <time>2013-03-14T21:06:40Z</time>
      </trkpt>
      <trkpt lat="59.4941244634" lon="18.0987579718">
        <ele>27.6</ele>
        <time>2013-03-14T21:06:44Z</time>
      </trkpt>
      <trkpt lat="59.4939336075" lon="18.0986901623">
        <ele>27.6</ele>
        <time>2013-03-14T21:06:49Z</time>
      </trkpt>
      <trkpt lat="59.493734705" lon="18.0986340873">
        <ele>27.6</ele>
        <time>2013-03-14T21:06:54Z</time>
      </trkpt>
      <trkpt lat="59.493578215" lon="18.0985533696">
        <ele>27.6</ele>
        <time>2013-03-14T21:06:58Z</time>
      </trkpt>
      <trkpt lat="59.4934662328" lon="18.0984488474">
        <ele>27.6</ele>
        <time>2013-03-14T21:07:01Z</time>
      </trkpt>
      <trkpt lat="59.4933998481" lon="18.0983481807">
        <ele>27.6</ele>
        <time>2013-03-14T21:07:03Z</time>
      </trkpt>
      <trkpt lat="59.4933710144" lon="18.0982868252">
        <ele>27.6</ele>
        <time>2013-03-14T21:07:04Z</time>
      </trkpt>
      <trkpt lat="59.493311" lon="18.0980678062">
        <ele>27.6</ele>
        <time>2013-03-14T21:07:07Z</time>
      </trkpt>
      <trkpt lat="59.4932949068" lon="18.0979898545">
        <ele>27.6</ele>
        <time>2013-03-14T21:07:08Z</time>
      </trkpt>
      <trkpt lat="59.493252662" lon="18.0975938936">
        <ele>27.6</ele>
        <time>2013-03-14T21:07:13Z</time>
      </trkpt>
      <trkpt lat="59.4932332998" lon="18.0972502357">
        <ele>27.6</ele>
        <time>2013-03-14T21:07:17Z</time>
      </trkpt>
      <trkpt lat="59.4932071483" lon="18.0970939132">
        <ele>27.6</ele>
        <time>2013-03-14T21:07:19Z</time>
      </trkpt>
      <trkpt lat="59.493184098" lon="18.0970188114">
        <ele>27.6</ele>
        <time>2013-03-14T21:07:20Z</time>
      </trkpt>
      <trkpt lat="59.4931027936" lon="18.0968544423">
        <ele>27.6</ele>
        <time>2013-03-14T21:07:23Z</time>
      </trkpt>
      <trkpt lat="59.4930783185" lon="18.09678789">
        <ele>27.6</ele>
        <time>2013-03-14T21:07:24Z</time>
      </trkpt>
      <trkpt lat="59.4930609679" lon="18.096717985">
        <ele>27.6</ele>
        <time>2013-03-14T21:07:25Z</time>
      </trkpt>
      <trkpt lat="59.4930685116" lon="18.096497541">
        <ele>27.6</ele>
        <time>2013-03-14T21:07:28Z</time>
      </trkpt>
      <trkpt lat="59.4931195574" lon="18.0963693818">
        <ele>28</ele>
        <time>2013-03-14T21:07:30Z</time>
      </trkpt>
      <trkpt lat="59.4931561863" lon="18.096323449">
        <ele>28.4</ele>
        <time>2013-03-14T21:07:31Z</time>
      </trkpt>
      <trkpt lat="59.4931949945" lon="18.0962888317">
        <ele>28.8</ele>
        <time>2013-03-14T21:07:32Z</time>
      </trkpt>
      <trkpt lat="59.4932314558" lon="18.0962652786">
        <ele>29.2</ele>
        <time>2013-03-14T21:07:33Z</time>
      </trkpt>
      <trkpt lat="59.4932727785" lon="18.0962492692">
        <ele>29.6</ele>
        <time>2013-03-14T21:07:34Z</time>
      </trkpt>
      <trkpt lat="59.493314688" lon="18.0962273086">
        <ele>29.6</ele>
        <time>2013-03-14T21:07:35Z</time>
      </trkpt>
      <trkpt lat="59.4933613752" lon="18.0962004027">
        <ele>29.6</ele>
        <time>2013-03-14T21:07:36Z</time>
      </trkpt>
      <trkpt lat="59.4934456133" lon="18.0961279831">
        <ele>29.6</ele>
        <time>2013-03-14T21:07:38Z</time>
      </trkpt>
      <trkpt lat="59.4935046219" lon="18.0960207786">
        <ele>29.6</ele>
        <time>2013-03-14T21:07:40Z</time>
      </trkpt>
      <trkpt lat="59.4935599424" lon="18.095716767">
        <ele>29.6</ele>
        <time>2013-03-14T21:07:44Z</time>
      </trkpt>
      <trkpt lat="59.4935157698" lon="18.0954411702">
        <ele>29.6</ele>
        <time>2013-03-14T21:07:48Z</time>
      </trkpt>
      <trkpt lat="59.4933803183" lon="18.0952354784">
        <ele>29.6</ele>
        <time>2013-03-14T21:07:52Z</time>
      </trkpt>
      <trkpt lat="59.4932099981" lon="18.0951516594">
        <ele>29.6</ele>
        <time>2013-03-14T21:07:56Z</time>
      </trkpt>
      <trkpt lat="59.4931659093" lon="18.0951392541">
        <ele>29.6</ele>
        <time>2013-03-14T21:07:57Z</time>
      </trkpt>
      <trkpt lat="59.4929965949" lon="18.095103212">
        <ele>29.6</ele>
        <time>2013-03-14T21:08:01Z</time>
      </trkpt>
      <trkpt lat="59.4929542663" lon="18.0950985181">
        <ele>29.6</ele>
        <time>2013-03-14T21:08:02Z</time>
      </trkpt>
      <trkpt lat="59.4927435454" lon="18.0950571953">
        <ele>29.6</ele>
        <time>2013-03-14T21:08:07Z</time>
      </trkpt>
      <trkpt lat="59.4925226823" lon="18.0949455484">
        <ele>29.6</ele>
        <time>2013-03-14T21:08:12Z</time>
      </trkpt>
      <trkpt lat="59.4923095306" lon="18.0947862085">
        <ele>29.6</ele>
        <time>2013-03-14T21:08:17Z</time>
      </trkpt>
      <trkpt lat="59.4920993964" lon="18.0946050757">
        <ele>29.6</ele>
        <time>2013-03-14T21:08:22Z</time>
      </trkpt>
      <trkpt lat="59.4918438322" lon="18.0944291396">
        <ele>29.6</ele>
        <time>2013-03-14T21:08:28Z</time>
      </trkpt>
      <trkpt lat="59.4917122364" lon="18.094387733">
        <ele>29.2</ele>
        <time>2013-03-14T21:08:31Z</time>
      </trkpt>
      <trkpt lat="59.4916681476" lon="18.0943880683">
        <ele>28.8</ele>
        <time>2013-03-14T21:08:32Z</time>
      </trkpt>
      <trkpt lat="59.4916287527" lon="18.0943944385">
        <ele>28.4</ele>
        <time>2013-03-14T21:08:33Z</time>
      </trkpt>
      <trkpt lat="59.4915831551" lon="18.094402988">
        <ele>28</ele>
        <time>2013-03-14T21:08:34Z</time>
      </trkpt>
      <trkpt lat="59.4915365518" lon="18.0944145551">
        <ele>27.6</ele>
        <time>2013-03-14T21:08:35Z</time>
      </trkpt>
      <trkpt lat="59.4914909542" lon="18.094440958">
        <ele>27.6</ele>
        <time>2013-03-14T21:08:36Z</time>
      </trkpt>
      <trkpt lat="59.4914133378" lon="18.0945320693">
        <ele>27.6</ele>
        <time>2013-03-14T21:08:38Z</time>
      </trkpt>
      <trkpt lat="59.4912958236" lon="18.0948187303">
        <ele>27.6</ele>
        <time>2013-03-14T21:08:42Z</time>
      </trkpt>
      <trkpt lat="59.4912753718" lon="18.0952011126">
        <ele>27.6</ele>
        <time>2013-03-14T21:08:46Z</time>
      </trkpt>
      <trkpt lat="59.4913648066" lon="18.0954766256">
        <ele>27.6</ele>
        <time>2013-03-14T21:08:50Z</time>
      </trkpt>
      <trkpt lat="59.491567481" lon="18.0956834071">
        <ele>27.6</ele>
        <time>2013-03-14T21:08:55Z</time>
      </trkpt>
      <trkpt lat="59.4918942074" lon="18.0959121491">
        <ele>27.6</ele>
        <time>2013-03-14T21:09:02Z</time>
      </trkpt>
      <trkpt lat="59.4919360331" lon="18.0959528852">
        <ele>27.6</ele>
        <time>2013-03-14T21:09:03Z</time>
      </trkpt>
      <trkpt lat="59.4920869073" lon="18.0961649472">
        <ele>27.6</ele>
        <time>2013-03-14T21:09:07Z</time>
      </trkpt>
      <trkpt lat="59.492122698" lon="18.0962303261">
        <ele>27.6</ele>
        <time>2013-03-14T21:09:08Z</time>
      </trkpt>
      <trkpt lat="59.4922693813" lon="18.0965704636">
        <ele>27.6</ele>
        <time>2013-03-14T21:09:13Z</time>
      </trkpt>
      <trkpt lat="59.4924185791" lon="18.0969111878">
        <ele>27.6</ele>
        <time>2013-03-14T21:09:18Z</time>
      </trkpt>
      <trkpt lat="59.4925646756" lon="18.0972483078">
        <ele>27.6</ele>
        <time>2013-03-14T21:09:23Z</time>
      </trkpt>
      <trkpt lat="59.4927334871" lon="18.0975481284">
        <ele>27.6</ele>
        <time>2013-03-14T21:09:28Z</time>
      </trkpt>
      <trkpt lat="59.4929521709" lon="18.097842836">
        <ele>27.6</ele>
        <time>2013-03-14T21:09:34Z</time>
      </trkpt>
      <trkpt lat="59.4931161208" lon="18.0981054409">
        <ele>27.6</ele>
        <time>2013-03-14T21:09:39Z</time>
      </trkpt>
      <trkpt lat="59.4931421047" lon="18.0981626893">
        <ele>27.6</ele>
        <time>2013-03-14T21:09:40Z</time>
      </trkpt>
      <trkpt lat="59.493174375" lon="18.0983119709">
        <ele>27.6</ele>
        <time>2013-03-14T21:09:42Z</time>
      </trkpt>
      <trkpt lat="59.4931907197" lon="18.0984773458">
        <ele>27.6</ele>
        <time>2013-03-14T21:09:44Z</time>
      </trkpt>
      <trkpt lat="59.4931765543" lon="18.098749087">
        <ele>27.6</ele>
        <time>2013-03-14T21:09:47Z</time>
      </trkpt>
      <trkpt lat="59.4931657417" lon="18.098827374">
        <ele>27.6</ele>
        <time>2013-03-14T21:09:48Z</time>
      </trkpt>
      <trkpt lat="59.4931522468" lon="18.0989045713">
        <ele>27.6</ele>
        <time>2013-03-14T21:09:49Z</time>
      </trkpt>
      <trkpt lat="59.4930530051" lon="18.099164494">
        <ele>27.6</ele>
        <time>2013-03-14T21:09:53Z</time>
      </trkpt>
      <trkpt lat="59.492979915" lon="18.0992389252">
        <ele>27.6</ele>
        <time>2013-03-14T21:09:55Z</time>
      </trkpt>
      <trkpt lat="59.4928944196" lon="18.0992693515">
        <ele>27.6</ele>
        <time>2013-03-14T21:09:57Z</time>
      </trkpt>
      <trkpt lat="59.4927756481" lon="18.0992504923">
        <ele>27.6</ele>
        <time>2013-03-14T21:10:00Z</time>
      </trkpt>
      <trkpt lat="59.492685375" lon="18.0992194792">
        <ele>27.6</ele>
        <time>2013-03-14T21:10:02Z</time>
      </trkpt>
      <trkpt lat="59.4925174855" lon="18.0991965128">
        <ele>27.6</ele>
        <time>2013-03-14T21:10:06Z</time>
      </trkpt>
      <trkpt lat="59.4923018192" lon="18.0992426133">
        <ele>27.6</ele>
        <time>2013-03-14T21:10:11Z</time>
      </trkpt>
      <trkpt lat="59.4920492726" lon="18.0992582874">
        <ele>27.6</ele>
        <time>2013-03-14T21:10:17Z</time>
      </trkpt>
      <trkpt lat="59.4918477717" lon="18.0992430324">
        <ele>27.6</ele>
        <time>2013-03-14T21:10:22Z</time>
      </trkpt>
      <trkpt lat="59.4915991646" lon="18.0991924895">
        <ele>27.6</ele>
        <time>2013-03-14T21:10:28Z</time>
      </trkpt>
      <trkpt lat="59.4913494678" lon="18.0991219977">
        <ele>27.6</ele>
        <time>2013-03-14T21:10:34Z</time>
      </trkpt>
      <trkpt lat="59.4911939835" lon="18.0990594688">
        <ele>27.6</ele>
        <time>2013-03-14T21:10:38Z</time>
      </trkpt>
      <trkpt lat="59.4911534151" lon="18.0990359994">
        <ele>27.6</ele>
        <time>2013-03-14T21:10:39Z</time>
      </trkpt>
      <trkpt lat="59.491047887" lon="18.0989632446">
        <ele>27.6</ele>
        <time>2013-03-14T21:10:42Z</time>
      </trkpt>
      <trkpt lat="59.491009917" lon="18.0989229276">
        <ele>27.6</ele>
        <time>2013-03-14T21:10:43Z</time>
      </trkpt>
      <trkpt lat="59.4908260181" lon="18.098690749">
        <ele>27.6</ele>
        <time>2013-03-14T21:10:48Z</time>
      </trkpt>
      <trkpt lat="59.4907626509" lon="18.0985663616">
        <ele>27.6</ele>
        <time>2013-03-14T21:10:50Z</time>
      </trkpt>
      <trkpt lat="59.490692243" lon="18.0983382063">
        <ele>27.6</ele>
        <time>2013-03-14T21:10:53Z</time>
      </trkpt>
      <trkpt lat="59.4906766527" lon="18.0982514536">
        <ele>27.6</ele>
        <time>2013-03-14T21:10:54Z</time>
      </trkpt>
      <trkpt lat="59.4905933366" lon="18.0977604419">
        <ele>27.6</ele>
        <time>2013-03-14T21:11:00Z</time>
      </trkpt>
      <trkpt lat="59.4905432966" lon="18.0973406764">
        <ele>27.6</ele>
        <time>2013-03-14T21:11:05Z</time>
      </trkpt>
      <trkpt lat="59.4905049075" lon="18.0969033926">
        <ele>27.6</ele>
        <time>2013-03-14T21:11:10Z</time>
      </trkpt>
      <trkpt lat="59.4904474915" lon="18.0962615905">
        <ele>27.6</ele>
        <time>2013-03-14T21:11:17Z</time>
      </trkpt>
      <trkpt lat="59.4904254471" lon="18.0958808847">
        <ele>27.6</ele>
        <time>2013-03-14T21:11:21Z</time>
      </trkpt>
      <trkpt lat="59.4904867188" lon="18.0954503064">
        <ele>27.6</ele>
        <time>2013-03-14T21:11:26Z</time>
      </trkpt>
      <trkpt lat="59.4905395248" lon="18.0952063932">
        <ele>27.6</ele>
        <time>2013-03-14T21:11:29Z</time>
      </trkpt>
      <trkpt lat="59.490549583" lon="18.0950509927">
        <ele>27.6</ele>
        <time>2013-03-14T21:11:31Z</time>
      </trkpt>
      <trkpt lat="59.490495436" lon="18.0946920798">
        <ele>27.6</ele>
        <time>2013-03-14T21:11:36Z</time>
      </trkpt>
      <trkpt lat="59.4904151374" lon="18.0945043252">
        <ele>27.6</ele>
        <time>2013-03-14T21:11:39Z</time>
      </trkpt>
      <trkpt lat="59.4903510158" lon="18.094384967">
        <ele>27.6</ele>
        <time>2013-03-14T21:11:41Z</time>
      </trkpt>
      <trkpt lat="59.4901816176" lon="18.0941739107">
        <ele>27.6</ele>
        <time>2013-03-14T21:11:46Z</time>
      </trkpt>
      <trkpt lat="59.4899949527" lon="18.0941232002">
        <ele>27.6</ele>
        <time>2013-03-14T21:11:51Z</time>
      </trkpt>
      <trkpt lat="59.4898290749" lon="18.0942097852">
        <ele>27.6</ele>
        <time>2013-03-14T21:11:56Z</time>
      </trkpt>
      <trkpt lat="59.4896902707" lon="18.0944055026">
        <ele>27.6</ele>
        <time>2013-03-14T21:12:01Z</time>
      </trkpt>
      <trkpt lat="59.4895117362" lon="18.0947226737">
        <ele>27.6</ele>
        <time>2013-03-14T21:12:07Z</time>
      </trkpt>
      <trkpt lat="59.489396066" lon="18.0948650822">
        <ele>27.6</ele>
        <time>2013-03-14T21:12:10Z</time>
      </trkpt>
      <trkpt lat="59.4892834971" lon="18.094978154">
        <ele>27.6</ele>
        <time>2013-03-14T21:12:13Z</time>
      </trkpt>
      <trkpt lat="59.4890336326" lon="18.095218044">
        <ele>27.6</ele>
        <time>2013-03-14T21:12:20Z</time>
      </trkpt>
      <trkpt lat="59.488774129" lon="18.0954496359">
        <ele>27.6</ele>
        <time>2013-03-14T21:12:27Z</time>
      </trkpt>
      <trkpt lat="59.4885812615" lon="18.0954285973">
        <ele>27.6</ele>
        <time>2013-03-14T21:12:32Z</time>
      </trkpt>
      <trkpt lat="59.4883845383" lon="18.095293062">
        <ele>27.6</ele>
        <time>2013-03-14T21:12:37Z</time>
      </trkpt>
      <trkpt lat="59.4881065107" lon="18.0950912259">
        <ele>27.6</ele>
        <time>2013-03-14T21:12:44Z</time>
      </trkpt>
      <trkpt lat="59.4878631841" lon="18.0949281141">
        <ele>27.6</ele>
        <time>2013-03-14T21:12:50Z</time>
      </trkpt>
      <trkpt lat="59.4876194384" lon="18.0947599732">
        <ele>27.6</ele>
        <time>2013-03-14T21:12:56Z</time>
      </trkpt>
      <trkpt lat="59.4873977372" lon="18.0946056624">
        <ele>27.6</ele>
        <time>2013-03-14T21:13:02Z</time>
      </trkpt>
      <trkpt lat="59.4871213021" lon="18.0944759106">
        <ele>27.6</ele>
        <time>2013-03-14T21:13:10Z</time>
      </trkpt>
      <trkpt lat="59.4869705117" lon="18.0943238629">
        <ele>27.6</ele>
        <time>2013-03-14T21:13:15Z</time>
      </trkpt>
      <trkpt lat="59.4867915582" lon="18.094142311">
        <ele>27.6</ele>
        <time>2013-03-14T21:13:21Z</time>
      </trkpt>
      <trkpt lat="59.4866046418" lon="18.0939517904">
        <ele>27.6</ele>
        <time>2013-03-14T21:13:27Z</time>
      </trkpt>
      <trkpt lat="59.486376738" lon="18.0937258982">
        <ele>27.6</ele>
        <time>2013-03-14T21:13:34Z</time>
      </trkpt>
      <trkpt lat="59.4861300586" lon="18.0933669852">
        <ele>27.6</ele>
        <time>2013-03-14T21:13:42Z</time>
      </trkpt>
      <trkpt lat="59.4859243668" lon="18.0930509038">
        <ele>27.6</ele>
        <time>2013-03-14T21:13:49Z</time>
      </trkpt>
      <trkpt lat="59.4857573994" lon="18.0928557731">
        <ele>27.6</ele>
        <time>2013-03-14T21:13:55Z</time>
      </trkpt>
      <trkpt lat="59.4855854866" lon="18.0927292064">
        <ele>27.6</ele>
        <time>2013-03-14T21:14:00Z</time>
      </trkpt>
      <trkpt lat="59.4853352031" lon="18.0925883067">
        <ele>27.6</ele>
        <time>2013-03-14T21:14:07Z</time>
      </trkpt>
      <trkpt lat="59.4852109833" lon="18.0923035735">
        <ele>27.6</ele>
        <time>2013-03-14T21:14:12Z</time>
      </trkpt>
      <trkpt lat="59.485175947" lon="18.0921367737">
        <ele>27.6</ele>
        <time>2013-03-14T21:14:14Z</time>
      </trkpt>
      <trkpt lat="59.4851395695" lon="18.0918812934">
        <ele>27.6</ele>
        <time>2013-03-14T21:14:17Z</time>
      </trkpt>
      <trkpt lat="59.4850813153" lon="18.0913534014">
        <ele>27.6</ele>
        <time>2013-03-14T21:14:23Z</time>
      </trkpt>
      <trkpt lat="59.4850740231" lon="18.0911623779">
        <ele>27.6</ele>
        <time>2013-03-14T21:14:25Z</time>
      </trkpt>
      <trkpt lat="59.4851002584" lon="18.0908706039">
        <ele>27.6</ele>
        <time>2013-03-14T21:14:28Z</time>
      </trkpt>
      <trkpt lat="59.4851169384" lon="18.0907732901">
        <ele>27.6</ele>
        <time>2013-03-14T21:14:29Z</time>
      </trkpt>
      <trkpt lat="59.4851400724" lon="18.0906842743">
        <ele>27.6</ele>
        <time>2013-03-14T21:14:30Z</time>
      </trkpt>
      <trkpt lat="59.4852309322" lon="18.0904308895">
        <ele>27.6</ele>
        <time>2013-03-14T21:14:33Z</time>
      </trkpt>
      <trkpt lat="59.4853082972" lon="18.0903049095">
        <ele>27.2</ele>
        <time>2013-03-14T21:14:35Z</time>
      </trkpt>
      <trkpt lat="59.4853567445" lon="18.0902576356">
        <ele>26.8</ele>
        <time>2013-03-14T21:14:36Z</time>
      </trkpt>
      <trkpt lat="59.4854076227" lon="18.0902245271">
        <ele>26.4</ele>
        <time>2013-03-14T21:14:37Z</time>
      </trkpt>
      <trkpt lat="59.4854531364" lon="18.0902149717">
        <ele>26</ele>
        <time>2013-03-14T21:14:38Z</time>
      </trkpt>
      <trkpt lat="59.485500997" lon="18.0902182406">
        <ele>25.6</ele>
        <time>2013-03-14T21:14:39Z</time>
      </trkpt>
      <trkpt lat="59.4855952934" lon="18.0902789256">
        <ele>25.6</ele>
        <time>2013-03-14T21:14:41Z</time>
      </trkpt>
      <trkpt lat="59.4857309964" lon="18.0904844498">
        <ele>25.6</ele>
        <time>2013-03-14T21:14:45Z</time>
      </trkpt>
      <trkpt lat="59.4859083574" lon="18.0907789898">
        <ele>25.6</ele>
        <time>2013-03-14T21:14:51Z</time>
      </trkpt>
      <trkpt lat="59.4861132948" lon="18.091119714">
        <ele>25.6</ele>
        <time>2013-03-14T21:14:58Z</time>
      </trkpt>
      <trkpt lat="59.4862514285" lon="18.0912254098">
        <ele>25.6</ele>
        <time>2013-03-14T21:15:02Z</time>
      </trkpt>
      <trkpt lat="59.4863784982" lon="18.0911995935">
        <ele>25.6</ele>
        <time>2013-03-14T21:15:05Z</time>
      </trkpt>
      <trkpt lat="59.4864236766" lon="18.0911650601">
        <ele>25.6</ele>
        <time>2013-03-14T21:15:06Z</time>
      </trkpt>
      <trkpt lat="59.4865696893" lon="18.0909208115">
        <ele>25.6</ele>
        <time>2013-03-14T21:15:10Z</time>
      </trkpt>
      <trkpt lat="59.4866178014" lon="18.0907625612">
        <ele>25.6</ele>
        <time>2013-03-14T21:15:12Z</time>
      </trkpt>
      <trkpt lat="59.486658286" lon="18.090584362">
        <ele>25.6</ele>
        <time>2013-03-14T21:15:14Z</time>
      </trkpt>
      <trkpt lat="59.4867030453" lon="18.0901598188">
        <ele>25.6</ele>
        <time>2013-03-14T21:15:19Z</time>
      </trkpt>
      <trkpt lat="59.4866977647" lon="18.0897654504">
        <ele>25.6</ele>
        <time>2013-03-14T21:15:24Z</time>
      </trkpt>
      <trkpt lat="59.4866868683" lon="18.0896854033">
        <ele>25.6</ele>
        <time>2013-03-14T21:15:25Z</time>
      </trkpt>
      <trkpt lat="59.4865919851" lon="18.0894250615">
        <ele>25.6</ele>
        <time>2013-03-14T21:15:29Z</time>
      </trkpt>
      <trkpt lat="59.4865215772" lon="18.0893280829">
        <ele>25.6</ele>
        <time>2013-03-14T21:15:31Z</time>
      </trkpt>
      <trkpt lat="59.4864208267" lon="18.0892087246">
        <ele>25.6</ele>
        <time>2013-03-14T21:15:34Z</time>
      </trkpt>
      <trkpt lat="59.4862747302" lon="18.0888591994">
        <ele>25.6</ele>
        <time>2013-03-14T21:15:40Z</time>
      </trkpt>
      <trkpt lat="59.4862337427" lon="18.0886393421">
        <ele>25.6</ele>
        <time>2013-03-14T21:15:43Z</time>
      </trkpt>
      <trkpt lat="59.4862158893" lon="18.0884961793">
        <ele>25.6</ele>
        <time>2013-03-14T21:15:45Z</time>
      </trkpt>
      <trkpt lat="59.4862240197" lon="18.0881231009">
        <ele>25.6</ele>
        <time>2013-03-14T21:15:50Z</time>
      </trkpt>
      <trkpt lat="59.4862484111" lon="18.0876492721">
        <ele>25.6</ele>
        <time>2013-03-14T21:15:55Z</time>
      </trkpt>
      <trkpt lat="59.4862123689" lon="18.0870419196">
        <ele>25.6</ele>
        <time>2013-03-14T21:16:01Z</time>
      </trkpt>
      <trkpt lat="59.4861973653" lon="18.0868526563">
        <ele>25.2</ele>
        <time>2013-03-14T21:16:03Z</time>
      </trkpt>
      <trkpt lat="59.4861928391" lon="18.0867547557">
        <ele>24.8</ele>
        <time>2013-03-14T21:16:04Z</time>
      </trkpt>
      <trkpt lat="59.4861925038" lon="18.0866609623">
        <ele>24.4</ele>
        <time>2013-03-14T21:16:05Z</time>
      </trkpt>
      <trkpt lat="59.4861992093" lon="18.0865703539">
        <ele>24</ele>
        <time>2013-03-14T21:16:06Z</time>
      </trkpt>
      <trkpt lat="59.4862168113" lon="18.0864810029">
        <ele>23.6</ele>
        <time>2013-03-14T21:16:07Z</time>
      </trkpt>
      <trkpt lat="59.4863147957" lon="18.0862675997">
        <ele>23.6</ele>
        <time>2013-03-14T21:16:10Z</time>
      </trkpt>
      <trkpt lat="59.4864991137" lon="18.0860645063">
        <ele>23.6</ele>
        <time>2013-03-14T21:16:14Z</time>
      </trkpt>
      <trkpt lat="59.4865317193" lon="18.086011365">
        <ele>23.6</ele>
        <time>2013-03-14T21:16:15Z</time>
      </trkpt>
      <trkpt lat="59.4865826812" lon="18.0857299008">
        <ele>23.6</ele>
        <time>2013-03-14T21:16:19Z</time>
      </trkpt>
      <trkpt lat="59.4866215733" lon="18.0853737539">
        <ele>23.6</ele>
        <time>2013-03-14T21:16:24Z</time>
      </trkpt>
      <trkpt lat="59.4866628122" lon="18.0852558206">
        <ele>23.6</ele>
        <time>2013-03-14T21:16:26Z</time>
      </trkpt>
      <trkpt lat="59.486732382" lon="18.0850781243">
        <ele>23.6</ele>
        <time>2013-03-14T21:16:29Z</time>
      </trkpt>
      <trkpt lat="59.4868621338" lon="18.0847379868">
        <ele>23.6</ele>
        <time>2013-03-14T21:16:35Z</time>
      </trkpt>
      <trkpt lat="59.4869522392" lon="18.0846552574">
        <ele>23.6</ele>
        <time>2013-03-14T21:16:38Z</time>
      </trkpt>
      <trkpt lat="59.4869793966" lon="18.0846721889">
        <ele>23.6</ele>
        <time>2013-03-14T21:16:39Z</time>
      </trkpt>
      <trkpt lat="59.4870213061" lon="18.0848231469">
        <ele>23.6</ele>
        <time>2013-03-14T21:16:42Z</time>
      </trkpt>
      <trkpt lat="59.4869654826" lon="18.085008806">
        <ele>23.6</ele>
        <time>2013-03-14T21:16:45Z</time>
      </trkpt>
      <trkpt lat="59.4869154427" lon="18.0851410724">
        <ele>23.6</ele>
        <time>2013-03-14T21:16:47Z</time>
      </trkpt>
      <trkpt lat="59.4868563503" lon="18.0853553975">
        <ele>23.6</ele>
        <time>2013-03-14T21:16:50Z</time>
      </trkpt>
      <trkpt lat="59.4868423525" lon="18.0854283201">
        <ele>23.6</ele>
        <time>2013-03-14T21:16:51Z</time>
      </trkpt>
      <trkpt lat="59.486832378" lon="18.0855107142">
        <ele>23.6</ele>
        <time>2013-03-14T21:16:52Z</time>
      </trkpt>
      <trkpt lat="59.4868203919" lon="18.0857946091">
        <ele>23.6</ele>
        <time>2013-03-14T21:16:56Z</time>
      </trkpt>
      <trkpt lat="59.486851405" lon="18.0860116165">
        <ele>23.6</ele>
        <time>2013-03-14T21:16:59Z</time>
      </trkpt>
      <trkpt lat="59.4868933983" lon="18.0862472317">
        <ele>23.6</ele>
        <time>2013-03-14T21:17:02Z</time>
      </trkpt>
      <trkpt lat="59.4869816597" lon="18.0867605393">
        <ele>23.6</ele>
        <time>2013-03-14T21:17:09Z</time>
      </trkpt>
      <trkpt lat="59.48706858" lon="18.0871115732">
        <ele>23.6</ele>
        <time>2013-03-14T21:17:14Z</time>
      </trkpt>
      <trkpt lat="59.4870969946" lon="18.0871769521">
        <ele>23.6</ele>
        <time>2013-03-14T21:17:15Z</time>
      </trkpt>
      <trkpt lat="59.4872228069" lon="18.087488172">
        <ele>23.6</ele>
        <time>2013-03-14T21:17:20Z</time>
      </trkpt>
      <trkpt lat="59.487244097" lon="18.0875614298">
        <ele>23.6</ele>
        <time>2013-03-14T21:17:21Z</time>
      </trkpt>
      <trkpt lat="59.4873137506" lon="18.0878518626">
        <ele>23.6</ele>
        <time>2013-03-14T21:17:25Z</time>
      </trkpt>
      <trkpt lat="59.4873627847" lon="18.0882341611">
        <ele>23.6</ele>
        <time>2013-03-14T21:17:30Z</time>
      </trkpt>
      <trkpt lat="59.4874011738" lon="18.0886576147">
        <ele>23.6</ele>
        <time>2013-03-14T21:17:36Z</time>
      </trkpt>
      <trkpt lat="59.4874346176" lon="18.0892102334">
        <ele>23.6</ele>
        <time>2013-03-14T21:17:43Z</time>
      </trkpt>
      <trkpt lat="59.4875132398" lon="18.0895176814">
        <ele>23.6</ele>
        <time>2013-03-14T21:17:48Z</time>
      </trkpt>
      <trkpt lat="59.4876662094" lon="18.0898815397">
        <ele>23.6</ele>
        <time>2013-03-14T21:17:54Z</time>
      </trkpt>
      <trkpt lat="59.4876991503" lon="18.0899370279">
        <ele>23.6</ele>
        <time>2013-03-14T21:17:55Z</time>
      </trkpt>
      <trkpt lat="59.4878258846" lon="18.090118999">
        <ele>23.6</ele>
        <time>2013-03-14T21:17:59Z</time>
      </trkpt>
      <trkpt lat="59.4880076042" lon="18.0903401135">
        <ele>24</ele>
        <time>2013-03-14T21:18:05Z</time>
      </trkpt>
      <trkpt lat="59.4880387849" lon="18.0903652592">
        <ele>24.4</ele>
        <time>2013-03-14T21:18:06Z</time>
      </trkpt>
      <trkpt lat="59.4880708038" lon="18.0904019719">
        <ele>24.8</ele>
        <time>2013-03-14T21:18:07Z</time>
      </trkpt>
      <trkpt lat="59.4881048343" lon="18.0904399419">
        <ele>25.2</ele>
        <time>2013-03-14T21:18:08Z</time>
      </trkpt>
      <trkpt lat="59.4881368531" lon="18.0904703682">
        <ele>25.6</ele>
        <time>2013-03-14T21:18:09Z</time>
      </trkpt>
      <trkpt lat="59.4882306466" lon="18.0905574561">
        <ele>25.6</ele>
        <time>2013-03-14T21:18:12Z</time>
      </trkpt>
      <trkpt lat="59.488430052" lon="18.0907179695">
        <ele>25.6</ele>
        <time>2013-03-14T21:18:18Z</time>
      </trkpt>
      <trkpt lat="59.4885600553" lon="18.0907922332">
        <ele>26</ele>
        <time>2013-03-14T21:18:23Z</time>
      </trkpt>
      <trkpt lat="59.4885953431" lon="18.0908121821">
        <ele>26.4</ele>
        <time>2013-03-14T21:18:24Z</time>
      </trkpt>
      <trkpt lat="59.4886307147" lon="18.0908223242">
        <ele>26.8</ele>
        <time>2013-03-14T21:18:25Z</time>
      </trkpt>
      <trkpt lat="59.4886698582" lon="18.0908433628">
        <ele>27.2</ele>
        <time>2013-03-14T21:18:26Z</time>
      </trkpt>
      <trkpt lat="59.4887090016" lon="18.0908642337">
        <ele>27.6</ele>
        <time>2013-03-14T21:18:27Z</time>
      </trkpt>
      <trkpt lat="59.488816709" lon="18.0909183808">
        <ele>27.6</ele>
        <time>2013-03-14T21:18:30Z</time>
      </trkpt>
      <trkpt lat="59.4890123426" lon="18.0910422652">
        <ele>27.6</ele>
        <time>2013-03-14T21:18:36Z</time>
      </trkpt>
      <trkpt lat="59.4891847583" lon="18.0912556684">
        <ele>27.6</ele>
        <time>2013-03-14T21:18:41Z</time>
      </trkpt>
      <trkpt lat="59.489386343" lon="18.0914843266">
        <ele>27.6</ele>
        <time>2013-03-14T21:18:47Z</time>
      </trkpt>
      <trkpt lat="59.4895277456" lon="18.0917517931">
        <ele>27.6</ele>
        <time>2013-03-14T21:18:53Z</time>
      </trkpt>
      <trkpt lat="59.4896505405" lon="18.0920929364">
        <ele>27.6</ele>
        <time>2013-03-14T21:18:58Z</time>
      </trkpt>
      <trkpt lat="59.489781801" lon="18.0925587186">
        <ele>27.6</ele>
        <time>2013-03-14T21:19:04Z</time>
      </trkpt>
      <trkpt lat="59.4899117205" lon="18.0929025441">
        <ele>27.6</ele>
        <time>2013-03-14T21:19:09Z</time>
      </trkpt>
      <trkpt lat="59.4900061007" lon="18.0930743731">
        <ele>27.6</ele>
        <time>2013-03-14T21:19:12Z</time>
      </trkpt>
      <trkpt lat="59.4900683782" lon="18.0931470441">
        <ele>27.6</ele>
        <time>2013-03-14T21:19:14Z</time>
      </trkpt>
      <trkpt lat="59.4902147261" lon="18.0933162747">
        <ele>27.6</ele>
        <time>2013-03-14T21:19:18Z</time>
      </trkpt>
      <trkpt lat="59.4902721422" lon="18.0934187015">
        <ele>27.6</ele>
        <time>2013-03-14T21:19:20Z</time>
      </trkpt>
      <trkpt lat="59.4903903269" lon="18.0937493675">
        <ele>27.6</ele>
        <time>2013-03-14T21:19:25Z</time>
      </trkpt>
      <trkpt lat="59.4905541931" lon="18.0939387984">
        <ele>27.6</ele>
        <time>2013-03-14T21:19:30Z</time>
      </trkpt>
      <trkpt lat="59.4907158799" lon="18.0938730843">
        <ele>27.6</ele>
        <time>2013-03-14T21:19:34Z</time>
      </trkpt>
      <trkpt lat="59.4908942468" lon="18.0937582523">
        <ele>27.6</ele>
        <time>2013-03-14T21:19:39Z</time>
      </trkpt>
      <trkpt lat="59.4911505653" lon="18.0936733436">
        <ele>27.6</ele>
        <time>2013-03-14T21:19:46Z</time>
      </trkpt>
      <trkpt lat="59.4914041178" lon="18.0935894408">
        <ele>27.6</ele>
        <time>2013-03-14T21:19:53Z</time>
      </trkpt>
      <trkpt lat="59.4915641282" lon="18.0934561686">
        <ele>27.6</ele>
        <time>2013-03-14T21:19:58Z</time>
      </trkpt>
      <trkpt lat="59.4917739272" lon="18.0933280094">
        <ele>27.6</ele>
        <time>2013-03-14T21:20:04Z</time>
      </trkpt>
      <trkpt lat="59.4919872465" lon="18.0933663147">
        <ele>27.6</ele>
        <time>2013-03-14T21:20:10Z</time>
      </trkpt>
      <trkpt lat="59.4920212771" lon="18.0934153488">
        <ele>27.6</ele>
        <time>2013-03-14T21:20:11Z</time>
      </trkpt>
      <trkpt lat="59.4920884161" lon="18.0936038577">
        <ele>27.6</ele>
        <time>2013-03-14T21:20:14Z</time>
      </trkpt>
      <trkpt lat="59.4921076106" lon="18.0936716673">
        <ele>27.6</ele>
        <time>2013-03-14T21:20:15Z</time>
      </trkpt>
      <trkpt lat="59.492251444" lon="18.0939464259">
        <ele>27.6</ele>
        <time>2013-03-14T21:20:20Z</time>
      </trkpt>
      <trkpt lat="59.4924777553" lon="18.0941713123">
        <ele>27.6</ele>
        <time>2013-03-14T21:20:26Z</time>
      </trkpt>
      <trkpt lat="59.492702055" lon="18.0943885712">
        <ele>27.6</ele>
        <time>2013-03-14T21:20:32Z</time>
      </trkpt>
      <trkpt lat="59.4929159611" lon="18.0946068359">
        <ele>27.6</ele>
        <time>2013-03-14T21:20:38Z</time>
      </trkpt>
      <trkpt lat="59.4931753809" lon="18.0947803412">
        <ele>27.6</ele>
        <time>2013-03-14T21:20:45Z</time>
      </trkpt>
      <trkpt lat="59.4932150272" lon="18.0947809279">
        <ele>27.6</ele>
        <time>2013-03-14T21:20:46Z</time>
      </trkpt>
      <trkpt lat="59.4933534124" lon="18.0947297145">
        <ele>27.6</ele>
        <time>2013-03-14T21:20:50Z</time>
      </trkpt>
      <trkpt lat="59.4935421728" lon="18.0947189857">
        <ele>27.6</ele>
        <time>2013-03-14T21:20:55Z</time>
      </trkpt>
      <trkpt lat="59.4937241439" lon="18.0947267808">
        <ele>28</ele>
        <time>2013-03-14T21:21:00Z</time>
      </trkpt>
      <trkpt lat="59.4937641255" lon="18.0947308042">
        <ele>28.4</ele>
        <time>2013-03-14T21:21:01Z</time>
      </trkpt>
      <trkpt lat="59.493809304" lon="18.0947411977">
        <ele>28.8</ele>
        <time>2013-03-14T21:21:02Z</time>
      </trkpt>
      <trkpt lat="59.493851884" lon="18.094744299">
        <ele>29.2</ele>
        <time>2013-03-14T21:21:03Z</time>
      </trkpt>
      <trkpt lat="59.4938953023" lon="18.0947459754">
        <ele>29.8</ele>
        <time>2013-03-14T21:21:04Z</time>
      </trkpt>
      <trkpt lat="59.4940957973" lon="18.0947351627">
        <ele>29.8</ele>
        <time>2013-03-14T21:21:09Z</time>
      </trkpt>
      <trkpt lat="59.4942813726" lon="18.0945889824">
        <ele>29.8</ele>
        <time>2013-03-14T21:21:14Z</time>
      </trkpt>
      <trkpt lat="59.4944199254" lon="18.0943909181">
        <ele>29.8</ele>
        <time>2013-03-14T21:21:18Z</time>
      </trkpt>
      <trkpt lat="59.4944647685" lon="18.0942670336">
        <ele>29.8</ele>
        <time>2013-03-14T21:21:20Z</time>
      </trkpt>
      <trkpt lat="59.4945139703" lon="18.0940485175">
        <ele>29.8</ele>
        <time>2013-03-14T21:21:23Z</time>
      </trkpt>
      <trkpt lat="59.4945397865" lon="18.0938916083">
        <ele>29.8</ele>
        <time>2013-03-14T21:21:25Z</time>
      </trkpt>
      <trkpt lat="59.4945444804" lon="18.0937975634">
        <ele>29.8</ele>
        <time>2013-03-14T21:21:26Z</time>
      </trkpt>
      <trkpt lat="59.4945408762" lon="18.0934649696">
        <ele>29.8</ele>
        <time>2013-03-14T21:21:30Z</time>
      </trkpt>
      <trkpt lat="59.4945208435" lon="18.0933057973">
        <ele>29.8</ele>
        <time>2013-03-14T21:21:32Z</time>
      </trkpt>
      <trkpt lat="59.4944603261" lon="18.0930742893">
        <ele>29.8</ele>
        <time>2013-03-14T21:21:35Z</time>
      </trkpt>
      <trkpt lat="59.4944289778" lon="18.0930064797">
        <ele>29.8</ele>
        <time>2013-03-14T21:21:36Z</time>
      </trkpt>
      <trkpt lat="59.4943660298" lon="18.0928776499">
        <ele>29.8</ele>
        <time>2013-03-14T21:21:38Z</time>
      </trkpt>
      <trkpt lat="59.4942209391" lon="18.0926898115">
        <ele>29.8</ele>
        <time>2013-03-14T21:21:42Z</time>
      </trkpt>
      <trkpt lat="59.4941797001" lon="18.0926395201">
        <ele>29.8</ele>
        <time>2013-03-14T21:21:43Z</time>
      </trkpt>
      <trkpt lat="59.4941342702" lon="18.0926025559">
        <ele>29.8</ele>
        <time>2013-03-14T21:21:44Z</time>
      </trkpt>
      <trkpt lat="59.4940154149" lon="18.0924691161">
        <ele>29.8</ele>
        <time>2013-03-14T21:21:47Z</time>
      </trkpt>
      <trkpt lat="59.4937651313" lon="18.0922117917">
        <ele>29.8</ele>
        <time>2013-03-14T21:21:53Z</time>
      </trkpt>
      <trkpt lat="59.4935373951" lon="18.0920038368">
        <ele>29.8</ele>
        <time>2013-03-14T21:21:59Z</time>
      </trkpt>
      <trkpt lat="59.4932727785" lon="18.0917595882">
        <ele>29.8</ele>
        <time>2013-03-14T21:22:06Z</time>
      </trkpt>
      <trkpt lat="59.4930902208" lon="18.0915486996">
        <ele>29.8</ele>
        <time>2013-03-14T21:22:12Z</time>
      </trkpt>
      <trkpt lat="59.493055855" lon="18.0914978215">
        <ele>30.2</ele>
        <time>2013-03-14T21:22:13Z</time>
      </trkpt>
      <trkpt lat="59.4930332238" lon="18.0914523916">
        <ele>30.6</ele>
        <time>2013-03-14T21:22:14Z</time>
      </trkpt>
      <trkpt lat="59.4930056474" lon="18.0914083866">
        <ele>31</ele>
        <time>2013-03-14T21:22:15Z</time>
      </trkpt>
      <trkpt lat="59.4929837706" lon="18.0913543234">
        <ele>31.4</ele>
        <time>2013-03-14T21:22:16Z</time>
      </trkpt>
      <trkpt lat="59.4929623968" lon="18.0912958177">
        <ele>31.8</ele>
        <time>2013-03-14T21:22:17Z</time>
      </trkpt>
      <trkpt lat="59.4929022986" lon="18.0910310335">
        <ele>31.8</ele>
        <time>2013-03-14T21:22:21Z</time>
      </trkpt>
      <trkpt lat="59.4928832716" lon="18.0907055643">
        <ele>31.8</ele>
        <time>2013-03-14T21:22:25Z</time>
      </trkpt>
      <trkpt lat="59.4928873788" lon="18.090605233">
        <ele>31.8</ele>
        <time>2013-03-14T21:22:26Z</time>
      </trkpt>
      <trkpt lat="59.4929050646" lon="18.090425525">
        <ele>31.8</ele>
        <time>2013-03-14T21:22:28Z</time>
      </trkpt>
      <trkpt lat="59.4929756402" lon="18.0901698771">
        <ele>31.8</ele>
        <time>2013-03-14T21:22:31Z</time>
      </trkpt>
      <trkpt lat="59.4931289451" lon="18.089945326">
        <ele>31.8</ele>
        <time>2013-03-14T21:22:35Z</time>
      </trkpt>
      <trkpt lat="59.4932576911" lon="18.0898869041">
        <ele>31.8</ele>
        <time>2013-03-14T21:22:38Z</time>
      </trkpt>
      <trkpt lat="59.4933035401" lon="18.0898865689">
        <ele>31.8</ele>
        <time>2013-03-14T21:22:39Z</time>
      </trkpt>
      <trkpt lat="59.4935414184" lon="18.0898603335">
        <ele>31.8</ele>
        <time>2013-03-14T21:22:44Z</time>
      </trkpt>
      <trkpt lat="59.493827828" lon="18.0898404684">
        <ele>31.8</ele>
        <time>2013-03-14T21:22:50Z</time>
      </trkpt>
      <trkpt lat="59.4939108088" lon="18.0898325056">
        <ele>31.4</ele>
        <time>2013-03-14T21:22:52Z</time>
      </trkpt>
      <trkpt lat="59.4939609325" lon="18.0898283147">
        <ele>31</ele>
        <time>2013-03-14T21:22:53Z</time>
      </trkpt>
      <trkpt lat="59.4940124812" lon="18.0898200166">
        <ele>30.6</ele>
        <time>2013-03-14T21:22:54Z</time>
      </trkpt>
      <trkpt lat="59.494061683" lon="18.0898127243">
        <ele>30.2</ele>
        <time>2013-03-14T21:22:55Z</time>
      </trkpt>
      <trkpt lat="59.4941015808" lon="18.0898115509">
        <ele>29.8</ele>
        <time>2013-03-14T21:22:56Z</time>
      </trkpt>
      <trkpt lat="59.4942920176" lon="18.0897871595">
        <ele>29.8</ele>
        <time>2013-03-14T21:23:00Z</time>
      </trkpt>
      <trkpt lat="59.4945484199" lon="18.0897941165">
        <ele>29.8</ele>
        <time>2013-03-14T21:23:06Z</time>
      </trkpt>
      <trkpt lat="59.4947306424" lon="18.0898765944">
        <ele>29.8</ele>
        <time>2013-03-14T21:23:10Z</time>
      </trkpt>
      <trkpt lat="59.4948167245" lon="18.0899661131">
        <ele>29.8</ele>
        <time>2013-03-14T21:23:12Z</time>
      </trkpt>
      <trkpt lat="59.4949245996" lon="18.0901463239">
        <ele>29.8</ele>
        <time>2013-03-14T21:23:15Z</time>
      </trkpt>
      <trkpt lat="59.4949894755" lon="18.0903124532">
        <ele>29.8</ele>
        <time>2013-03-14T21:23:17Z</time>
      </trkpt>
      <trkpt lat="59.49508" lon="18.0907700211">
        <ele>29.8</ele>
        <time>2013-03-14T21:23:22Z</time>
      </trkpt>
      <trkpt lat="59.4950923214" lon="18.0910485517">
        <ele>29.8</ele>
        <time>2013-03-14T21:23:25Z</time>
      </trkpt>
      <trkpt lat="59.4950920699" lon="18.0911447759">
        <ele>29.8</ele>
        <time>2013-03-14T21:23:26Z</time>
      </trkpt>
      <trkpt lat="59.4950858673" lon="18.0915912797">
        <ele>29.8</ele>
        <time>2013-03-14T21:23:31Z</time>
      </trkpt>
      <trkpt lat="59.4950919861" lon="18.0920225284">
        <ele>29.8</ele>
        <time>2013-03-14T21:23:36Z</time>
      </trkpt>
      <trkpt lat="59.4951131923" lon="18.0921703013">
        <ele>29.8</ele>
        <time>2013-03-14T21:23:38Z</time>
      </trkpt>
      <trkpt lat="59.4951488992" lon="18.0923306471">
        <ele>29.8</ele>
        <time>2013-03-14T21:23:40Z</time>
      </trkpt>
      <trkpt lat="59.4952285273" lon="18.0925018893">
        <ele>29.8</ele>
        <time>2013-03-14T21:23:43Z</time>
      </trkpt>
      <trkpt lat="59.4952597918" lon="18.0925651726">
        <ele>29.8</ele>
        <time>2013-03-14T21:23:44Z</time>
      </trkpt>
      <trkpt lat="59.4953468797" lon="18.0927473952">
        <ele>29.8</ele>
        <time>2013-03-14T21:23:47Z</time>
      </trkpt>
      <trkpt lat="59.4953956624" lon="18.0929067351">
        <ele>29.8</ele>
        <time>2013-03-14T21:23:49Z</time>
      </trkpt>
      <trkpt lat="59.4954151084" lon="18.0929870337">
        <ele>29.8</ele>
        <time>2013-03-14T21:23:50Z</time>
      </trkpt>
      <trkpt lat="59.4954290223" lon="18.0930775582">
        <ele>29.8</ele>
        <time>2013-03-14T21:23:51Z</time>
      </trkpt>
      <trkpt lat="59.4954208081" lon="18.0933322003">
        <ele>29.8</ele>
        <time>2013-03-14T21:23:54Z</time>
      </trkpt>
      <trkpt lat="59.4953247515" lon="18.0936234713">
        <ele>29.8</ele>
        <time>2013-03-14T21:23:58Z</time>
      </trkpt>
      <trkpt lat="59.4952188881" lon="18.0937721662">
        <ele>29.8</ele>
        <time>2013-03-14T21:24:01Z</time>
      </trkpt>
      <trkpt lat="59.4951830974" lon="18.0938212842">
        <ele>29.8</ele>
        <time>2013-03-14T21:24:02Z</time>
      </trkpt>
      <trkpt lat="59.4951121865" lon="18.0939260579">
        <ele>29.8</ele>
        <time>2013-03-14T21:24:04Z</time>
      </trkpt>
      <trkpt lat="59.4949845302" lon="18.0941242899">
        <ele>29.8</ele>
        <time>2013-03-14T21:24:08Z</time>
      </trkpt>
      <trkpt lat="59.4948709554" lon="18.0942922631">
        <ele>29.8</ele>
        <time>2013-03-14T21:24:11Z</time>
      </trkpt>
      <trkpt lat="59.4947991225" lon="18.0943919239">
        <ele>29.8</ele>
        <time>2013-03-14T21:24:13Z</time>
      </trkpt>
      <trkpt lat="59.4946248628" lon="18.0946108592">
        <ele>29.8</ele>
        <time>2013-03-14T21:24:18Z</time>
      </trkpt>
      <trkpt lat="59.4944510222" lon="18.0947819337">
        <ele>29.8</ele>
        <time>2013-03-14T21:24:22Z</time>
      </trkpt>
      <trkpt lat="59.4943351844" lon="18.0949574507">
        <ele>29.8</ele>
        <time>2013-03-14T21:24:25Z</time>
      </trkpt>
      <trkpt lat="59.4942697217" lon="18.0950390904">
        <ele>29.8</ele>
        <time>2013-03-14T21:24:27Z</time>
      </trkpt>
      <trkpt lat="59.4941832205" lon="18.0951000268">
        <ele>29.8</ele>
        <time>2013-03-14T21:24:29Z</time>
      </trkpt>
      <trkpt lat="59.49411122" lon="18.0951525814">
        <ele>29.8</ele>
        <time>2013-03-14T21:24:31Z</time>
      </trkpt>
      <trkpt lat="59.4940747587" lon="18.0951897132">
        <ele>29.8</ele>
        <time>2013-03-14T21:24:32Z</time>
      </trkpt>
      <trkpt lat="59.4940372078" lon="18.0952468777">
        <ele>29.8</ele>
        <time>2013-03-14T21:24:33Z</time>
      </trkpt>
      <trkpt lat="59.4939706555" lon="18.0954590236">
        <ele>29.8</ele>
        <time>2013-03-14T21:24:36Z</time>
      </trkpt>
      <trkpt lat="59.4939598429" lon="18.0958639532">
        <ele>29.8</ele>
        <time>2013-03-14T21:24:41Z</time>
      </trkpt>
      <trkpt lat="59.4939457613" lon="18.0962216927">
        <ele>29.8</ele>
        <time>2013-03-14T21:24:45Z</time>
      </trkpt>
      <trkpt lat="59.4939280755" lon="18.0963035">
        <ele>29.8</ele>
        <time>2013-03-14T21:24:46Z</time>
      </trkpt>
      <trkpt lat="59.4938471901" lon="18.0965251175">
        <ele>29.8</ele>
        <time>2013-03-14T21:24:49Z</time>
      </trkpt>
      <trkpt lat="59.4937840744" lon="18.0966365968">
        <ele>29.8</ele>
        <time>2013-03-14T21:24:51Z</time>
      </trkpt>
      <trkpt lat="59.4936549932" lon="18.0967807654">
        <ele>29.8</ele>
        <time>2013-03-14T21:24:54Z</time>
      </trkpt>
      <trkpt lat="59.4935823221" lon="18.096896268">
        <ele>29.8</ele>
        <time>2013-03-14T21:24:56Z</time>
      </trkpt>
      <trkpt lat="59.4934717648" lon="18.0972351482">
        <ele>29.8</ele>
        <time>2013-03-14T21:25:00Z</time>
      </trkpt>
      <trkpt lat="59.4934974973" lon="18.0975441889">
        <ele>29.8</ele>
        <time>2013-03-14T21:25:03Z</time>
      </trkpt>
      <trkpt lat="59.4935169433" lon="18.097644185">
        <ele>29.8</ele>
        <time>2013-03-14T21:25:04Z</time>
      </trkpt>
      <trkpt lat="59.4935453579" lon="18.0977337875">
        <ele>29.8</ele>
        <time>2013-03-14T21:25:05Z</time>
      </trkpt>
      <trkpt lat="59.4936619502" lon="18.0979154232">
        <ele>29.4</ele>
        <time>2013-03-14T21:25:08Z</time>
      </trkpt>
      <trkpt lat="59.4937114034" lon="18.0979589253">
        <ele>29</ele>
        <time>2013-03-14T21:25:09Z</time>
      </trkpt>
      <trkpt lat="59.4937611919" lon="18.0979871723">
        <ele>28.6</ele>
        <time>2013-03-14T21:25:10Z</time>
      </trkpt>
      <trkpt lat="59.4938113994" lon="18.0979992422">
        <ele>28.2</ele>
        <time>2013-03-14T21:25:11Z</time>
      </trkpt>
      <trkpt lat="59.4938622776" lon="18.0980036846">
        <ele>27.6</ele>
        <time>2013-03-14T21:25:12Z</time>
      </trkpt>
      <trkpt lat="59.4939175981" lon="18.0979904412">
        <ele>27.6</ele>
        <time>2013-03-14T21:25:13Z</time>
      </trkpt>
      <trkpt lat="59.4941215297" lon="18.0979227993">
        <ele>27.6</ele>
        <time>2013-03-14T21:25:17Z</time>
      </trkpt>
      <trkpt lat="59.4944075202" lon="18.0978828176">
        <ele>27.6</ele>
        <time>2013-03-14T21:25:23Z</time>
      </trkpt>
      <trkpt lat="59.4945765831" lon="18.0980110607">
        <ele>27.6</ele>
        <time>2013-03-14T21:25:27Z</time>
      </trkpt>
      <trkpt lat="59.4946127091" lon="18.0980704884">
        <ele>27.6</ele>
        <time>2013-03-14T21:25:28Z</time>
      </trkpt>
      <trkpt lat="59.4946404532" lon="18.0981420698">
        <ele>27.6</ele>
        <time>2013-03-14T21:25:29Z</time>
      </trkpt>
      <trkpt lat="59.4946607374" lon="18.0984320836">
        <ele>27.6</ele>
        <time>2013-03-14T21:25:32Z</time>
      </trkpt>
      <trkpt lat="59.4945939336" lon="18.0987015616">
        <ele>27.6</ele>
        <time>2013-03-14T21:25:35Z</time>
      </trkpt>
      <trkpt lat="59.4945626691" lon="18.098772724">
        <ele>27.6</ele>
        <time>2013-03-14T21:25:36Z</time>
      </trkpt>
      <trkpt lat="59.494510869" lon="18.0988199141">
        <ele>27.6</ele>
        <time>2013-03-14T21:25:37Z</time>
      </trkpt>
      <trkpt lat="59.4944027425" lon="18.0988414555">
        <ele>27.6</ele>
        <time>2013-03-14T21:25:39Z</time>
      </trkpt>
      <trkpt lat="59.4943182529" lon="18.0988252785">
        <ele>27.6</ele>
        <time>2013-03-14T21:25:41Z</time>
      </trkpt>
      <trkpt lat="59.4942290695" lon="18.0987947684">
        <ele>27.6</ele>
        <time>2013-03-14T21:25:43Z</time>
      </trkpt>
      <trkpt lat="59.4939673866" lon="18.0987189122">
        <ele>27.6</ele>
        <time>2013-03-14T21:25:49Z</time>
      </trkpt>
      <trkpt lat="59.4936558314" lon="18.09861154">
        <ele>27.6</ele>
        <time>2013-03-14T21:25:56Z</time>
      </trkpt>
      <trkpt lat="59.4934478764" lon="18.0984328379">
        <ele>27.6</ele>
        <time>2013-03-14T21:26:01Z</time>
      </trkpt>
      <trkpt lat="59.4934140974" lon="18.0983738293">
        <ele>27.6</ele>
        <time>2013-03-14T21:26:02Z</time>
      </trkpt>
      <trkpt lat="59.4933357266" lon="18.0981723285">
        <ele>27.6</ele>
        <time>2013-03-14T21:26:05Z</time>
      </trkpt>
      <trkpt lat="59.4932822501" lon="18.0979529741">
        <ele>27.6</ele>
        <time>2013-03-14T21:26:08Z</time>
      </trkpt>
      <trkpt lat="59.4932712698" lon="18.0978752739">
        <ele>27.6</ele>
        <time>2013-03-14T21:26:09Z</time>
      </trkpt>
      <trkpt lat="59.4932436933" lon="18.0975519841">
        <ele>27.6</ele>
        <time>2013-03-14T21:26:13Z</time>
      </trkpt>
      <trkpt lat="59.4932146082" lon="18.0971953342">
        <ele>27.6</ele>
        <time>2013-03-14T21:26:17Z</time>
      </trkpt>
      <trkpt lat="59.493183176" lon="18.0970445438">
        <ele>27.6</ele>
        <time>2013-03-14T21:26:19Z</time>
      </trkpt>
      <trkpt lat="59.4930986027" lon="18.0968598068">
        <ele>27.6</ele>
        <time>2013-03-14T21:26:22Z</time>
      </trkpt>
      <trkpt lat="59.4930749657" lon="18.0967974454">
        <ele>27.6</ele>
        <time>2013-03-14T21:26:23Z</time>
      </trkpt>
      <trkpt lat="59.4930570284" lon="18.0967233494">
        <ele>27.6</ele>
        <time>2013-03-14T21:26:24Z</time>
      </trkpt>
      <trkpt lat="59.4930620576" lon="18.0964915899">
        <ele>27.6</ele>
        <time>2013-03-14T21:26:27Z</time>
      </trkpt>
      <trkpt lat="59.4931576112" lon="18.0963152347">
        <ele>27.6</ele>
        <time>2013-03-14T21:26:30Z</time>
      </trkpt>
      <trkpt lat="59.4932567691" lon="18.0962606685">
        <ele>27.6</ele>
        <time>2013-03-14T21:26:32Z</time>
      </trkpt>
      <trkpt lat="59.4934078109" lon="18.0961658693">
        <ele>27.6</ele>
        <time>2013-03-14T21:26:35Z</time>
      </trkpt>
      <trkpt lat="59.4935338747" lon="18.095898319">
        <ele>27.6</ele>
        <time>2013-03-14T21:26:39Z</time>
      </trkpt>
      <trkpt lat="59.4935409993" lon="18.0955498834">
        <ele>27.6</ele>
        <time>2013-03-14T21:26:43Z</time>
      </trkpt>
      <trkpt lat="59.493418456" lon="18.0952792319">
        <ele>27.6</ele>
        <time>2013-03-14T21:26:47Z</time>
      </trkpt>
      <trkpt lat="59.493223493" lon="18.0951504859">
        <ele>27.6</ele>
        <time>2013-03-14T21:26:51Z</time>
      </trkpt>
      <trkpt lat="59.4930276918" lon="18.0951132702">
        <ele>27.6</ele>
        <time>2013-03-14T21:26:55Z</time>
      </trkpt>
      <trkpt lat="59.4929798311" lon="18.0951120968">
        <ele>27.6</ele>
        <time>2013-03-14T21:26:56Z</time>
      </trkpt>
      <trkpt lat="59.4927209142" lon="18.0950523338">
        <ele>27.6</ele>
        <time>2013-03-14T21:27:01Z</time>
      </trkpt>
      <trkpt lat="59.4924609915" lon="18.0948939997">
        <ele>27.6</ele>
        <time>2013-03-14T21:27:06Z</time>
      </trkpt>
      <trkpt lat="59.4921631826" lon="18.0946433809">
        <ele>27.6</ele>
        <time>2013-03-14T21:27:12Z</time>
      </trkpt>
      <trkpt lat="59.4918739232" lon="18.0944157285">
        <ele>27.6</ele>
        <time>2013-03-14T21:27:18Z</time>
      </trkpt>
      <trkpt lat="59.4916772839" lon="18.0943715559">
        <ele>27.6</ele>
        <time>2013-03-14T21:27:22Z</time>
      </trkpt>
      <trkpt lat="59.4915851668" lon="18.0943903314">
        <ele>27.6</ele>
        <time>2013-03-14T21:27:24Z</time>
      </trkpt>
      <trkpt lat="59.4914911219" lon="18.0944520222">
        <ele>27.6</ele>
        <time>2013-03-14T21:27:26Z</time>
      </trkpt>
      <trkpt lat="59.4913468694" lon="18.0946909901">
        <ele>27.6</ele>
        <time>2013-03-14T21:27:30Z</time>
      </trkpt>
      <trkpt lat="59.4912799818" lon="18.0950567762">
        <ele>27.6</ele>
        <time>2013-03-14T21:27:34Z</time>
      </trkpt>
      <trkpt lat="59.4913316981" lon="18.0953830836">
        <ele>27.6</ele>
        <time>2013-03-14T21:27:38Z</time>
      </trkpt>
      <trkpt lat="59.4914607794" lon="18.0955875182">
        <ele>27.6</ele>
        <time>2013-03-14T21:27:42Z</time>
      </trkpt>
      <trkpt lat="59.4917574987" lon="18.0958297551">
        <ele>27.6</ele>
        <time>2013-03-14T21:27:49Z</time>
      </trkpt>
      <trkpt lat="59.4919918566" lon="18.0960693098">
        <ele>27.6</ele>
        <time>2013-03-14T21:27:55Z</time>
      </trkpt>
      <trkpt lat="59.4920273958" lon="18.0961219481">
        <ele>27.6</ele>
        <time>2013-03-14T21:27:56Z</time>
      </trkpt>
      <trkpt lat="59.4921800302" lon="18.0964083576">
        <ele>27.6</ele>
        <time>2013-03-14T21:28:01Z</time>
      </trkpt>
      <trkpt lat="59.4922587363" lon="18.0965966151">
        <ele>27.6</ele>
        <time>2013-03-14T21:28:04Z</time>
      </trkpt>
      <trkpt lat="59.4923380291" lon="18.0967811845">
        <ele>27.6</ele>
        <time>2013-03-14T21:28:07Z</time>
      </trkpt>
      <trkpt lat="59.4925418769" lon="18.0972362379">
        <ele>27.6</ele>
        <time>2013-03-14T21:28:14Z</time>
      </trkpt>
      <trkpt lat="59.492705743" lon="18.0975258325">
        <ele>27.6</ele>
        <time>2013-03-14T21:28:19Z</time>
      </trkpt>
      <trkpt lat="59.4929196491" lon="18.097839567">
        <ele>27.6</ele>
        <time>2013-03-14T21:28:25Z</time>
      </trkpt>
      <trkpt lat="59.4930879576" lon="18.0980921975">
        <ele>27.6</ele>
        <time>2013-03-14T21:28:30Z</time>
      </trkpt>
      <trkpt lat="59.4931385843" lon="18.09821516">
        <ele>27.6</ele>
        <time>2013-03-14T21:28:32Z</time>
      </trkpt>
      <trkpt lat="59.4931706032" lon="18.0983769307">
        <ele>27.6</ele>
        <time>2013-03-14T21:28:34Z</time>
      </trkpt>
      <trkpt lat="59.4931737883" lon="18.0987252824">
        <ele>27.6</ele>
        <time>2013-03-14T21:28:38Z</time>
      </trkpt>
      <trkpt lat="59.4931639815" lon="18.0988151364">
        <ele>27.6</ele>
        <time>2013-03-14T21:28:39Z</time>
      </trkpt>
      <trkpt lat="59.4930828447" lon="18.0991206566">
        <ele>27.6</ele>
        <time>2013-03-14T21:28:43Z</time>
      </trkpt>
      <trkpt lat="59.492970192" lon="18.0992499894">
        <ele>27.6</ele>
        <time>2013-03-14T21:28:46Z</time>
      </trkpt>
      <trkpt lat="59.4927867122" lon="18.0992592933">
        <ele>27.6</ele>
        <time>2013-03-14T21:28:50Z</time>
      </trkpt>
      <trkpt lat="59.492660816" lon="18.0992067388">
        <ele>27.6</ele>
        <time>2013-03-14T21:28:53Z</time>
      </trkpt>
      <trkpt lat="59.4925776676" lon="18.099189472">
        <ele>27.6</ele>
        <time>2013-03-14T21:28:55Z</time>
      </trkpt>
      <trkpt lat="59.4923805253" lon="18.0992213233">
        <ele>27.6</ele>
        <time>2013-03-14T21:29:00Z</time>
      </trkpt>
      <trkpt lat="59.4921350194" lon="18.0992569463">
        <ele>27.6</ele>
        <time>2013-03-14T21:29:06Z</time>
      </trkpt>
      <trkpt lat="59.4919307525" lon="18.099250157">
        <ele>27.6</ele>
        <time>2013-03-14T21:29:11Z</time>
      </trkpt>
      <trkpt lat="59.4916254837" lon="18.0991994465">
        <ele>27.6</ele>
        <time>2013-03-14T21:29:18Z</time>
      </trkpt>
      <trkpt lat="59.4915844962" lon="18.0991937468">
        <ele>27.2</ele>
        <time>2013-03-14T21:29:19Z</time>
      </trkpt>
      <trkpt lat="59.491545688" lon="18.0991880471">
        <ele>26.8</ele>
        <time>2013-03-14T21:29:20Z</time>
      </trkpt>
      <trkpt lat="59.491506796" lon="18.0991845267">
        <ele>26.4</ele>
        <time>2013-03-14T21:29:21Z</time>
      </trkpt>
      <trkpt lat="59.4914677364" lon="18.0991771506">
        <ele>26</ele>
        <time>2013-03-14T21:29:22Z</time>
      </trkpt>
      <trkpt lat="59.4914274194" lon="18.0991643263">
        <ele>25.6</ele>
        <time>2013-03-14T21:29:23Z</time>
      </trkpt>
      <trkpt lat="59.4913543293" lon="18.0991334809">
        <ele>25.6</ele>
        <time>2013-03-14T21:29:25Z</time>
      </trkpt>
      <trkpt lat="59.4910952447" lon="18.0989955987">
        <ele>25.6</ele>
        <time>2013-03-14T21:29:32Z</time>
      </trkpt>
      <trkpt lat="59.4909181352" lon="18.0988148011">
        <ele>25.6</ele>
        <time>2013-03-14T21:29:37Z</time>
      </trkpt>
      <trkpt lat="59.4908528402" lon="18.0987244442">
        <ele>25.6</ele>
        <time>2013-03-14T21:29:39Z</time>
      </trkpt>
      <trkpt lat="59.4907868746" lon="18.098613887">
        <ele>25.6</ele>
        <time>2013-03-14T21:29:41Z</time>
      </trkpt>
      <trkpt lat="59.4907138683" lon="18.0984252104">
        <ele>25.6</ele>
        <time>2013-03-14T21:29:44Z</time>
      </trkpt>
      <trkpt lat="59.490680676" lon="18.0982855679">
        <ele>25.6</ele>
        <time>2013-03-14T21:29:46Z</time>
      </trkpt>
      <trkpt lat="59.490630636" lon="18.0980093005">
        <ele>25.6</ele>
        <time>2013-03-14T21:29:49Z</time>
      </trkpt>
      <trkpt lat="59.490562575" lon="18.0975699213">
        <ele>25.6</ele>
        <time>2013-03-14T21:29:57Z</time>
      </trkpt>
      <trkpt lat="59.490511613" lon="18.0970640737">
        <ele>25.6</ele>
        <time>2013-03-14T21:30:04Z</time>
      </trkpt>
      <trkpt lat="59.4904609025" lon="18.0965200883">
        <ele>25.6</ele>
        <time>2013-03-14T21:30:11Z</time>
      </trkpt>
      <trkpt lat="59.4904144668" lon="18.0959880892">
        <ele>25.6</ele>
        <time>2013-03-14T21:30:18Z</time>
      </trkpt>
      <trkpt lat="59.4904650935" lon="18.0955911224">
        <ele>25.6</ele>
        <time>2013-03-14T21:30:24Z</time>
      </trkpt>
      <trkpt lat="59.4905373455" lon="18.0951739552">
        <ele>25.6</ele>
        <time>2013-03-14T21:30:30Z</time>
      </trkpt>
      <trkpt lat="59.4905211684" lon="18.0948051516">
        <ele>25.6</ele>
        <time>2013-03-14T21:30:35Z</time>
      </trkpt>
      <trkpt lat="59.4904236869" lon="18.0945120366">
        <ele>25.6</ele>
        <time>2013-03-14T21:30:40Z</time>
      </trkpt>
      <trkpt lat="59.4902491758" lon="18.0942338413">
        <ele>25.6</ele>
        <time>2013-03-14T21:30:46Z</time>
      </trkpt>
      <trkpt lat="59.4900382033" lon="18.0941208533">
        <ele>25.6</ele>
        <time>2013-03-14T21:30:52Z</time>
      </trkpt>
      <trkpt lat="59.4898472636" lon="18.0942100367">
        <ele>25.6</ele>
        <time>2013-03-14T21:30:58Z</time>
      </trkpt>
      <trkpt lat="59.4896529712" lon="18.0944848792">
        <ele>25.6</ele>
        <time>2013-03-14T21:31:05Z</time>
      </trkpt>
      <trkpt lat="59.4895087187" lon="18.094759135">
        <ele>25.6</ele>
        <time>2013-03-14T21:31:10Z</time>
      </trkpt>
      <trkpt lat="59.4894007598" lon="18.0949085004">
        <ele>25.6</ele>
        <time>2013-03-14T21:31:13Z</time>
      </trkpt>
      <trkpt lat="59.4893228082" lon="18.0949847757">
        <ele>25.6</ele>
        <time>2013-03-14T21:31:15Z</time>
      </trkpt>
      <trkpt lat="59.48908669" lon="18.095195329">
        <ele>25.6</ele>
        <time>2013-03-14T21:31:21Z</time>
      </trkpt>
      <trkpt lat="59.4889589499" lon="18.0953177886">
        <ele>25.6</ele>
        <time>2013-03-14T21:31:24Z</time>
      </trkpt>
      <trkpt lat="59.4888371609" lon="18.0954154377">
        <ele>25.6</ele>
        <time>2013-03-14T21:31:27Z</time>
      </trkpt>
      <trkpt lat="59.4887888811" lon="18.0954410864">
        <ele>25.6</ele>
        <time>2013-03-14T21:31:28Z</time>
      </trkpt>
      <trkpt lat="59.488660219" lon="18.0954687466">
        <ele>25.6</ele>
        <time>2013-03-14T21:31:31Z</time>
      </trkpt>
      <trkpt lat="59.4886100952" lon="18.0954510608">
        <ele>25.6</ele>
        <time>2013-03-14T21:31:32Z</time>
      </trkpt>
      <trkpt lat="59.4883515974" lon="18.0952650665">
        <ele>25.6</ele>
        <time>2013-03-14T21:31:38Z</time>
      </trkpt>
      <trkpt lat="59.4882660182" lon="18.0952167867">
        <ele>25.6</ele>
        <time>2013-03-14T21:31:40Z</time>
      </trkpt>
      <trkpt lat="59.4881320755" lon="18.0951262622">
        <ele>25.6</ele>
        <time>2013-03-14T21:31:43Z</time>
      </trkpt>
      <trkpt lat="59.487926216" lon="18.0949779864">
        <ele>25.6</ele>
        <time>2013-03-14T21:31:48Z</time>
      </trkpt>
      <trkpt lat="59.4876715739" lon="18.0947990328">
        <ele>25.6</ele>
        <time>2013-03-14T21:31:54Z</time>
      </trkpt>
      <trkpt lat="59.4874458493" lon="18.0946368431">
        <ele>25.6</ele>
        <time>2013-03-14T21:32:00Z</time>
      </trkpt>
      <trkpt lat="59.4872071328" lon="18.0945158084">
        <ele>25.6</ele>
        <time>2013-03-14T21:32:07Z</time>
      </trkpt>
      <trkpt lat="59.4870308614" lon="18.0943854699">
        <ele>26</ele>
        <time>2013-03-14T21:32:13Z</time>
      </trkpt>
      <trkpt lat="59.4870015248" lon="18.0943553789">
        <ele>26.4</ele>
        <time>2013-03-14T21:32:14Z</time>
      </trkpt>
      <trkpt lat="59.4869747027" lon="18.0943257907">
        <ele>26.8</ele>
        <time>2013-03-14T21:32:15Z</time>
      </trkpt>
      <trkpt lat="59.4869455337" lon="18.0942931852">
        <ele>27.2</ele>
        <time>2013-03-14T21:32:16Z</time>
      </trkpt>
      <trkpt lat="59.4869165323" lon="18.0942606634">
        <ele>27.6</ele>
        <time>2013-03-14T21:32:17Z</time>
      </trkpt>
      <trkpt lat="59.4868638102" lon="18.0942023254">
        <ele>27.6</ele>
        <time>2013-03-14T21:32:19Z</time>
      </trkpt>
      <trkpt lat="59.4866815877" lon="18.0940270598">
        <ele>27.6</ele>
        <time>2013-03-14T21:32:25Z</time>
      </trkpt>
      <trkpt lat="59.4864877981" lon="18.0938191887">
        <ele>27.6</ele>
        <time>2013-03-14T21:32:31Z</time>
      </trkpt>
      <trkpt lat="59.4862326531" lon="18.0935103157">
        <ele>27.6</ele>
        <time>2013-03-14T21:32:39Z</time>
      </trkpt>
      <trkpt lat="59.486008102" lon="18.0931703458">
        <ele>27.6</ele>
        <time>2013-03-14T21:32:46Z</time>
      </trkpt>
      <trkpt lat="59.4858141448" lon="18.0928959224">
        <ele>27.6</ele>
        <time>2013-03-14T21:32:52Z</time>
      </trkpt>
      <trkpt lat="59.485649189" lon="18.0927499097">
        <ele>27.6</ele>
        <time>2013-03-14T21:32:57Z</time>
      </trkpt>
      <trkpt lat="59.4854852391" lon="18.092682184">
        <ele>27.6</ele>
        <time>2013-03-14T21:33:01Z</time>
      </trkpt>
      <trkpt lat="59.485407455" lon="18.092647902">
        <ele>27.6</ele>
        <time>2013-03-14T21:33:03Z</time>
      </trkpt>
      <trkpt lat="59.4852843249" lon="18.0925087625">
        <ele>27.6</ele>
        <time>2013-03-14T21:33:07Z</time>
      </trkpt>
      <trkpt lat="59.4852600174" lon="18.0924592254">
        <ele>27.6</ele>
        <time>2013-03-14T21:33:08Z</time>
      </trkpt>
      <trkpt lat="59.4851603566" lon="18.0920879073">
        <ele>27.6</ele>
        <time>2013-03-14T21:33:13Z</time>
      </trkpt>
      <trkpt lat="59.4850919603" lon="18.0915549022">
        <ele>27.6</ele>
        <time>2013-03-14T21:33:19Z</time>
      </trkpt>
      <trkpt lat="59.4850656412" lon="18.0911232344">
        <ele>27.6</ele>
        <time>2013-03-14T21:33:24Z</time>
      </trkpt>
      <trkpt lat="59.4850689939" lon="18.0910353083">
        <ele>27.6</ele>
        <time>2013-03-14T21:33:25Z</time>
      </trkpt>
      <trkpt lat="59.4851257394" lon="18.0906952546">
        <ele>27.6</ele>
        <time>2013-03-14T21:33:29Z</time>
      </trkpt>
      <trkpt lat="59.4852619453" lon="18.0903529378">
        <ele>27.2</ele>
        <time>2013-03-14T21:33:34Z</time>
      </trkpt>
      <trkpt lat="59.4852987418" lon="18.0903023949">
        <ele>26.8</ele>
        <time>2013-03-14T21:33:35Z</time>
      </trkpt>
      <trkpt lat="59.4853388911" lon="18.0902601501">
        <ele>26.4</ele>
        <time>2013-03-14T21:33:36Z</time>
      </trkpt>
      <trkpt lat="59.4853835666" lon="18.0902314002">
        <ele>26</ele>
        <time>2013-03-14T21:33:37Z</time>
      </trkpt>
      <trkpt lat="59.4854245541" lon="18.0902145526">
        <ele>25.6</ele>
        <time>2013-03-14T21:33:38Z</time>
      </trkpt>
      <trkpt lat="59.4855812118" lon="18.0902732259">
        <ele>25.6</ele>
        <time>2013-03-14T21:33:42Z</time>
      </trkpt>
      <trkpt lat="59.485647345" lon="18.0903578831">
        <ele>25.6</ele>
        <time>2013-03-14T21:33:44Z</time>
      </trkpt>
      <trkpt lat="59.4857297391" lon="18.0905067456">
        <ele>25.6</ele>
        <time>2013-03-14T21:33:47Z</time>
      </trkpt>
      <trkpt lat="59.4858905878" lon="18.0907679257">
        <ele>25.6</ele>
        <time>2013-03-14T21:33:53Z</time>
      </trkpt>
      <trkpt lat="59.486031236" lon="18.0910049658">
        <ele>25.6</ele>
        <time>2013-03-14T21:33:59Z</time>
      </trkpt>
      <trkpt lat="59.4861888158" lon="18.0912042874">
        <ele>25.6</ele>
        <time>2013-03-14T21:34:04Z</time>
      </trkpt>
      <trkpt lat="59.4862651749" lon="18.0912429279">
        <ele>25.6</ele>
        <time>2013-03-14T21:34:06Z</time>
      </trkpt>
      <trkpt lat="59.4863817671" lon="18.0912171955">
        <ele>25.6</ele>
        <time>2013-03-14T21:34:09Z</time>
      </trkpt>
      <trkpt lat="59.4865530931" lon="18.0909869447">
        <ele>25.6</ele>
        <time>2013-03-14T21:34:14Z</time>
      </trkpt>
      <trkpt lat="59.4866483953" lon="18.0906164647">
        <ele>25.6</ele>
        <time>2013-03-14T21:34:19Z</time>
      </trkpt>
      <trkpt lat="59.4866929032" lon="18.0902105293">
        <ele>25.6</ele>
        <time>2013-03-14T21:34:24Z</time>
      </trkpt>
      <trkpt lat="59.4866787378" lon="18.0897313361">
        <ele>25.6</ele>
        <time>2013-03-14T21:34:30Z</time>
      </trkpt>
      <trkpt lat="59.4865953379" lon="18.0894568289">
        <ele>25.6</ele>
        <time>2013-03-14T21:34:34Z</time>
      </trkpt>
      <trkpt lat="59.486497605" lon="18.0893119896">
        <ele>25.6</ele>
        <time>2013-03-14T21:34:37Z</time>
      </trkpt>
      <trkpt lat="59.4864043144" lon="18.0891808129">
        <ele>25.6</ele>
        <time>2013-03-14T21:34:40Z</time>
      </trkpt>
      <trkpt lat="59.4862613192" lon="18.0888353948">
        <ele>25.6</ele>
        <time>2013-03-14T21:34:46Z</time>
      </trkpt>
      <trkpt lat="59.4861976168" lon="18.0884282859">
        <ele>25.6</ele>
        <time>2013-03-14T21:34:52Z</time>
      </trkpt>
      <trkpt lat="59.4862080103" lon="18.0880827002">
        <ele>25.6</ele>
        <time>2013-03-14T21:34:57Z</time>
      </trkpt>
      <trkpt lat="59.486220667" lon="18.0875014154">
        <ele>25.6</ele>
        <time>2013-03-14T21:35:04Z</time>
      </trkpt>
      <trkpt lat="59.4862161407" lon="18.0874118129">
        <ele>25.6</ele>
        <time>2013-03-14T21:35:05Z</time>
      </trkpt>
      <trkpt lat="59.4861754047" lon="18.0867871937">
        <ele>25.6</ele>
        <time>2013-03-14T21:35:12Z</time>
      </trkpt>
      <trkpt lat="59.4861789251" lon="18.0866304522">
        <ele>25.2</ele>
        <time>2013-03-14T21:35:14Z</time>
      </trkpt>
      <trkpt lat="59.4861879776" lon="18.0865546798">
        <ele>24.8</ele>
        <time>2013-03-14T21:35:15Z</time>
      </trkpt>
      <trkpt lat="59.4862013886" lon="18.0864866188">
        <ele>24.4</ele>
        <time>2013-03-14T21:35:16Z</time>
      </trkpt>
      <trkpt lat="59.4862218404" lon="18.0864203179">
        <ele>24</ele>
        <time>2013-03-14T21:35:17Z</time>
      </trkpt>
      <trkpt lat="59.4862515962" lon="18.0863576213">
        <ele>23.6</ele>
        <time>2013-03-14T21:35:18Z</time>
      </trkpt>
      <trkpt lat="59.4863605609" lon="18.0862012151">
        <ele>23.6</ele>
        <time>2013-03-14T21:35:21Z</time>
      </trkpt>
      <trkpt lat="59.4864022189" lon="18.0861543603">
        <ele>23.6</ele>
        <time>2013-03-14T21:35:22Z</time>
      </trkpt>
      <trkpt lat="59.486480925" lon="18.0860622432">
        <ele>23.6</ele>
        <time>2013-03-14T21:35:24Z</time>
      </trkpt>
      <trkpt lat="59.4865314678" lon="18.0859570503">
        <ele>23.6</ele>
        <time>2013-03-14T21:35:26Z</time>
      </trkpt>
      <trkpt lat="59.4865831841" lon="18.0856108779">
        <ele>23.6</ele>
        <time>2013-03-14T21:35:31Z</time>
      </trkpt>
      <trkpt lat="59.4866273568" lon="18.085276021">
        <ele>23.6</ele>
        <time>2013-03-14T21:35:36Z</time>
      </trkpt>
      <trkpt lat="59.4866452102" lon="18.0852161742">
        <ele>23.6</ele>
        <time>2013-03-14T21:35:37Z</time>
      </trkpt>
      <trkpt lat="59.4867872834" lon="18.0848565069">
        <ele>23.6</ele>
        <time>2013-03-14T21:35:44Z</time>
      </trkpt>
      <trkpt lat="59.4868468787" lon="18.0847032857">
        <ele>23.6</ele>
        <time>2013-03-14T21:35:48Z</time>
      </trkpt>
      <trkpt lat="59.4868546739" lon="18.0846691714">
        <ele>23.6</ele>
        <time>2013-03-14T21:35:49Z</time>
      </trkpt>
      <trkpt lat="59.4869315359" lon="18.0845250865">
        <ele>23.6</ele>
        <time>2013-03-14T21:35:54Z</time>
      </trkpt>
      <trkpt lat="59.4869666561" lon="18.0844996894">
        <ele>23.6</ele>
        <time>2013-03-14T21:35:56Z</time>
      </trkpt>
      <trkpt lat="59.4869754571" lon="18.0844838476">
        <ele>23.6</ele>
        <time>2013-03-14T21:35:57Z</time>
      </trkpt>
      <trkpt lat="59.4869793127" lon="18.0844753819">
        <ele>23.6</ele>
        <time>2013-03-14T21:35:58Z</time>
      </trkpt>
      <trkpt lat="59.486978726" lon="18.084470688">
        <ele>23.6</ele>
        <time>2013-03-14T21:35:59Z</time>
      </trkpt>
    </trkseg>
  </trk>
</gpx>